<?xml version="1.0" encoding="UTF-8" standalone="no" ?>
<gpx xmlns="http://www.topografix.com/GPX/1/1" xmlns:xsi="http://www.w3.org/2001/XMLSchema-instance" xsi:schemaLocation="http://www.topografix.com/GPX/1/1 http://www.topografix.com/GPX/1/1/gpx.xsd" version="1.1" creator="VisuGPX - https://www.visugpx.com">
  <metadata>
    <name>Benasque sud 15IntegralGallinero</name>
    <desc><![CDATA[
15]]></desc>
  </metadata>
  <trk>
    <name><![CDATA[15IntegralGallinero]]></name>
    <desc><![CDATA[15]]></desc>
    <trkseg>
      <trkpt lat="42.51236" lon="0.48957">
        <ele>913.6</ele>
        <time>2015-02-09T14:49:23Z</time>
      </trkpt>
      <trkpt lat="42.51238" lon="0.4935">
        <ele>925.3</ele>
        <time>2015-02-09T14:49:23Z</time>
      </trkpt>
      <trkpt lat="42.51218" lon="0.49407">
        <ele>927</ele>
        <time>2015-02-09T14:49:23Z</time>
      </trkpt>
      <trkpt lat="42.51218" lon="0.49439">
        <ele>927.9</ele>
        <time>2015-02-09T14:49:23Z</time>
      </trkpt>
      <trkpt lat="42.5124" lon="0.49518">
        <ele>930.3</ele>
        <time>2015-02-09T14:49:23Z</time>
      </trkpt>
      <trkpt lat="42.51295" lon="0.49711">
        <ele>940</ele>
        <time>2015-02-09T14:49:23Z</time>
      </trkpt>
      <trkpt lat="42.5135" lon="0.49878">
        <ele>953.2</ele>
        <time>2015-02-09T14:49:23Z</time>
      </trkpt>
      <trkpt lat="42.51357" lon="0.49933">
        <ele>958.6</ele>
        <time>2015-02-09T14:49:23Z</time>
      </trkpt>
      <trkpt lat="42.51345" lon="0.49972">
        <ele>960.8</ele>
        <time>2015-02-09T14:49:23Z</time>
      </trkpt>
      <trkpt lat="42.51333" lon="0.50009">
        <ele>962.6</ele>
        <time>2015-02-09T14:49:23Z</time>
      </trkpt>
      <trkpt lat="42.51317" lon="0.50081">
        <ele>965.5</ele>
        <time>2015-02-09T14:49:23Z</time>
      </trkpt>
      <trkpt lat="42.51311" lon="0.5012">
        <ele>967</ele>
        <time>2015-02-09T14:49:23Z</time>
      </trkpt>
      <trkpt lat="42.51313" lon="0.50174">
        <ele>970.3</ele>
        <time>2015-02-09T14:49:23Z</time>
      </trkpt>
      <trkpt lat="42.51314" lon="0.50214">
        <ele>973.1</ele>
        <time>2015-02-09T14:49:23Z</time>
      </trkpt>
      <trkpt lat="42.51308" lon="0.50249">
        <ele>974.6</ele>
        <time>2015-02-09T14:49:23Z</time>
      </trkpt>
      <trkpt lat="42.51296" lon="0.50265">
        <ele>974.4</ele>
        <time>2015-02-09T14:49:23Z</time>
      </trkpt>
      <trkpt lat="42.51268" lon="0.50292">
        <ele>973.3</ele>
        <time>2015-02-09T14:49:23Z</time>
      </trkpt>
      <trkpt lat="42.51243" lon="0.50314">
        <ele>972.5</ele>
        <time>2015-02-09T14:49:23Z</time>
      </trkpt>
      <trkpt lat="42.51225" lon="0.50342">
        <ele>974.2</ele>
        <time>2015-02-09T14:49:23Z</time>
      </trkpt>
      <trkpt lat="42.51217" lon="0.50357">
        <ele>975.9</ele>
        <time>2015-02-09T14:49:23Z</time>
      </trkpt>
      <trkpt lat="42.51228" lon="0.50361">
        <ele>977.5</ele>
        <time>2015-02-09T14:49:23Z</time>
      </trkpt>
      <trkpt lat="42.51267" lon="0.50357">
        <ele>981.5</ele>
        <time>2015-02-09T14:49:23Z</time>
      </trkpt>
      <trkpt lat="42.51358" lon="0.50345">
        <ele>994.7</ele>
        <time>2015-02-09T14:49:23Z</time>
      </trkpt>
      <trkpt lat="42.51414" lon="0.5033">
        <ele>1005.8</ele>
        <time>2015-02-09T14:49:23Z</time>
      </trkpt>
      <trkpt lat="42.51457" lon="0.50304">
        <ele>1010.5</ele>
        <time>2015-02-09T14:49:23Z</time>
      </trkpt>
      <trkpt lat="42.51492" lon="0.50253">
        <ele>1007.2</ele>
        <time>2015-02-09T14:49:23Z</time>
      </trkpt>
      <trkpt lat="42.51515" lon="0.50223">
        <ele>1006.5</ele>
        <time>2015-02-09T14:49:23Z</time>
      </trkpt>
      <trkpt lat="42.51534" lon="0.50215">
        <ele>1008.6</ele>
        <time>2015-02-09T14:49:23Z</time>
      </trkpt>
      <trkpt lat="42.51564" lon="0.50217">
        <ele>1013.7</ele>
        <time>2015-02-09T14:49:23Z</time>
      </trkpt>
      <trkpt lat="42.51588" lon="0.50221">
        <ele>1018.5</ele>
        <time>2015-02-09T14:49:23Z</time>
      </trkpt>
      <trkpt lat="42.51611" lon="0.50221">
        <ele>1024.7</ele>
        <time>2015-02-09T14:49:23Z</time>
      </trkpt>
      <trkpt lat="42.5164" lon="0.50189">
        <ele>1028.5</ele>
        <time>2015-02-09T14:49:23Z</time>
      </trkpt>
      <trkpt lat="42.51657" lon="0.50168">
        <ele>1029.8</ele>
        <time>2015-02-09T14:49:23Z</time>
      </trkpt>
      <trkpt lat="42.51702" lon="0.50145">
        <ele>1042.3</ele>
        <time>2015-02-09T14:49:23Z</time>
      </trkpt>
      <trkpt lat="42.51747" lon="0.50132">
        <ele>1058.5</ele>
        <time>2015-02-09T14:49:23Z</time>
      </trkpt>
      <trkpt lat="42.51771" lon="0.50111">
        <ele>1061.9</ele>
        <time>2015-02-09T14:49:23Z</time>
      </trkpt>
      <trkpt lat="42.51771" lon="0.50111">
        <ele>1061.9</ele>
        <time>2015-02-09T14:49:23Z</time>
      </trkpt>
      <trkpt lat="42.51777" lon="0.50101">
        <ele>1061</ele>
        <time>2015-02-09T14:49:23Z</time>
      </trkpt>
      <trkpt lat="42.51789" lon="0.50086">
        <ele>1060.2</ele>
        <time>2015-02-09T14:49:23Z</time>
      </trkpt>
      <trkpt lat="42.51792" lon="0.50075">
        <ele>1058.3</ele>
        <time>2015-02-09T14:49:23Z</time>
      </trkpt>
      <trkpt lat="42.51801" lon="0.50054">
        <ele>1055.3</ele>
        <time>2015-02-09T14:49:23Z</time>
      </trkpt>
      <trkpt lat="42.51808" lon="0.50042">
        <ele>1053.9</ele>
        <time>2015-02-09T14:49:23Z</time>
      </trkpt>
      <trkpt lat="42.51821" lon="0.50019">
        <ele>1050.5</ele>
        <time>2015-02-09T14:49:23Z</time>
      </trkpt>
      <trkpt lat="42.51839" lon="0.49995">
        <ele>1049.6</ele>
        <time>2015-02-09T14:49:23Z</time>
      </trkpt>
      <trkpt lat="42.51852" lon="0.49986">
        <ele>1053.4</ele>
        <time>2015-02-09T14:49:23Z</time>
      </trkpt>
      <trkpt lat="42.51866" lon="0.49984">
        <ele>1059</ele>
        <time>2015-02-09T14:49:23Z</time>
      </trkpt>
      <trkpt lat="42.51883" lon="0.49985">
        <ele>1066.6</ele>
        <time>2015-02-09T14:49:23Z</time>
      </trkpt>
      <trkpt lat="42.519" lon="0.49985">
        <ele>1073.9</ele>
        <time>2015-02-09T14:49:23Z</time>
      </trkpt>
      <trkpt lat="42.51914" lon="0.49975">
        <ele>1078</ele>
        <time>2015-02-09T14:49:23Z</time>
      </trkpt>
      <trkpt lat="42.51926" lon="0.4996">
        <ele>1081.1</ele>
        <time>2015-02-09T14:49:23Z</time>
      </trkpt>
      <trkpt lat="42.51938" lon="0.49939">
        <ele>1082.9</ele>
        <time>2015-02-09T14:49:23Z</time>
      </trkpt>
      <trkpt lat="42.51945" lon="0.4992">
        <ele>1082.3</ele>
        <time>2015-02-09T14:49:23Z</time>
      </trkpt>
      <trkpt lat="42.51954" lon="0.49895">
        <ele>1080.7</ele>
        <time>2015-02-09T14:49:23Z</time>
      </trkpt>
      <trkpt lat="42.51963" lon="0.49877">
        <ele>1080.6</ele>
        <time>2015-02-09T14:49:23Z</time>
      </trkpt>
      <trkpt lat="42.51978" lon="0.49857">
        <ele>1083.1</ele>
        <time>2015-02-09T14:49:23Z</time>
      </trkpt>
      <trkpt lat="42.51991" lon="0.49839">
        <ele>1085.1</ele>
        <time>2015-02-09T14:49:23Z</time>
      </trkpt>
      <trkpt lat="42.52003" lon="0.4982">
        <ele>1086.3</ele>
        <time>2015-02-09T14:49:23Z</time>
      </trkpt>
      <trkpt lat="42.52015" lon="0.49805">
        <ele>1088.5</ele>
        <time>2015-02-09T14:49:23Z</time>
      </trkpt>
      <trkpt lat="42.52029" lon="0.49792">
        <ele>1092.2</ele>
        <time>2015-02-09T14:49:23Z</time>
      </trkpt>
      <trkpt lat="42.5204" lon="0.49776">
        <ele>1094.1</ele>
        <time>2015-02-09T14:49:23Z</time>
      </trkpt>
      <trkpt lat="42.52053" lon="0.49751">
        <ele>1095.9</ele>
        <time>2015-02-09T14:49:23Z</time>
      </trkpt>
      <trkpt lat="42.52067" lon="0.49724">
        <ele>1096.1</ele>
        <time>2015-02-09T14:49:23Z</time>
      </trkpt>
      <trkpt lat="42.52077" lon="0.49704">
        <ele>1095.9</ele>
        <time>2015-02-09T14:49:23Z</time>
      </trkpt>
      <trkpt lat="42.52093" lon="0.49675">
        <ele>1092.4</ele>
        <time>2015-02-09T14:49:23Z</time>
      </trkpt>
      <trkpt lat="42.5211" lon="0.4965">
        <ele>1087.8</ele>
        <time>2015-02-09T14:49:23Z</time>
      </trkpt>
      <trkpt lat="42.52126" lon="0.49631">
        <ele>1084.6</ele>
        <time>2015-02-09T14:49:23Z</time>
      </trkpt>
      <trkpt lat="42.52141" lon="0.49616">
        <ele>1083.1</ele>
        <time>2015-02-09T14:49:23Z</time>
      </trkpt>
      <trkpt lat="42.52159" lon="0.49604">
        <ele>1082.7</ele>
        <time>2015-02-09T14:49:23Z</time>
      </trkpt>
      <trkpt lat="42.52172" lon="0.49591">
        <ele>1081.6</ele>
        <time>2015-02-09T14:49:23Z</time>
      </trkpt>
      <trkpt lat="42.52189" lon="0.49571">
        <ele>1081.4</ele>
        <time>2015-02-09T14:49:23Z</time>
      </trkpt>
      <trkpt lat="42.52201" lon="0.49553">
        <ele>1081.5</ele>
        <time>2015-02-09T14:49:23Z</time>
      </trkpt>
      <trkpt lat="42.52216" lon="0.49534">
        <ele>1082</ele>
        <time>2015-02-09T14:49:23Z</time>
      </trkpt>
      <trkpt lat="42.52229" lon="0.49523">
        <ele>1082.9</ele>
        <time>2015-02-09T14:49:23Z</time>
      </trkpt>
      <trkpt lat="42.52244" lon="0.49509">
        <ele>1083.9</ele>
        <time>2015-02-09T14:49:23Z</time>
      </trkpt>
      <trkpt lat="42.5226" lon="0.495">
        <ele>1083.5</ele>
        <time>2015-02-09T14:49:23Z</time>
      </trkpt>
      <trkpt lat="42.52276" lon="0.49496">
        <ele>1082.4</ele>
        <time>2015-02-09T14:49:23Z</time>
      </trkpt>
      <trkpt lat="42.5229" lon="0.49494">
        <ele>1081.9</ele>
        <time>2015-02-09T14:49:23Z</time>
      </trkpt>
      <trkpt lat="42.52307" lon="0.49499">
        <ele>1082.4</ele>
        <time>2015-02-09T14:49:23Z</time>
      </trkpt>
      <trkpt lat="42.52325" lon="0.49505">
        <ele>1083.2</ele>
        <time>2015-02-09T14:49:23Z</time>
      </trkpt>
      <trkpt lat="42.52341" lon="0.4951">
        <ele>1083.9</ele>
        <time>2015-02-09T14:49:23Z</time>
      </trkpt>
      <trkpt lat="42.52361" lon="0.49517">
        <ele>1084.4</ele>
        <time>2015-02-09T14:49:23Z</time>
      </trkpt>
      <trkpt lat="42.52378" lon="0.49522">
        <ele>1084.6</ele>
        <time>2015-02-09T14:49:23Z</time>
      </trkpt>
      <trkpt lat="42.52395" lon="0.49527">
        <ele>1084.9</ele>
        <time>2015-02-09T14:49:23Z</time>
      </trkpt>
      <trkpt lat="42.52414" lon="0.49536">
        <ele>1086</ele>
        <time>2015-02-09T14:49:23Z</time>
      </trkpt>
      <trkpt lat="42.52428" lon="0.4954">
        <ele>1085.4</ele>
        <time>2015-02-09T14:49:23Z</time>
      </trkpt>
      <trkpt lat="42.52455" lon="0.49551">
        <ele>1085.1</ele>
        <time>2015-02-09T14:49:23Z</time>
      </trkpt>
      <trkpt lat="42.52475" lon="0.49558">
        <ele>1084.4</ele>
        <time>2015-02-09T14:49:23Z</time>
      </trkpt>
      <trkpt lat="42.52497" lon="0.49573">
        <ele>1085.4</ele>
        <time>2015-02-09T14:49:23Z</time>
      </trkpt>
      <trkpt lat="42.52522" lon="0.49584">
        <ele>1088.8</ele>
        <time>2015-02-09T14:49:23Z</time>
      </trkpt>
      <trkpt lat="42.52546" lon="0.49596">
        <ele>1093.6</ele>
        <time>2015-02-09T14:49:23Z</time>
      </trkpt>
      <trkpt lat="42.5257" lon="0.49607">
        <ele>1097.8</ele>
        <time>2015-02-09T14:49:23Z</time>
      </trkpt>
      <trkpt lat="42.5259" lon="0.49619">
        <ele>1100.2</ele>
        <time>2015-02-09T14:49:23Z</time>
      </trkpt>
      <trkpt lat="42.52618" lon="0.49638">
        <ele>1099.9</ele>
        <time>2015-02-09T14:49:23Z</time>
      </trkpt>
      <trkpt lat="42.52642" lon="0.49647">
        <ele>1097.3</ele>
        <time>2015-02-09T14:49:23Z</time>
      </trkpt>
      <trkpt lat="42.52659" lon="0.49649">
        <ele>1094.4</ele>
        <time>2015-02-09T14:49:23Z</time>
      </trkpt>
      <trkpt lat="42.52683" lon="0.49658">
        <ele>1091.4</ele>
        <time>2015-02-09T14:49:23Z</time>
      </trkpt>
      <trkpt lat="42.52696" lon="0.49669">
        <ele>1090.8</ele>
        <time>2015-02-09T14:49:23Z</time>
      </trkpt>
      <trkpt lat="42.52707" lon="0.49686">
        <ele>1091.6</ele>
        <time>2015-02-09T14:49:23Z</time>
      </trkpt>
      <trkpt lat="42.52715" lon="0.4971">
        <ele>1094.6</ele>
        <time>2015-02-09T14:49:23Z</time>
      </trkpt>
      <trkpt lat="42.52721" lon="0.49733">
        <ele>1097.7</ele>
        <time>2015-02-09T14:49:23Z</time>
      </trkpt>
      <trkpt lat="42.5273" lon="0.49759">
        <ele>1101</ele>
        <time>2015-02-09T14:49:23Z</time>
      </trkpt>
      <trkpt lat="42.5274" lon="0.49781">
        <ele>1103.2</ele>
        <time>2015-02-09T14:49:23Z</time>
      </trkpt>
      <trkpt lat="42.52756" lon="0.49804">
        <ele>1104.8</ele>
        <time>2015-02-09T14:49:23Z</time>
      </trkpt>
      <trkpt lat="42.52765" lon="0.4982">
        <ele>1106</ele>
        <time>2015-02-09T14:49:23Z</time>
      </trkpt>
      <trkpt lat="42.52776" lon="0.49839">
        <ele>1106.5</ele>
        <time>2015-02-09T14:49:23Z</time>
      </trkpt>
      <trkpt lat="42.52782" lon="0.49854">
        <ele>1106.8</ele>
        <time>2015-02-09T14:49:23Z</time>
      </trkpt>
      <trkpt lat="42.52789" lon="0.49873">
        <ele>1107.4</ele>
        <time>2015-02-09T14:49:23Z</time>
      </trkpt>
      <trkpt lat="42.52794" lon="0.49897">
        <ele>1108.8</ele>
        <time>2015-02-09T14:49:23Z</time>
      </trkpt>
      <trkpt lat="42.52796" lon="0.49925">
        <ele>1112.5</ele>
        <time>2015-02-09T14:49:23Z</time>
      </trkpt>
      <trkpt lat="42.52798" lon="0.4994">
        <ele>1115.7</ele>
        <time>2015-02-09T14:49:23Z</time>
      </trkpt>
      <trkpt lat="42.52803" lon="0.49957">
        <ele>1119.1</ele>
        <time>2015-02-09T14:49:23Z</time>
      </trkpt>
      <trkpt lat="42.52812" lon="0.4997">
        <ele>1120.7</ele>
        <time>2015-02-09T14:49:23Z</time>
      </trkpt>
      <trkpt lat="42.52814" lon="0.49971">
        <ele>1120.7</ele>
        <time>2015-02-09T14:49:23Z</time>
      </trkpt>
      <trkpt lat="42.52823" lon="0.49982">
        <ele>1122</ele>
        <time>2015-02-09T14:49:23Z</time>
      </trkpt>
      <trkpt lat="42.52838" lon="0.49992">
        <ele>1123.2</ele>
        <time>2015-02-09T14:49:23Z</time>
      </trkpt>
      <trkpt lat="42.52853" lon="0.50002">
        <ele>1127.5</ele>
        <time>2015-02-09T14:49:23Z</time>
      </trkpt>
      <trkpt lat="42.52861" lon="0.5001">
        <ele>1130.5</ele>
        <time>2015-02-09T14:49:23Z</time>
      </trkpt>
      <trkpt lat="42.52872" lon="0.50023">
        <ele>1135.2</ele>
        <time>2015-02-09T14:49:23Z</time>
      </trkpt>
      <trkpt lat="42.52881" lon="0.50039">
        <ele>1140.4</ele>
        <time>2015-02-09T14:49:23Z</time>
      </trkpt>
      <trkpt lat="42.52887" lon="0.50053">
        <ele>1144.8</ele>
        <time>2015-02-09T14:49:23Z</time>
      </trkpt>
      <trkpt lat="42.52893" lon="0.50068">
        <ele>1149.6</ele>
        <time>2015-02-09T14:49:23Z</time>
      </trkpt>
      <trkpt lat="42.52902" lon="0.50082">
        <ele>1153.9</ele>
        <time>2015-02-09T14:49:23Z</time>
      </trkpt>
      <trkpt lat="42.52912" lon="0.50094">
        <ele>1158.1</ele>
        <time>2015-02-09T14:49:23Z</time>
      </trkpt>
      <trkpt lat="42.52931" lon="0.50104">
        <ele>1163.3</ele>
        <time>2015-02-09T14:49:23Z</time>
      </trkpt>
      <trkpt lat="42.52944" lon="0.5011">
        <ele>1167</ele>
        <time>2015-02-09T14:49:23Z</time>
      </trkpt>
      <trkpt lat="42.52957" lon="0.50118">
        <ele>1170.6</ele>
        <time>2015-02-09T14:49:23Z</time>
      </trkpt>
      <trkpt lat="42.5297" lon="0.50128">
        <ele>1174.5</ele>
        <time>2015-02-09T14:49:23Z</time>
      </trkpt>
      <trkpt lat="42.52974" lon="0.50138">
        <ele>1176.6</ele>
        <time>2015-02-09T14:49:23Z</time>
      </trkpt>
      <trkpt lat="42.52971" lon="0.50155">
        <ele>1179</ele>
        <time>2015-02-09T14:49:23Z</time>
      </trkpt>
      <trkpt lat="42.52969" lon="0.50164">
        <ele>1180.4</ele>
        <time>2015-02-09T14:49:23Z</time>
      </trkpt>
      <trkpt lat="42.52957" lon="0.50172">
        <ele>1180.7</ele>
        <time>2015-02-09T14:49:23Z</time>
      </trkpt>
      <trkpt lat="42.52944" lon="0.50179">
        <ele>1180.5</ele>
        <time>2015-02-09T14:49:23Z</time>
      </trkpt>
      <trkpt lat="42.52927" lon="0.50181">
        <ele>1179.2</ele>
        <time>2015-02-09T14:49:23Z</time>
      </trkpt>
      <trkpt lat="42.52912" lon="0.50185">
        <ele>1178.9</ele>
        <time>2015-02-09T14:49:23Z</time>
      </trkpt>
      <trkpt lat="42.529" lon="0.50181">
        <ele>1177.4</ele>
        <time>2015-02-09T14:49:23Z</time>
      </trkpt>
      <trkpt lat="42.52886" lon="0.50178">
        <ele>1176.2</ele>
        <time>2015-02-09T14:49:23Z</time>
      </trkpt>
      <trkpt lat="42.52872" lon="0.50177">
        <ele>1175.2</ele>
        <time>2015-02-09T14:49:23Z</time>
      </trkpt>
      <trkpt lat="42.52858" lon="0.50175">
        <ele>1174.2</ele>
        <time>2015-02-09T14:49:23Z</time>
      </trkpt>
      <trkpt lat="42.52837" lon="0.50173">
        <ele>1172.5</ele>
        <time>2015-02-09T14:49:23Z</time>
      </trkpt>
      <trkpt lat="42.5282" lon="0.5017">
        <ele>1173.1</ele>
        <time>2015-02-09T14:49:23Z</time>
      </trkpt>
      <trkpt lat="42.52803" lon="0.50173">
        <ele>1175.6</ele>
        <time>2015-02-09T14:49:23Z</time>
      </trkpt>
      <trkpt lat="42.52791" lon="0.50176">
        <ele>1177.6</ele>
        <time>2015-02-09T14:49:23Z</time>
      </trkpt>
      <trkpt lat="42.52778" lon="0.50184">
        <ele>1180.2</ele>
        <time>2015-02-09T14:49:23Z</time>
      </trkpt>
      <trkpt lat="42.52765" lon="0.50199">
        <ele>1183.3</ele>
        <time>2015-02-09T14:49:23Z</time>
      </trkpt>
      <trkpt lat="42.52761" lon="0.50212">
        <ele>1185.2</ele>
        <time>2015-02-09T14:49:23Z</time>
      </trkpt>
      <trkpt lat="42.52759" lon="0.50235">
        <ele>1188.2</ele>
        <time>2015-02-09T14:49:23Z</time>
      </trkpt>
      <trkpt lat="42.52766" lon="0.50254">
        <ele>1190.6</ele>
        <time>2015-02-09T14:49:23Z</time>
      </trkpt>
      <trkpt lat="42.52777" lon="0.50268">
        <ele>1192.8</ele>
        <time>2015-02-09T14:49:23Z</time>
      </trkpt>
      <trkpt lat="42.52794" lon="0.50276">
        <ele>1194.3</ele>
        <time>2015-02-09T14:49:23Z</time>
      </trkpt>
      <trkpt lat="42.52817" lon="0.5028">
        <ele>1195.4</ele>
        <time>2015-02-09T14:49:23Z</time>
      </trkpt>
      <trkpt lat="42.52846" lon="0.50283">
        <ele>1195.9</ele>
        <time>2015-02-09T14:49:23Z</time>
      </trkpt>
      <trkpt lat="42.52874" lon="0.50282">
        <ele>1194.7</ele>
        <time>2015-02-09T14:49:23Z</time>
      </trkpt>
      <trkpt lat="42.52902" lon="0.50279">
        <ele>1193.3</ele>
        <time>2015-02-09T14:49:23Z</time>
      </trkpt>
      <trkpt lat="42.52926" lon="0.50284">
        <ele>1194</ele>
        <time>2015-02-09T14:49:23Z</time>
      </trkpt>
      <trkpt lat="42.52943" lon="0.50293">
        <ele>1196.1</ele>
        <time>2015-02-09T14:49:23Z</time>
      </trkpt>
      <trkpt lat="42.52962" lon="0.50315">
        <ele>1200.1</ele>
        <time>2015-02-09T14:49:23Z</time>
      </trkpt>
      <trkpt lat="42.52975" lon="0.50339">
        <ele>1203.9</ele>
        <time>2015-02-09T14:49:23Z</time>
      </trkpt>
      <trkpt lat="42.52984" lon="0.50369">
        <ele>1205.8</ele>
        <time>2015-02-09T14:49:23Z</time>
      </trkpt>
      <trkpt lat="42.52988" lon="0.504">
        <ele>1207.4</ele>
        <time>2015-02-09T14:49:23Z</time>
      </trkpt>
      <trkpt lat="42.52991" lon="0.50433">
        <ele>1208.8</ele>
        <time>2015-02-09T14:49:23Z</time>
      </trkpt>
      <trkpt lat="42.52999" lon="0.50465">
        <ele>1210.1</ele>
        <time>2015-02-09T14:49:23Z</time>
      </trkpt>
      <trkpt lat="42.53005" lon="0.5049">
        <ele>1212</ele>
        <time>2015-02-09T14:49:23Z</time>
      </trkpt>
      <trkpt lat="42.53009" lon="0.50501">
        <ele>1213.2</ele>
        <time>2015-02-09T14:49:23Z</time>
      </trkpt>
      <trkpt lat="42.53003" lon="0.50509">
        <ele>1212.1</ele>
        <time>2015-02-09T14:49:23Z</time>
      </trkpt>
      <trkpt lat="42.53001" lon="0.50508">
        <ele>1211.6</ele>
        <time>2015-02-09T14:49:23Z</time>
      </trkpt>
      <trkpt lat="42.52989" lon="0.50491">
        <ele>1210.8</ele>
        <time>2015-02-09T14:49:23Z</time>
      </trkpt>
      <trkpt lat="42.52979" lon="0.5046">
        <ele>1209.3</ele>
        <time>2015-02-09T14:49:23Z</time>
      </trkpt>
      <trkpt lat="42.52971" lon="0.50435">
        <ele>1207.6</ele>
        <time>2015-02-09T14:49:23Z</time>
      </trkpt>
      <trkpt lat="42.52957" lon="0.50413">
        <ele>1205.3</ele>
        <time>2015-02-09T14:49:23Z</time>
      </trkpt>
      <trkpt lat="42.52934" lon="0.50401">
        <ele>1202.7</ele>
        <time>2015-02-09T14:49:23Z</time>
      </trkpt>
      <trkpt lat="42.52918" lon="0.50401">
        <ele>1201.4</ele>
        <time>2015-02-09T14:49:23Z</time>
      </trkpt>
      <trkpt lat="42.529" lon="0.50408">
        <ele>1204.5</ele>
        <time>2015-02-09T14:49:23Z</time>
      </trkpt>
      <trkpt lat="42.5288" lon="0.50415">
        <ele>1208.7</ele>
        <time>2015-02-09T14:49:23Z</time>
      </trkpt>
      <trkpt lat="42.52863" lon="0.50422">
        <ele>1213</ele>
        <time>2015-02-09T14:49:23Z</time>
      </trkpt>
      <trkpt lat="42.52848" lon="0.50431">
        <ele>1217.3</ele>
        <time>2015-02-09T14:49:23Z</time>
      </trkpt>
      <trkpt lat="42.52836" lon="0.50438">
        <ele>1221.1</ele>
        <time>2015-02-09T14:49:23Z</time>
      </trkpt>
      <trkpt lat="42.52815" lon="0.5045">
        <ele>1223.9</ele>
        <time>2015-02-09T14:49:23Z</time>
      </trkpt>
      <trkpt lat="42.528" lon="0.50461">
        <ele>1226.2</ele>
        <time>2015-02-09T14:49:23Z</time>
      </trkpt>
      <trkpt lat="42.52778" lon="0.50478">
        <ele>1230.6</ele>
        <time>2015-02-09T14:49:23Z</time>
      </trkpt>
      <trkpt lat="42.52761" lon="0.50495">
        <ele>1235.2</ele>
        <time>2015-02-09T14:49:23Z</time>
      </trkpt>
      <trkpt lat="42.52748" lon="0.50508">
        <ele>1239.2</ele>
        <time>2015-02-09T14:49:23Z</time>
      </trkpt>
      <trkpt lat="42.52732" lon="0.50524">
        <ele>1241.2</ele>
        <time>2015-02-09T14:49:23Z</time>
      </trkpt>
      <trkpt lat="42.52716" lon="0.5054">
        <ele>1242.5</ele>
        <time>2015-02-09T14:49:23Z</time>
      </trkpt>
      <trkpt lat="42.52703" lon="0.5055">
        <ele>1242.4</ele>
        <time>2015-02-09T14:49:23Z</time>
      </trkpt>
      <trkpt lat="42.52681" lon="0.50564">
        <ele>1240.7</ele>
        <time>2015-02-09T14:49:23Z</time>
      </trkpt>
      <trkpt lat="42.52665" lon="0.50578">
        <ele>1239.6</ele>
        <time>2015-02-09T14:49:23Z</time>
      </trkpt>
      <trkpt lat="42.52658" lon="0.50586">
        <ele>1240.4</ele>
        <time>2015-02-09T14:49:23Z</time>
      </trkpt>
      <trkpt lat="42.5266" lon="0.50594">
        <ele>1242.7</ele>
        <time>2015-02-09T14:49:23Z</time>
      </trkpt>
      <trkpt lat="42.52664" lon="0.50593">
        <ele>1242.8</ele>
        <time>2015-02-09T14:49:23Z</time>
      </trkpt>
      <trkpt lat="42.52683" lon="0.50586">
        <ele>1245.7</ele>
        <time>2015-02-09T14:49:23Z</time>
      </trkpt>
      <trkpt lat="42.52694" lon="0.50586">
        <ele>1248.6</ele>
        <time>2015-02-09T14:49:23Z</time>
      </trkpt>
      <trkpt lat="42.52707" lon="0.50594">
        <ele>1253.8</ele>
        <time>2015-02-09T14:49:23Z</time>
      </trkpt>
      <trkpt lat="42.52714" lon="0.50595">
        <ele>1255.6</ele>
        <time>2015-02-09T14:49:23Z</time>
      </trkpt>
      <trkpt lat="42.52725" lon="0.50595">
        <ele>1258.4</ele>
        <time>2015-02-09T14:49:23Z</time>
      </trkpt>
      <trkpt lat="42.52736" lon="0.50595">
        <ele>1261.1</ele>
        <time>2015-02-09T14:49:23Z</time>
      </trkpt>
      <trkpt lat="42.52744" lon="0.50598">
        <ele>1263.8</ele>
        <time>2015-02-09T14:49:23Z</time>
      </trkpt>
      <trkpt lat="42.52742" lon="0.50606">
        <ele>1264.6</ele>
        <time>2015-02-09T14:49:23Z</time>
      </trkpt>
      <trkpt lat="42.5273" lon="0.50614">
        <ele>1263</ele>
        <time>2015-02-09T14:49:23Z</time>
      </trkpt>
      <trkpt lat="42.52721" lon="0.50623">
        <ele>1262.5</ele>
        <time>2015-02-09T14:49:23Z</time>
      </trkpt>
      <trkpt lat="42.52722" lon="0.50629">
        <ele>1263.7</ele>
        <time>2015-02-09T14:49:23Z</time>
      </trkpt>
      <trkpt lat="42.5273" lon="0.50634">
        <ele>1266.4</ele>
        <time>2015-02-09T14:49:23Z</time>
      </trkpt>
      <trkpt lat="42.52732" lon="0.50633">
        <ele>1266.8</ele>
        <time>2015-02-09T14:49:23Z</time>
      </trkpt>
      <trkpt lat="42.52748" lon="0.50626">
        <ele>1269.1</ele>
        <time>2015-02-09T14:49:23Z</time>
      </trkpt>
      <trkpt lat="42.52758" lon="0.5062">
        <ele>1268.7</ele>
        <time>2015-02-09T14:49:23Z</time>
      </trkpt>
      <trkpt lat="42.52763" lon="0.50619">
        <ele>1268.5</ele>
        <time>2015-02-09T14:49:23Z</time>
      </trkpt>
      <trkpt lat="42.52764" lon="0.50628">
        <ele>1270</ele>
        <time>2015-02-09T14:49:23Z</time>
      </trkpt>
      <trkpt lat="42.52763" lon="0.50629">
        <ele>1270</ele>
        <time>2015-02-09T14:49:23Z</time>
      </trkpt>
      <trkpt lat="42.5275" lon="0.50638">
        <ele>1271.3</ele>
        <time>2015-02-09T14:49:23Z</time>
      </trkpt>
      <trkpt lat="42.5274" lon="0.50648">
        <ele>1271</ele>
        <time>2015-02-09T14:49:23Z</time>
      </trkpt>
      <trkpt lat="42.52726" lon="0.5066">
        <ele>1270.1</ele>
        <time>2015-02-09T14:49:23Z</time>
      </trkpt>
      <trkpt lat="42.52716" lon="0.50668">
        <ele>1269.6</ele>
        <time>2015-02-09T14:49:23Z</time>
      </trkpt>
      <trkpt lat="42.52704" lon="0.50676">
        <ele>1269.9</ele>
        <time>2015-02-09T14:49:23Z</time>
      </trkpt>
      <trkpt lat="42.52694" lon="0.50683">
        <ele>1270.3</ele>
        <time>2015-02-09T14:49:23Z</time>
      </trkpt>
      <trkpt lat="42.52686" lon="0.50692">
        <ele>1272.1</ele>
        <time>2015-02-09T14:49:23Z</time>
      </trkpt>
      <trkpt lat="42.52678" lon="0.507">
        <ele>1273.8</ele>
        <time>2015-02-09T14:49:23Z</time>
      </trkpt>
      <trkpt lat="42.5267" lon="0.50705">
        <ele>1274.9</ele>
        <time>2015-02-09T14:49:23Z</time>
      </trkpt>
      <trkpt lat="42.52662" lon="0.50713">
        <ele>1276.6</ele>
        <time>2015-02-09T14:49:23Z</time>
      </trkpt>
      <trkpt lat="42.52651" lon="0.50728">
        <ele>1280.2</ele>
        <time>2015-02-09T14:49:23Z</time>
      </trkpt>
      <trkpt lat="42.52638" lon="0.50742">
        <ele>1282</ele>
        <time>2015-02-09T14:49:23Z</time>
      </trkpt>
      <trkpt lat="42.5263" lon="0.50756">
        <ele>1285</ele>
        <time>2015-02-09T14:49:23Z</time>
      </trkpt>
      <trkpt lat="42.52619" lon="0.50769">
        <ele>1286.5</ele>
        <time>2015-02-09T14:49:23Z</time>
      </trkpt>
      <trkpt lat="42.52607" lon="0.50785">
        <ele>1289</ele>
        <time>2015-02-09T14:49:23Z</time>
      </trkpt>
      <trkpt lat="42.52591" lon="0.50801">
        <ele>1291.3</ele>
        <time>2015-02-09T14:49:23Z</time>
      </trkpt>
      <trkpt lat="42.52585" lon="0.50806">
        <ele>1291.4</ele>
        <time>2015-02-09T14:49:23Z</time>
      </trkpt>
      <trkpt lat="42.52589" lon="0.50816">
        <ele>1295.9</ele>
        <time>2015-02-09T14:49:23Z</time>
      </trkpt>
      <trkpt lat="42.52596" lon="0.50812">
        <ele>1295.8</ele>
        <time>2015-02-09T14:49:23Z</time>
      </trkpt>
      <trkpt lat="42.52597" lon="0.5081">
        <ele>1295.6</ele>
        <time>2015-02-09T14:49:23Z</time>
      </trkpt>
      <trkpt lat="42.52606" lon="0.50796">
        <ele>1292.6</ele>
        <time>2015-02-09T14:49:23Z</time>
      </trkpt>
      <trkpt lat="42.52617" lon="0.50782">
        <ele>1290.3</ele>
        <time>2015-02-09T14:49:23Z</time>
      </trkpt>
      <trkpt lat="42.52627" lon="0.50773">
        <ele>1289.6</ele>
        <time>2015-02-09T14:49:23Z</time>
      </trkpt>
      <trkpt lat="42.52643" lon="0.50761">
        <ele>1289.6</ele>
        <time>2015-02-09T14:49:23Z</time>
      </trkpt>
      <trkpt lat="42.52658" lon="0.5075">
        <ele>1289.6</ele>
        <time>2015-02-09T14:49:23Z</time>
      </trkpt>
      <trkpt lat="42.52675" lon="0.5074">
        <ele>1288.1</ele>
        <time>2015-02-09T14:49:23Z</time>
      </trkpt>
      <trkpt lat="42.52693" lon="0.50732">
        <ele>1285.9</ele>
        <time>2015-02-09T14:49:23Z</time>
      </trkpt>
      <trkpt lat="42.52715" lon="0.50724">
        <ele>1284.2</ele>
        <time>2015-02-09T14:49:23Z</time>
      </trkpt>
      <trkpt lat="42.52737" lon="0.50723">
        <ele>1285.4</ele>
        <time>2015-02-09T14:49:23Z</time>
      </trkpt>
      <trkpt lat="42.52749" lon="0.50725">
        <ele>1286.3</ele>
        <time>2015-02-09T14:49:23Z</time>
      </trkpt>
      <trkpt lat="42.52766" lon="0.50721">
        <ele>1286.2</ele>
        <time>2015-02-09T14:49:23Z</time>
      </trkpt>
      <trkpt lat="42.52784" lon="0.50725">
        <ele>1287.5</ele>
        <time>2015-02-09T14:49:23Z</time>
      </trkpt>
      <trkpt lat="42.52798" lon="0.50726">
        <ele>1288.2</ele>
        <time>2015-02-09T14:49:23Z</time>
      </trkpt>
      <trkpt lat="42.52814" lon="0.5073">
        <ele>1289.4</ele>
        <time>2015-02-09T14:49:23Z</time>
      </trkpt>
      <trkpt lat="42.52827" lon="0.50737">
        <ele>1290.8</ele>
        <time>2015-02-09T14:49:23Z</time>
      </trkpt>
      <trkpt lat="42.52846" lon="0.50739">
        <ele>1289.9</ele>
        <time>2015-02-09T14:49:23Z</time>
      </trkpt>
      <trkpt lat="42.52864" lon="0.50745">
        <ele>1289</ele>
        <time>2015-02-09T14:49:23Z</time>
      </trkpt>
      <trkpt lat="42.52882" lon="0.50753">
        <ele>1288.7</ele>
        <time>2015-02-09T14:49:23Z</time>
      </trkpt>
      <trkpt lat="42.52892" lon="0.50757">
        <ele>1288.4</ele>
        <time>2015-02-09T14:49:23Z</time>
      </trkpt>
      <trkpt lat="42.52904" lon="0.50757">
        <ele>1287.2</ele>
        <time>2015-02-09T14:49:23Z</time>
      </trkpt>
      <trkpt lat="42.52913" lon="0.50756">
        <ele>1286.1</ele>
        <time>2015-02-09T14:49:23Z</time>
      </trkpt>
      <trkpt lat="42.52921" lon="0.50758">
        <ele>1284.6</ele>
        <time>2015-02-09T14:49:23Z</time>
      </trkpt>
      <trkpt lat="42.52934" lon="0.50767">
        <ele>1281.7</ele>
        <time>2015-02-09T14:49:23Z</time>
      </trkpt>
      <trkpt lat="42.5294" lon="0.5078">
        <ele>1282.4</ele>
        <time>2015-02-09T14:49:23Z</time>
      </trkpt>
      <trkpt lat="42.52946" lon="0.50791">
        <ele>1283</ele>
        <time>2015-02-09T14:49:23Z</time>
      </trkpt>
      <trkpt lat="42.5295" lon="0.50801">
        <ele>1284.1</ele>
        <time>2015-02-09T14:49:23Z</time>
      </trkpt>
      <trkpt lat="42.52955" lon="0.50814">
        <ele>1285.7</ele>
        <time>2015-02-09T14:49:23Z</time>
      </trkpt>
      <trkpt lat="42.52957" lon="0.5083">
        <ele>1288.8</ele>
        <time>2015-02-09T14:49:23Z</time>
      </trkpt>
      <trkpt lat="42.5296" lon="0.50847">
        <ele>1291.7</ele>
        <time>2015-02-09T14:49:23Z</time>
      </trkpt>
      <trkpt lat="42.52963" lon="0.50861">
        <ele>1294.1</ele>
        <time>2015-02-09T14:49:23Z</time>
      </trkpt>
      <trkpt lat="42.52964" lon="0.50863">
        <ele>1294.2</ele>
        <time>2015-02-09T14:49:23Z</time>
      </trkpt>
      <trkpt lat="42.52969" lon="0.5088">
        <ele>1296.8</ele>
        <time>2015-02-09T14:49:23Z</time>
      </trkpt>
      <trkpt lat="42.5297" lon="0.50882">
        <ele>1297.2</ele>
        <time>2015-02-09T14:49:23Z</time>
      </trkpt>
      <trkpt lat="42.52973" lon="0.5089">
        <ele>1298.4</ele>
        <time>2015-02-09T14:49:23Z</time>
      </trkpt>
      <trkpt lat="42.52982" lon="0.50906">
        <ele>1300.2</ele>
        <time>2015-02-09T14:49:23Z</time>
      </trkpt>
      <trkpt lat="42.52989" lon="0.50918">
        <ele>1301.6</ele>
        <time>2015-02-09T14:49:23Z</time>
      </trkpt>
      <trkpt lat="42.52997" lon="0.50927">
        <ele>1301.3</ele>
        <time>2015-02-09T14:49:23Z</time>
      </trkpt>
      <trkpt lat="42.53008" lon="0.50933">
        <ele>1297.6</ele>
        <time>2015-02-09T14:49:23Z</time>
      </trkpt>
      <trkpt lat="42.5302" lon="0.5094">
        <ele>1292.7</ele>
        <time>2015-02-09T14:49:23Z</time>
      </trkpt>
      <trkpt lat="42.53029" lon="0.50953">
        <ele>1289.7</ele>
        <time>2015-02-09T14:49:23Z</time>
      </trkpt>
      <trkpt lat="42.53032" lon="0.50968">
        <ele>1289.8</ele>
        <time>2015-02-09T14:49:23Z</time>
      </trkpt>
      <trkpt lat="42.53026" lon="0.50985">
        <ele>1294.2</ele>
        <time>2015-02-09T14:49:23Z</time>
      </trkpt>
      <trkpt lat="42.53015" lon="0.51003">
        <ele>1300.9</ele>
        <time>2015-02-09T14:49:23Z</time>
      </trkpt>
      <trkpt lat="42.53003" lon="0.51021">
        <ele>1306.6</ele>
        <time>2015-02-09T14:49:23Z</time>
      </trkpt>
      <trkpt lat="42.52997" lon="0.51032">
        <ele>1308.9</ele>
        <time>2015-02-09T14:49:23Z</time>
      </trkpt>
      <trkpt lat="42.52991" lon="0.5105">
        <ele>1310.7</ele>
        <time>2015-02-09T14:49:23Z</time>
      </trkpt>
      <trkpt lat="42.52989" lon="0.51063">
        <ele>1311.5</ele>
        <time>2015-02-09T14:49:23Z</time>
      </trkpt>
      <trkpt lat="42.52987" lon="0.51085">
        <ele>1312.8</ele>
        <time>2015-02-09T14:49:23Z</time>
      </trkpt>
      <trkpt lat="42.5299" lon="0.51101">
        <ele>1314.1</ele>
        <time>2015-02-09T14:49:23Z</time>
      </trkpt>
      <trkpt lat="42.52995" lon="0.51112">
        <ele>1314</ele>
        <time>2015-02-09T14:49:23Z</time>
      </trkpt>
      <trkpt lat="42.52997" lon="0.51113">
        <ele>1313.6</ele>
        <time>2015-02-09T14:49:23Z</time>
      </trkpt>
      <trkpt lat="42.53006" lon="0.51125">
        <ele>1311.8</ele>
        <time>2015-02-09T14:49:23Z</time>
      </trkpt>
      <trkpt lat="42.5301" lon="0.5113">
        <ele>1311.1</ele>
        <time>2015-02-09T14:49:23Z</time>
      </trkpt>
      <trkpt lat="42.53019" lon="0.51147">
        <ele>1310.3</ele>
        <time>2015-02-09T14:49:23Z</time>
      </trkpt>
      <trkpt lat="42.53024" lon="0.51164">
        <ele>1311.4</ele>
        <time>2015-02-09T14:49:23Z</time>
      </trkpt>
      <trkpt lat="42.53026" lon="0.5118">
        <ele>1313.9</ele>
        <time>2015-02-09T14:49:23Z</time>
      </trkpt>
      <trkpt lat="42.53027" lon="0.51196">
        <ele>1316.5</ele>
        <time>2015-02-09T14:49:23Z</time>
      </trkpt>
      <trkpt lat="42.53026" lon="0.512">
        <ele>1317.5</ele>
        <time>2015-02-09T14:49:23Z</time>
      </trkpt>
      <trkpt lat="42.5303" lon="0.5121">
        <ele>1318.3</ele>
        <time>2015-02-09T14:49:23Z</time>
      </trkpt>
      <trkpt lat="42.53034" lon="0.51214">
        <ele>1317.9</ele>
        <time>2015-02-09T14:49:23Z</time>
      </trkpt>
      <trkpt lat="42.53038" lon="0.51227">
        <ele>1319.3</ele>
        <time>2015-02-09T14:49:23Z</time>
      </trkpt>
      <trkpt lat="42.53041" lon="0.51237">
        <ele>1320.3</ele>
        <time>2015-02-09T14:49:23Z</time>
      </trkpt>
      <trkpt lat="42.53044" lon="0.51249">
        <ele>1322</ele>
        <time>2015-02-09T14:49:23Z</time>
      </trkpt>
      <trkpt lat="42.5305" lon="0.51266">
        <ele>1323.8</ele>
        <time>2015-02-09T14:49:23Z</time>
      </trkpt>
      <trkpt lat="42.53054" lon="0.51282">
        <ele>1325.9</ele>
        <time>2015-02-09T14:49:23Z</time>
      </trkpt>
      <trkpt lat="42.53064" lon="0.51306">
        <ele>1327.8</ele>
        <time>2015-02-09T14:49:23Z</time>
      </trkpt>
      <trkpt lat="42.53072" lon="0.51315">
        <ele>1327.3</ele>
        <time>2015-02-09T14:49:23Z</time>
      </trkpt>
      <trkpt lat="42.53079" lon="0.51319">
        <ele>1326.1</ele>
        <time>2015-02-09T14:49:23Z</time>
      </trkpt>
      <trkpt lat="42.53084" lon="0.51322">
        <ele>1325.6</ele>
        <time>2015-02-09T14:49:23Z</time>
      </trkpt>
      <trkpt lat="42.53094" lon="0.51328">
        <ele>1324.5</ele>
        <time>2015-02-09T14:49:23Z</time>
      </trkpt>
      <trkpt lat="42.53092" lon="0.5134">
        <ele>1327.3</ele>
        <time>2015-02-09T14:49:23Z</time>
      </trkpt>
      <trkpt lat="42.53085" lon="0.51339">
        <ele>1328.4</ele>
        <time>2015-02-09T14:49:23Z</time>
      </trkpt>
      <trkpt lat="42.53071" lon="0.51334">
        <ele>1331.4</ele>
        <time>2015-02-09T14:49:23Z</time>
      </trkpt>
      <trkpt lat="42.53057" lon="0.5133">
        <ele>1334.6</ele>
        <time>2015-02-09T14:49:23Z</time>
      </trkpt>
      <trkpt lat="42.53049" lon="0.51317">
        <ele>1334.3</ele>
        <time>2015-02-09T14:49:23Z</time>
      </trkpt>
      <trkpt lat="42.53045" lon="0.513">
        <ele>1332</ele>
        <time>2015-02-09T14:49:23Z</time>
      </trkpt>
      <trkpt lat="42.53034" lon="0.51282">
        <ele>1331.3</ele>
        <time>2015-02-09T14:49:23Z</time>
      </trkpt>
      <trkpt lat="42.53029" lon="0.51269">
        <ele>1330</ele>
        <time>2015-02-09T14:49:23Z</time>
      </trkpt>
      <trkpt lat="42.53015" lon="0.51254">
        <ele>1330.8</ele>
        <time>2015-02-09T14:49:23Z</time>
      </trkpt>
      <trkpt lat="42.53001" lon="0.51238">
        <ele>1331.5</ele>
        <time>2015-02-09T14:49:23Z</time>
      </trkpt>
      <trkpt lat="42.52992" lon="0.51224">
        <ele>1332.4</ele>
        <time>2015-02-09T14:49:23Z</time>
      </trkpt>
      <trkpt lat="42.52985" lon="0.51208">
        <ele>1332.6</ele>
        <time>2015-02-09T14:49:23Z</time>
      </trkpt>
      <trkpt lat="42.52975" lon="0.51197">
        <ele>1334.5</ele>
        <time>2015-02-09T14:49:23Z</time>
      </trkpt>
      <trkpt lat="42.52966" lon="0.51189">
        <ele>1336.6</ele>
        <time>2015-02-09T14:49:23Z</time>
      </trkpt>
      <trkpt lat="42.52957" lon="0.51181">
        <ele>1338.4</ele>
        <time>2015-02-09T14:49:23Z</time>
      </trkpt>
      <trkpt lat="42.52949" lon="0.51174">
        <ele>1340.1</ele>
        <time>2015-02-09T14:49:23Z</time>
      </trkpt>
      <trkpt lat="42.52943" lon="0.51167">
        <ele>1341.1</ele>
        <time>2015-02-09T14:49:23Z</time>
      </trkpt>
      <trkpt lat="42.52931" lon="0.51153">
        <ele>1342.7</ele>
        <time>2015-02-09T14:49:23Z</time>
      </trkpt>
      <trkpt lat="42.5292" lon="0.51145">
        <ele>1344.9</ele>
        <time>2015-02-09T14:49:23Z</time>
      </trkpt>
      <trkpt lat="42.52911" lon="0.51137">
        <ele>1346</ele>
        <time>2015-02-09T14:49:23Z</time>
      </trkpt>
      <trkpt lat="42.52899" lon="0.51129">
        <ele>1347.6</ele>
        <time>2015-02-09T14:49:23Z</time>
      </trkpt>
      <trkpt lat="42.52886" lon="0.51123">
        <ele>1349.5</ele>
        <time>2015-02-09T14:49:23Z</time>
      </trkpt>
      <trkpt lat="42.52875" lon="0.51118">
        <ele>1351.1</ele>
        <time>2015-02-09T14:49:23Z</time>
      </trkpt>
      <trkpt lat="42.52867" lon="0.51117">
        <ele>1352.7</ele>
        <time>2015-02-09T14:49:23Z</time>
      </trkpt>
      <trkpt lat="42.52854" lon="0.51114">
        <ele>1355.3</ele>
        <time>2015-02-09T14:49:23Z</time>
      </trkpt>
      <trkpt lat="42.52844" lon="0.51109">
        <ele>1356.3</ele>
        <time>2015-02-09T14:49:23Z</time>
      </trkpt>
      <trkpt lat="42.52835" lon="0.51103">
        <ele>1356.9</ele>
        <time>2015-02-09T14:49:23Z</time>
      </trkpt>
      <trkpt lat="42.52822" lon="0.51096">
        <ele>1358</ele>
        <time>2015-02-09T14:49:23Z</time>
      </trkpt>
      <trkpt lat="42.52807" lon="0.51091">
        <ele>1360.9</ele>
        <time>2015-02-09T14:49:23Z</time>
      </trkpt>
      <trkpt lat="42.52788" lon="0.51087">
        <ele>1365.3</ele>
        <time>2015-02-09T14:49:23Z</time>
      </trkpt>
      <trkpt lat="42.52773" lon="0.51086">
        <ele>1369.4</ele>
        <time>2015-02-09T14:49:23Z</time>
      </trkpt>
      <trkpt lat="42.52759" lon="0.51086">
        <ele>1373.6</ele>
        <time>2015-02-09T14:49:23Z</time>
      </trkpt>
      <trkpt lat="42.52743" lon="0.51091">
        <ele>1378.7</ele>
        <time>2015-02-09T14:49:23Z</time>
      </trkpt>
      <trkpt lat="42.52728" lon="0.51101">
        <ele>1383.1</ele>
        <time>2015-02-09T14:49:23Z</time>
      </trkpt>
      <trkpt lat="42.52719" lon="0.51113">
        <ele>1387</ele>
        <time>2015-02-09T14:49:23Z</time>
      </trkpt>
      <trkpt lat="42.52715" lon="0.51131">
        <ele>1392.3</ele>
        <time>2015-02-09T14:49:23Z</time>
      </trkpt>
      <trkpt lat="42.52712" lon="0.51153">
        <ele>1398.3</ele>
        <time>2015-02-09T14:49:23Z</time>
      </trkpt>
      <trkpt lat="42.52712" lon="0.51172">
        <ele>1403</ele>
        <time>2015-02-09T14:49:23Z</time>
      </trkpt>
      <trkpt lat="42.52715" lon="0.51191">
        <ele>1406.1</ele>
        <time>2015-02-09T14:49:23Z</time>
      </trkpt>
      <trkpt lat="42.52719" lon="0.51218">
        <ele>1410.9</ele>
        <time>2015-02-09T14:49:23Z</time>
      </trkpt>
      <trkpt lat="42.52721" lon="0.51238">
        <ele>1414.4</ele>
        <time>2015-02-09T14:49:23Z</time>
      </trkpt>
      <trkpt lat="42.52725" lon="0.51257">
        <ele>1417.6</ele>
        <time>2015-02-09T14:49:23Z</time>
      </trkpt>
      <trkpt lat="42.52731" lon="0.51275">
        <ele>1419.9</ele>
        <time>2015-02-09T14:49:23Z</time>
      </trkpt>
      <trkpt lat="42.52739" lon="0.5129">
        <ele>1422.5</ele>
        <time>2015-02-09T14:49:23Z</time>
      </trkpt>
      <trkpt lat="42.52748" lon="0.51299">
        <ele>1424.9</ele>
        <time>2015-02-09T14:49:23Z</time>
      </trkpt>
      <trkpt lat="42.52758" lon="0.51314">
        <ele>1425.5</ele>
        <time>2015-02-09T14:49:23Z</time>
      </trkpt>
      <trkpt lat="42.52765" lon="0.51332">
        <ele>1426.6</ele>
        <time>2015-02-09T14:49:23Z</time>
      </trkpt>
      <trkpt lat="42.5277" lon="0.51345">
        <ele>1427.4</ele>
        <time>2015-02-09T14:49:23Z</time>
      </trkpt>
      <trkpt lat="42.52774" lon="0.51369">
        <ele>1429.7</ele>
        <time>2015-02-09T14:49:23Z</time>
      </trkpt>
      <trkpt lat="42.52773" lon="0.51386">
        <ele>1431.6</ele>
        <time>2015-02-09T14:49:23Z</time>
      </trkpt>
      <trkpt lat="42.52771" lon="0.51399">
        <ele>1433.1</ele>
        <time>2015-02-09T14:49:23Z</time>
      </trkpt>
      <trkpt lat="42.52772" lon="0.51416">
        <ele>1434.9</ele>
        <time>2015-02-09T14:49:23Z</time>
      </trkpt>
      <trkpt lat="42.52772" lon="0.51433">
        <ele>1437.3</ele>
        <time>2015-02-09T14:49:23Z</time>
      </trkpt>
      <trkpt lat="42.52766" lon="0.51445">
        <ele>1438.9</ele>
        <time>2015-02-09T14:49:23Z</time>
      </trkpt>
      <trkpt lat="42.52756" lon="0.51454">
        <ele>1439.9</ele>
        <time>2015-02-09T14:49:23Z</time>
      </trkpt>
      <trkpt lat="42.52748" lon="0.51466">
        <ele>1441</ele>
        <time>2015-02-09T14:49:23Z</time>
      </trkpt>
      <trkpt lat="42.52743" lon="0.51479">
        <ele>1441.5</ele>
        <time>2015-02-09T14:49:23Z</time>
      </trkpt>
      <trkpt lat="42.52746" lon="0.51492">
        <ele>1443.9</ele>
        <time>2015-02-09T14:49:23Z</time>
      </trkpt>
      <trkpt lat="42.52752" lon="0.51498">
        <ele>1445.8</ele>
        <time>2015-02-09T14:49:23Z</time>
      </trkpt>
      <trkpt lat="42.52763" lon="0.51508">
        <ele>1447.8</ele>
        <time>2015-02-09T14:49:23Z</time>
      </trkpt>
      <trkpt lat="42.52766" lon="0.51517">
        <ele>1449.2</ele>
        <time>2015-02-09T14:49:23Z</time>
      </trkpt>
      <trkpt lat="42.5277" lon="0.51533">
        <ele>1452.1</ele>
        <time>2015-02-09T14:49:23Z</time>
      </trkpt>
      <trkpt lat="42.52771" lon="0.51534">
        <ele>1452.4</ele>
        <time>2015-02-09T14:49:23Z</time>
      </trkpt>
      <trkpt lat="42.5278" lon="0.51534">
        <ele>1453.3</ele>
        <time>2015-02-09T14:49:23Z</time>
      </trkpt>
      <trkpt lat="42.52782" lon="0.51531">
        <ele>1452.8</ele>
        <time>2015-02-09T14:49:23Z</time>
      </trkpt>
      <trkpt lat="42.52784" lon="0.51517">
        <ele>1450.4</ele>
        <time>2015-02-09T14:49:23Z</time>
      </trkpt>
      <trkpt lat="42.52787" lon="0.51498">
        <ele>1447.4</ele>
        <time>2015-02-09T14:49:23Z</time>
      </trkpt>
      <trkpt lat="42.52795" lon="0.51485">
        <ele>1445.7</ele>
        <time>2015-02-09T14:49:23Z</time>
      </trkpt>
      <trkpt lat="42.52805" lon="0.51478">
        <ele>1445</ele>
        <time>2015-02-09T14:49:23Z</time>
      </trkpt>
      <trkpt lat="42.52816" lon="0.51466">
        <ele>1443.2</ele>
        <time>2015-02-09T14:49:23Z</time>
      </trkpt>
      <trkpt lat="42.52832" lon="0.51456">
        <ele>1442</ele>
        <time>2015-02-09T14:49:23Z</time>
      </trkpt>
      <trkpt lat="42.52844" lon="0.51451">
        <ele>1436.7</ele>
        <time>2015-02-09T14:49:23Z</time>
      </trkpt>
      <trkpt lat="42.52856" lon="0.51443">
        <ele>1430.2</ele>
        <time>2015-02-09T14:49:23Z</time>
      </trkpt>
      <trkpt lat="42.52866" lon="0.51438">
        <ele>1424.9</ele>
        <time>2015-02-09T14:49:23Z</time>
      </trkpt>
      <trkpt lat="42.52876" lon="0.5144">
        <ele>1421.1</ele>
        <time>2015-02-09T14:49:23Z</time>
      </trkpt>
      <trkpt lat="42.52887" lon="0.51455">
        <ele>1420.4</ele>
        <time>2015-02-09T14:49:23Z</time>
      </trkpt>
      <trkpt lat="42.52895" lon="0.51467">
        <ele>1420.3</ele>
        <time>2015-02-09T14:49:23Z</time>
      </trkpt>
      <trkpt lat="42.52901" lon="0.51481">
        <ele>1421.9</ele>
        <time>2015-02-09T14:49:23Z</time>
      </trkpt>
      <trkpt lat="42.52904" lon="0.51495">
        <ele>1424.7</ele>
        <time>2015-02-09T14:49:23Z</time>
      </trkpt>
      <trkpt lat="42.5291" lon="0.5151">
        <ele>1428</ele>
        <time>2015-02-09T14:49:23Z</time>
      </trkpt>
      <trkpt lat="42.52919" lon="0.51526">
        <ele>1431.9</ele>
        <time>2015-02-09T14:49:23Z</time>
      </trkpt>
      <trkpt lat="42.52926" lon="0.51537">
        <ele>1434.5</ele>
        <time>2015-02-09T14:49:23Z</time>
      </trkpt>
      <trkpt lat="42.52933" lon="0.51548">
        <ele>1436.4</ele>
        <time>2015-02-09T14:49:23Z</time>
      </trkpt>
      <trkpt lat="42.5294" lon="0.51558">
        <ele>1438.4</ele>
        <time>2015-02-09T14:49:23Z</time>
      </trkpt>
      <trkpt lat="42.52949" lon="0.5157">
        <ele>1440.1</ele>
        <time>2015-02-09T14:49:23Z</time>
      </trkpt>
      <trkpt lat="42.52957" lon="0.51582">
        <ele>1442.2</ele>
        <time>2015-02-09T14:49:23Z</time>
      </trkpt>
      <trkpt lat="42.52964" lon="0.51594">
        <ele>1443.6</ele>
        <time>2015-02-09T14:49:23Z</time>
      </trkpt>
      <trkpt lat="42.52972" lon="0.51604">
        <ele>1443.4</ele>
        <time>2015-02-09T14:49:23Z</time>
      </trkpt>
      <trkpt lat="42.5298" lon="0.51609">
        <ele>1442</ele>
        <time>2015-02-09T14:49:23Z</time>
      </trkpt>
      <trkpt lat="42.52988" lon="0.51616">
        <ele>1441.5</ele>
        <time>2015-02-09T14:49:23Z</time>
      </trkpt>
      <trkpt lat="42.52989" lon="0.51617">
        <ele>1441.2</ele>
        <time>2015-02-09T14:49:23Z</time>
      </trkpt>
      <trkpt lat="42.52997" lon="0.5163">
        <ele>1442.6</ele>
        <time>2015-02-09T14:49:23Z</time>
      </trkpt>
      <trkpt lat="42.53006" lon="0.5164">
        <ele>1443</ele>
        <time>2015-02-09T14:49:23Z</time>
      </trkpt>
      <trkpt lat="42.53018" lon="0.51649">
        <ele>1442.1</ele>
        <time>2015-02-09T14:49:23Z</time>
      </trkpt>
      <trkpt lat="42.53026" lon="0.51659">
        <ele>1442.9</ele>
        <time>2015-02-09T14:49:23Z</time>
      </trkpt>
      <trkpt lat="42.53034" lon="0.51671">
        <ele>1444.2</ele>
        <time>2015-02-09T14:49:23Z</time>
      </trkpt>
      <trkpt lat="42.53039" lon="0.51688">
        <ele>1448.5</ele>
        <time>2015-02-09T14:49:23Z</time>
      </trkpt>
      <trkpt lat="42.53042" lon="0.51705">
        <ele>1453.4</ele>
        <time>2015-02-09T14:49:23Z</time>
      </trkpt>
      <trkpt lat="42.53042" lon="0.51722">
        <ele>1459.3</ele>
        <time>2015-02-09T14:49:23Z</time>
      </trkpt>
      <trkpt lat="42.53039" lon="0.51734">
        <ele>1464.4</ele>
        <time>2015-02-09T14:49:23Z</time>
      </trkpt>
      <trkpt lat="42.53034" lon="0.51747">
        <ele>1470.8</ele>
        <time>2015-02-09T14:49:23Z</time>
      </trkpt>
      <trkpt lat="42.53026" lon="0.51752">
        <ele>1475.6</ele>
        <time>2015-02-09T14:49:23Z</time>
      </trkpt>
      <trkpt lat="42.53023" lon="0.51751">
        <ele>1476.3</ele>
        <time>2015-02-09T14:49:23Z</time>
      </trkpt>
      <trkpt lat="42.53021" lon="0.51744">
        <ele>1474.7</ele>
        <time>2015-02-09T14:49:23Z</time>
      </trkpt>
      <trkpt lat="42.53023" lon="0.51731">
        <ele>1469.3</ele>
        <time>2015-02-09T14:49:23Z</time>
      </trkpt>
      <trkpt lat="42.53026" lon="0.51726">
        <ele>1466.4</ele>
        <time>2015-02-09T14:49:23Z</time>
      </trkpt>
      <trkpt lat="42.53025" lon="0.51712">
        <ele>1461.6</ele>
        <time>2015-02-09T14:49:23Z</time>
      </trkpt>
      <trkpt lat="42.53018" lon="0.51701">
        <ele>1460.2</ele>
        <time>2015-02-09T14:49:23Z</time>
      </trkpt>
      <trkpt lat="42.53011" lon="0.51695">
        <ele>1460.3</ele>
        <time>2015-02-09T14:49:23Z</time>
      </trkpt>
      <trkpt lat="42.53002" lon="0.51693">
        <ele>1462.8</ele>
        <time>2015-02-09T14:49:23Z</time>
      </trkpt>
      <trkpt lat="42.52992" lon="0.51695">
        <ele>1466.2</ele>
        <time>2015-02-09T14:49:23Z</time>
      </trkpt>
      <trkpt lat="42.52979" lon="0.51697">
        <ele>1470.8</ele>
        <time>2015-02-09T14:49:23Z</time>
      </trkpt>
      <trkpt lat="42.52969" lon="0.51694">
        <ele>1472.2</ele>
        <time>2015-02-09T14:49:23Z</time>
      </trkpt>
      <trkpt lat="42.52956" lon="0.51688">
        <ele>1474.1</ele>
        <time>2015-02-09T14:49:23Z</time>
      </trkpt>
      <trkpt lat="42.52948" lon="0.51688">
        <ele>1476.3</ele>
        <time>2015-02-09T14:49:23Z</time>
      </trkpt>
      <trkpt lat="42.52936" lon="0.51693">
        <ele>1481.3</ele>
        <time>2015-02-09T14:49:23Z</time>
      </trkpt>
      <trkpt lat="42.52926" lon="0.51707">
        <ele>1488.1</ele>
        <time>2015-02-09T14:49:23Z</time>
      </trkpt>
      <trkpt lat="42.52918" lon="0.51726">
        <ele>1496.1</ele>
        <time>2015-02-09T14:49:23Z</time>
      </trkpt>
      <trkpt lat="42.52911" lon="0.51741">
        <ele>1501.6</ele>
        <time>2015-02-09T14:49:23Z</time>
      </trkpt>
      <trkpt lat="42.52904" lon="0.51749">
        <ele>1504.2</ele>
        <time>2015-02-09T14:49:23Z</time>
      </trkpt>
      <trkpt lat="42.52898" lon="0.5176">
        <ele>1506.8</ele>
        <time>2015-02-09T14:49:23Z</time>
      </trkpt>
      <trkpt lat="42.52896" lon="0.51763">
        <ele>1507.5</ele>
        <time>2015-02-09T14:49:23Z</time>
      </trkpt>
      <trkpt lat="42.52896" lon="0.51773">
        <ele>1509.7</ele>
        <time>2015-02-09T14:49:23Z</time>
      </trkpt>
      <trkpt lat="42.52905" lon="0.51781">
        <ele>1511.1</ele>
        <time>2015-02-09T14:49:23Z</time>
      </trkpt>
      <trkpt lat="42.52918" lon="0.51781">
        <ele>1510.4</ele>
        <time>2015-02-09T14:49:23Z</time>
      </trkpt>
      <trkpt lat="42.5293" lon="0.51782">
        <ele>1508.4</ele>
        <time>2015-02-09T14:49:23Z</time>
      </trkpt>
      <trkpt lat="42.52941" lon="0.51785">
        <ele>1506.8</ele>
        <time>2015-02-09T14:49:23Z</time>
      </trkpt>
      <trkpt lat="42.5295" lon="0.51792">
        <ele>1507</ele>
        <time>2015-02-09T14:49:23Z</time>
      </trkpt>
      <trkpt lat="42.52963" lon="0.51802">
        <ele>1506.9</ele>
        <time>2015-02-09T14:49:23Z</time>
      </trkpt>
      <trkpt lat="42.52974" lon="0.51811">
        <ele>1507.4</ele>
        <time>2015-02-09T14:49:23Z</time>
      </trkpt>
      <trkpt lat="42.52984" lon="0.51817">
        <ele>1507.6</ele>
        <time>2015-02-09T14:49:23Z</time>
      </trkpt>
      <trkpt lat="42.52996" lon="0.51829">
        <ele>1509</ele>
        <time>2015-02-09T14:49:23Z</time>
      </trkpt>
      <trkpt lat="42.53005" lon="0.51841">
        <ele>1510.2</ele>
        <time>2015-02-09T14:49:23Z</time>
      </trkpt>
      <trkpt lat="42.53012" lon="0.51855">
        <ele>1512.3</ele>
        <time>2015-02-09T14:49:23Z</time>
      </trkpt>
      <trkpt lat="42.53022" lon="0.51868">
        <ele>1513</ele>
        <time>2015-02-09T14:49:23Z</time>
      </trkpt>
      <trkpt lat="42.53026" lon="0.51874">
        <ele>1513.7</ele>
        <time>2015-02-09T14:49:23Z</time>
      </trkpt>
      <trkpt lat="42.53036" lon="0.5188">
        <ele>1512.2</ele>
        <time>2015-02-09T14:49:23Z</time>
      </trkpt>
      <trkpt lat="42.53047" lon="0.51883">
        <ele>1510</ele>
        <time>2015-02-09T14:49:23Z</time>
      </trkpt>
      <trkpt lat="42.53063" lon="0.51891">
        <ele>1507.5</ele>
        <time>2015-02-09T14:49:23Z</time>
      </trkpt>
      <trkpt lat="42.53072" lon="0.51901">
        <ele>1507.3</ele>
        <time>2015-02-09T14:49:23Z</time>
      </trkpt>
      <trkpt lat="42.53085" lon="0.51915">
        <ele>1508.3</ele>
        <time>2015-02-09T14:49:23Z</time>
      </trkpt>
      <trkpt lat="42.5309" lon="0.51927">
        <ele>1512.4</ele>
        <time>2015-02-09T14:49:23Z</time>
      </trkpt>
      <trkpt lat="42.53091" lon="0.5194">
        <ele>1517</ele>
        <time>2015-02-09T14:49:23Z</time>
      </trkpt>
      <trkpt lat="42.53083" lon="0.51949">
        <ele>1519.9</ele>
        <time>2015-02-09T14:49:23Z</time>
      </trkpt>
      <trkpt lat="42.53072" lon="0.51948">
        <ele>1522.8</ele>
        <time>2015-02-09T14:49:23Z</time>
      </trkpt>
      <trkpt lat="42.53061" lon="0.51939">
        <ele>1522.8</ele>
        <time>2015-02-09T14:49:23Z</time>
      </trkpt>
      <trkpt lat="42.53051" lon="0.5193">
        <ele>1522.7</ele>
        <time>2015-02-09T14:49:23Z</time>
      </trkpt>
      <trkpt lat="42.53037" lon="0.51919">
        <ele>1523.2</ele>
        <time>2015-02-09T14:49:23Z</time>
      </trkpt>
      <trkpt lat="42.53023" lon="0.51915">
        <ele>1526.2</ele>
        <time>2015-02-09T14:49:23Z</time>
      </trkpt>
      <trkpt lat="42.53011" lon="0.5192">
        <ele>1531.3</ele>
        <time>2015-02-09T14:49:23Z</time>
      </trkpt>
      <trkpt lat="42.53002" lon="0.5193">
        <ele>1536.7</ele>
        <time>2015-02-09T14:49:23Z</time>
      </trkpt>
      <trkpt lat="42.52988" lon="0.51944">
        <ele>1542.4</ele>
        <time>2015-02-09T14:49:23Z</time>
      </trkpt>
      <trkpt lat="42.52974" lon="0.51952">
        <ele>1546.3</ele>
        <time>2015-02-09T14:49:23Z</time>
      </trkpt>
      <trkpt lat="42.52962" lon="0.51963">
        <ele>1550.2</ele>
        <time>2015-02-09T14:49:23Z</time>
      </trkpt>
      <trkpt lat="42.52951" lon="0.51978">
        <ele>1554.7</ele>
        <time>2015-02-09T14:49:23Z</time>
      </trkpt>
      <trkpt lat="42.52951" lon="0.51981">
        <ele>1555.3</ele>
        <time>2015-02-09T14:49:23Z</time>
      </trkpt>
      <trkpt lat="42.52957" lon="0.51988">
        <ele>1556.2</ele>
        <time>2015-02-09T14:49:23Z</time>
      </trkpt>
      <trkpt lat="42.5296" lon="0.51985">
        <ele>1555.3</ele>
        <time>2015-02-09T14:49:23Z</time>
      </trkpt>
      <trkpt lat="42.52969" lon="0.51971">
        <ele>1551.2</ele>
        <time>2015-02-09T14:49:23Z</time>
      </trkpt>
      <trkpt lat="42.52973" lon="0.51972">
        <ele>1551.1</ele>
        <time>2015-02-09T14:49:23Z</time>
      </trkpt>
      <trkpt lat="42.52974" lon="0.51978">
        <ele>1552.6</ele>
        <time>2015-02-09T14:49:23Z</time>
      </trkpt>
      <trkpt lat="42.52966" lon="0.5199">
        <ele>1556</ele>
        <time>2015-02-09T14:49:23Z</time>
      </trkpt>
      <trkpt lat="42.52959" lon="0.52007">
        <ele>1560.5</ele>
        <time>2015-02-09T14:49:23Z</time>
      </trkpt>
      <trkpt lat="42.52955" lon="0.52027">
        <ele>1565.4</ele>
        <time>2015-02-09T14:49:23Z</time>
      </trkpt>
      <trkpt lat="42.52951" lon="0.52045">
        <ele>1569.8</ele>
        <time>2015-02-09T14:49:23Z</time>
      </trkpt>
      <trkpt lat="42.52943" lon="0.5206">
        <ele>1573.4</ele>
        <time>2015-02-09T14:49:23Z</time>
      </trkpt>
      <trkpt lat="42.52936" lon="0.52069">
        <ele>1575.1</ele>
        <time>2015-02-09T14:49:23Z</time>
      </trkpt>
      <trkpt lat="42.52923" lon="0.52072">
        <ele>1575.8</ele>
        <time>2015-02-09T14:49:23Z</time>
      </trkpt>
      <trkpt lat="42.52912" lon="0.52072">
        <ele>1575.5</ele>
        <time>2015-02-09T14:49:23Z</time>
      </trkpt>
      <trkpt lat="42.52892" lon="0.52075">
        <ele>1574.8</ele>
        <time>2015-02-09T14:49:23Z</time>
      </trkpt>
      <trkpt lat="42.52881" lon="0.52077">
        <ele>1574.7</ele>
        <time>2015-02-09T14:49:23Z</time>
      </trkpt>
      <trkpt lat="42.52872" lon="0.52077">
        <ele>1574.2</ele>
        <time>2015-02-09T14:49:23Z</time>
      </trkpt>
      <trkpt lat="42.5286" lon="0.5207">
        <ele>1571.4</ele>
        <time>2015-02-09T14:49:23Z</time>
      </trkpt>
      <trkpt lat="42.52848" lon="0.52065">
        <ele>1569</ele>
        <time>2015-02-09T14:49:23Z</time>
      </trkpt>
      <trkpt lat="42.52837" lon="0.52063">
        <ele>1567.8</ele>
        <time>2015-02-09T14:49:23Z</time>
      </trkpt>
      <trkpt lat="42.52824" lon="0.52062">
        <ele>1567.2</ele>
        <time>2015-02-09T14:49:23Z</time>
      </trkpt>
      <trkpt lat="42.52806" lon="0.5206">
        <ele>1566.8</ele>
        <time>2015-02-09T14:49:23Z</time>
      </trkpt>
      <trkpt lat="42.52791" lon="0.52059">
        <ele>1566.4</ele>
        <time>2015-02-09T14:49:23Z</time>
      </trkpt>
      <trkpt lat="42.52782" lon="0.52065">
        <ele>1568.5</ele>
        <time>2015-02-09T14:49:23Z</time>
      </trkpt>
      <trkpt lat="42.52774" lon="0.52075">
        <ele>1573</ele>
        <time>2015-02-09T14:49:23Z</time>
      </trkpt>
      <trkpt lat="42.52767" lon="0.52087">
        <ele>1578.3</ele>
        <time>2015-02-09T14:49:23Z</time>
      </trkpt>
      <trkpt lat="42.52758" lon="0.52102">
        <ele>1586</ele>
        <time>2015-02-09T14:49:23Z</time>
      </trkpt>
      <trkpt lat="42.5275" lon="0.52113">
        <ele>1591.4</ele>
        <time>2015-02-09T14:49:23Z</time>
      </trkpt>
      <trkpt lat="42.52743" lon="0.52123">
        <ele>1596</ele>
        <time>2015-02-09T14:49:23Z</time>
      </trkpt>
      <trkpt lat="42.52733" lon="0.52137">
        <ele>1601.6</ele>
        <time>2015-02-09T14:49:23Z</time>
      </trkpt>
      <trkpt lat="42.52725" lon="0.52155">
        <ele>1607.9</ele>
        <time>2015-02-09T14:49:23Z</time>
      </trkpt>
      <trkpt lat="42.52717" lon="0.52172">
        <ele>1613.8</ele>
        <time>2015-02-09T14:49:23Z</time>
      </trkpt>
      <trkpt lat="42.52711" lon="0.52191">
        <ele>1619.2</ele>
        <time>2015-02-09T14:49:23Z</time>
      </trkpt>
      <trkpt lat="42.52706" lon="0.52205">
        <ele>1623.3</ele>
        <time>2015-02-09T14:49:23Z</time>
      </trkpt>
      <trkpt lat="42.52697" lon="0.52224">
        <ele>1627.8</ele>
        <time>2015-02-09T14:49:23Z</time>
      </trkpt>
      <trkpt lat="42.5269" lon="0.52241">
        <ele>1632.4</ele>
        <time>2015-02-09T14:49:23Z</time>
      </trkpt>
      <trkpt lat="42.52684" lon="0.52257">
        <ele>1635.6</ele>
        <time>2015-02-09T14:49:23Z</time>
      </trkpt>
      <trkpt lat="42.52677" lon="0.52274">
        <ele>1637.8</ele>
        <time>2015-02-09T14:49:23Z</time>
      </trkpt>
      <trkpt lat="42.52667" lon="0.52293">
        <ele>1639.2</ele>
        <time>2015-02-09T14:49:23Z</time>
      </trkpt>
      <trkpt lat="42.52663" lon="0.52309">
        <ele>1641.3</ele>
        <time>2015-02-09T14:49:23Z</time>
      </trkpt>
      <trkpt lat="42.52659" lon="0.52325">
        <ele>1643.1</ele>
        <time>2015-02-09T14:49:23Z</time>
      </trkpt>
      <trkpt lat="42.52656" lon="0.52338">
        <ele>1644.7</ele>
        <time>2015-02-09T14:49:23Z</time>
      </trkpt>
      <trkpt lat="42.52654" lon="0.52352">
        <ele>1646.5</ele>
        <time>2015-02-09T14:49:23Z</time>
      </trkpt>
      <trkpt lat="42.52652" lon="0.52363">
        <ele>1647.5</ele>
        <time>2015-02-09T14:49:23Z</time>
      </trkpt>
      <trkpt lat="42.52649" lon="0.52377">
        <ele>1649</ele>
        <time>2015-02-09T14:49:23Z</time>
      </trkpt>
      <trkpt lat="42.52645" lon="0.52397">
        <ele>1651.1</ele>
        <time>2015-02-09T14:49:23Z</time>
      </trkpt>
      <trkpt lat="42.52644" lon="0.52412">
        <ele>1653.5</ele>
        <time>2015-02-09T14:49:23Z</time>
      </trkpt>
      <trkpt lat="42.52642" lon="0.52431">
        <ele>1655.9</ele>
        <time>2015-02-09T14:49:23Z</time>
      </trkpt>
      <trkpt lat="42.52638" lon="0.52448">
        <ele>1657.4</ele>
        <time>2015-02-09T14:49:23Z</time>
      </trkpt>
      <trkpt lat="42.52634" lon="0.52462">
        <ele>1658.1</ele>
        <time>2015-02-09T14:49:23Z</time>
      </trkpt>
      <trkpt lat="42.52632" lon="0.5247">
        <ele>1658.6</ele>
        <time>2015-02-09T14:49:23Z</time>
      </trkpt>
      <trkpt lat="42.52635" lon="0.52481">
        <ele>1661.7</ele>
        <time>2015-02-09T14:49:23Z</time>
      </trkpt>
      <trkpt lat="42.52638" lon="0.52483">
        <ele>1663.1</ele>
        <time>2015-02-09T14:49:23Z</time>
      </trkpt>
      <trkpt lat="42.52651" lon="0.5248">
        <ele>1667.6</ele>
        <time>2015-02-09T14:49:23Z</time>
      </trkpt>
      <trkpt lat="42.52653" lon="0.52478">
        <ele>1668.2</ele>
        <time>2015-02-09T14:49:23Z</time>
      </trkpt>
      <trkpt lat="42.52662" lon="0.52464">
        <ele>1669.2</ele>
        <time>2015-02-09T14:49:23Z</time>
      </trkpt>
      <trkpt lat="42.52668" lon="0.52451">
        <ele>1669.3</ele>
        <time>2015-02-09T14:49:23Z</time>
      </trkpt>
      <trkpt lat="42.52673" lon="0.52442">
        <ele>1669.2</ele>
        <time>2015-02-09T14:49:23Z</time>
      </trkpt>
      <trkpt lat="42.52678" lon="0.52433">
        <ele>1669.1</ele>
        <time>2015-02-09T14:49:23Z</time>
      </trkpt>
      <trkpt lat="42.52688" lon="0.52419">
        <ele>1669.8</ele>
        <time>2015-02-09T14:49:23Z</time>
      </trkpt>
      <trkpt lat="42.52696" lon="0.52408">
        <ele>1670.4</ele>
        <time>2015-02-09T14:49:23Z</time>
      </trkpt>
      <trkpt lat="42.52709" lon="0.52393">
        <ele>1671.5</ele>
        <time>2015-02-09T14:49:23Z</time>
      </trkpt>
      <trkpt lat="42.52715" lon="0.52384">
        <ele>1671.8</ele>
        <time>2015-02-09T14:49:23Z</time>
      </trkpt>
      <trkpt lat="42.52726" lon="0.52374">
        <ele>1673.6</ele>
        <time>2015-02-09T14:49:23Z</time>
      </trkpt>
      <trkpt lat="42.52737" lon="0.52357">
        <ele>1674.1</ele>
        <time>2015-02-09T14:49:23Z</time>
      </trkpt>
      <trkpt lat="42.52741" lon="0.52345">
        <ele>1673.1</ele>
        <time>2015-02-09T14:49:23Z</time>
      </trkpt>
      <trkpt lat="42.52751" lon="0.5233">
        <ele>1672.9</ele>
        <time>2015-02-09T14:49:23Z</time>
      </trkpt>
      <trkpt lat="42.52758" lon="0.52318">
        <ele>1669.5</ele>
        <time>2015-02-09T14:49:23Z</time>
      </trkpt>
      <trkpt lat="42.52764" lon="0.52312">
        <ele>1667.6</ele>
        <time>2015-02-09T14:49:23Z</time>
      </trkpt>
      <trkpt lat="42.52773" lon="0.52301">
        <ele>1664.5</ele>
        <time>2015-02-09T14:49:23Z</time>
      </trkpt>
      <trkpt lat="42.52782" lon="0.52291">
        <ele>1661.3</ele>
        <time>2015-02-09T14:49:23Z</time>
      </trkpt>
      <trkpt lat="42.5279" lon="0.52278">
        <ele>1657</ele>
        <time>2015-02-09T14:49:23Z</time>
      </trkpt>
      <trkpt lat="42.528" lon="0.52267">
        <ele>1653.5</ele>
        <time>2015-02-09T14:49:23Z</time>
      </trkpt>
      <trkpt lat="42.52812" lon="0.52258">
        <ele>1650.2</ele>
        <time>2015-02-09T14:49:23Z</time>
      </trkpt>
      <trkpt lat="42.52821" lon="0.52256">
        <ele>1649.1</ele>
        <time>2015-02-09T14:49:23Z</time>
      </trkpt>
      <trkpt lat="42.52824" lon="0.52257">
        <ele>1649.5</ele>
        <time>2015-02-09T14:49:23Z</time>
      </trkpt>
      <trkpt lat="42.52824" lon="0.52266">
        <ele>1652.7</ele>
        <time>2015-02-09T14:49:23Z</time>
      </trkpt>
      <trkpt lat="42.52822" lon="0.5227">
        <ele>1654.1</ele>
        <time>2015-02-09T14:49:23Z</time>
      </trkpt>
      <trkpt lat="42.52811" lon="0.5228">
        <ele>1657.4</ele>
        <time>2015-02-09T14:49:23Z</time>
      </trkpt>
      <trkpt lat="42.52802" lon="0.52294">
        <ele>1662.3</ele>
        <time>2015-02-09T14:49:23Z</time>
      </trkpt>
      <trkpt lat="42.52796" lon="0.52307">
        <ele>1666.6</ele>
        <time>2015-02-09T14:49:23Z</time>
      </trkpt>
      <trkpt lat="42.5279" lon="0.52326">
        <ele>1672.9</ele>
        <time>2015-02-09T14:49:23Z</time>
      </trkpt>
      <trkpt lat="42.52784" lon="0.52344">
        <ele>1677.5</ele>
        <time>2015-02-09T14:49:23Z</time>
      </trkpt>
      <trkpt lat="42.5278" lon="0.52358">
        <ele>1680.1</ele>
        <time>2015-02-09T14:49:23Z</time>
      </trkpt>
      <trkpt lat="42.52777" lon="0.52376">
        <ele>1683.6</ele>
        <time>2015-02-09T14:49:23Z</time>
      </trkpt>
      <trkpt lat="42.52779" lon="0.52382">
        <ele>1685.2</ele>
        <time>2015-02-09T14:49:23Z</time>
      </trkpt>
      <trkpt lat="42.52789" lon="0.5238">
        <ele>1685.7</ele>
        <time>2015-02-09T14:49:23Z</time>
      </trkpt>
      <trkpt lat="42.52795" lon="0.52368">
        <ele>1683.5</ele>
        <time>2015-02-09T14:49:23Z</time>
      </trkpt>
      <trkpt lat="42.52797" lon="0.52361">
        <ele>1682.2</ele>
        <time>2015-02-09T14:49:23Z</time>
      </trkpt>
      <trkpt lat="42.52806" lon="0.52342">
        <ele>1678</ele>
        <time>2015-02-09T14:49:23Z</time>
      </trkpt>
      <trkpt lat="42.52819" lon="0.52325">
        <ele>1673.3</ele>
        <time>2015-02-09T14:49:23Z</time>
      </trkpt>
      <trkpt lat="42.52835" lon="0.52314">
        <ele>1669.5</ele>
        <time>2015-02-09T14:49:23Z</time>
      </trkpt>
      <trkpt lat="42.52849" lon="0.52307">
        <ele>1663.8</ele>
        <time>2015-02-09T14:49:23Z</time>
      </trkpt>
      <trkpt lat="42.52859" lon="0.52308">
        <ele>1662.2</ele>
        <time>2015-02-09T14:49:23Z</time>
      </trkpt>
      <trkpt lat="42.52864" lon="0.52313">
        <ele>1662.8</ele>
        <time>2015-02-09T14:49:23Z</time>
      </trkpt>
      <trkpt lat="42.52861" lon="0.52327">
        <ele>1668.4</ele>
        <time>2015-02-09T14:49:23Z</time>
      </trkpt>
      <trkpt lat="42.52852" lon="0.52342">
        <ele>1675.1</ele>
        <time>2015-02-09T14:49:23Z</time>
      </trkpt>
      <trkpt lat="42.52849" lon="0.52355">
        <ele>1679.7</ele>
        <time>2015-02-09T14:49:23Z</time>
      </trkpt>
      <trkpt lat="42.52846" lon="0.52368">
        <ele>1684.4</ele>
        <time>2015-02-09T14:49:23Z</time>
      </trkpt>
      <trkpt lat="42.52844" lon="0.52384">
        <ele>1689.4</ele>
        <time>2015-02-09T14:49:23Z</time>
      </trkpt>
      <trkpt lat="42.52842" lon="0.52403">
        <ele>1695.6</ele>
        <time>2015-02-09T14:49:23Z</time>
      </trkpt>
      <trkpt lat="42.52842" lon="0.52419">
        <ele>1700.2</ele>
        <time>2015-02-09T14:49:23Z</time>
      </trkpt>
      <trkpt lat="42.52841" lon="0.52433">
        <ele>1703.1</ele>
        <time>2015-02-09T14:49:23Z</time>
      </trkpt>
      <trkpt lat="42.52838" lon="0.52449">
        <ele>1706.4</ele>
        <time>2015-02-09T14:49:23Z</time>
      </trkpt>
      <trkpt lat="42.52833" lon="0.52468">
        <ele>1710.1</ele>
        <time>2015-02-09T14:49:23Z</time>
      </trkpt>
      <trkpt lat="42.52829" lon="0.52486">
        <ele>1712.7</ele>
        <time>2015-02-09T14:49:23Z</time>
      </trkpt>
      <trkpt lat="42.52823" lon="0.52503">
        <ele>1714.7</ele>
        <time>2015-02-09T14:49:23Z</time>
      </trkpt>
      <trkpt lat="42.52816" lon="0.52516">
        <ele>1715.7</ele>
        <time>2015-02-09T14:49:23Z</time>
      </trkpt>
      <trkpt lat="42.52808" lon="0.52531">
        <ele>1716.6</ele>
        <time>2015-02-09T14:49:23Z</time>
      </trkpt>
      <trkpt lat="42.52804" lon="0.5255">
        <ele>1719.1</ele>
        <time>2015-02-09T14:49:23Z</time>
      </trkpt>
      <trkpt lat="42.52799" lon="0.52566">
        <ele>1720.7</ele>
        <time>2015-02-09T14:49:23Z</time>
      </trkpt>
      <trkpt lat="42.52796" lon="0.52575">
        <ele>1721.6</ele>
        <time>2015-02-09T14:49:23Z</time>
      </trkpt>
      <trkpt lat="42.5279" lon="0.5259">
        <ele>1723.2</ele>
        <time>2015-02-09T14:49:23Z</time>
      </trkpt>
      <trkpt lat="42.52787" lon="0.52606">
        <ele>1726</ele>
        <time>2015-02-09T14:49:23Z</time>
      </trkpt>
      <trkpt lat="42.52783" lon="0.5262">
        <ele>1728.5</ele>
        <time>2015-02-09T14:49:23Z</time>
      </trkpt>
      <trkpt lat="42.52775" lon="0.52636">
        <ele>1730.4</ele>
        <time>2015-02-09T14:49:23Z</time>
      </trkpt>
      <trkpt lat="42.52766" lon="0.52651">
        <ele>1732</ele>
        <time>2015-02-09T14:49:23Z</time>
      </trkpt>
      <trkpt lat="42.52762" lon="0.52666">
        <ele>1734.9</ele>
        <time>2015-02-09T14:49:23Z</time>
      </trkpt>
      <trkpt lat="42.52765" lon="0.52671">
        <ele>1736.9</ele>
        <time>2015-02-09T14:49:23Z</time>
      </trkpt>
      <trkpt lat="42.52772" lon="0.5267">
        <ele>1737.8</ele>
        <time>2015-02-09T14:49:23Z</time>
      </trkpt>
      <trkpt lat="42.52781" lon="0.52658">
        <ele>1736.6</ele>
        <time>2015-02-09T14:49:23Z</time>
      </trkpt>
      <trkpt lat="42.52793" lon="0.52647">
        <ele>1736.2</ele>
        <time>2015-02-09T14:49:23Z</time>
      </trkpt>
      <trkpt lat="42.52804" lon="0.52636">
        <ele>1736</ele>
        <time>2015-02-09T14:49:23Z</time>
      </trkpt>
      <trkpt lat="42.52816" lon="0.52622">
        <ele>1735.3</ele>
        <time>2015-02-09T14:49:23Z</time>
      </trkpt>
      <trkpt lat="42.52826" lon="0.52612">
        <ele>1735.2</ele>
        <time>2015-02-09T14:49:23Z</time>
      </trkpt>
      <trkpt lat="42.5283" lon="0.52609">
        <ele>1735.4</ele>
        <time>2015-02-09T14:49:23Z</time>
      </trkpt>
      <trkpt lat="42.52841" lon="0.52602">
        <ele>1735.8</ele>
        <time>2015-02-09T14:49:23Z</time>
      </trkpt>
      <trkpt lat="42.52853" lon="0.52596">
        <ele>1736.2</ele>
        <time>2015-02-09T14:49:23Z</time>
      </trkpt>
      <trkpt lat="42.52865" lon="0.52594">
        <ele>1737.6</ele>
        <time>2015-02-09T14:49:23Z</time>
      </trkpt>
      <trkpt lat="42.52875" lon="0.52592">
        <ele>1738.5</ele>
        <time>2015-02-09T14:49:23Z</time>
      </trkpt>
      <trkpt lat="42.52881" lon="0.52592">
        <ele>1739.3</ele>
        <time>2015-02-09T14:49:23Z</time>
      </trkpt>
      <trkpt lat="42.52895" lon="0.52592">
        <ele>1741.3</ele>
        <time>2015-02-09T14:49:23Z</time>
      </trkpt>
      <trkpt lat="42.52908" lon="0.52591">
        <ele>1742.9</ele>
        <time>2015-02-09T14:49:23Z</time>
      </trkpt>
      <trkpt lat="42.52922" lon="0.52594">
        <ele>1744</ele>
        <time>2015-02-09T14:49:23Z</time>
      </trkpt>
      <trkpt lat="42.52932" lon="0.52597">
        <ele>1743.4</ele>
        <time>2015-02-09T14:49:23Z</time>
      </trkpt>
      <trkpt lat="42.52941" lon="0.52592">
        <ele>1741.5</ele>
        <time>2015-02-09T14:49:23Z</time>
      </trkpt>
      <trkpt lat="42.52945" lon="0.52589">
        <ele>1740.6</ele>
        <time>2015-02-09T14:49:23Z</time>
      </trkpt>
      <trkpt lat="42.52952" lon="0.5258">
        <ele>1737.6</ele>
        <time>2015-02-09T14:49:23Z</time>
      </trkpt>
      <trkpt lat="42.52963" lon="0.5257">
        <ele>1733.3</ele>
        <time>2015-02-09T14:49:23Z</time>
      </trkpt>
      <trkpt lat="42.52974" lon="0.52567">
        <ele>1731.1</ele>
        <time>2015-02-09T14:49:23Z</time>
      </trkpt>
      <trkpt lat="42.52982" lon="0.52569">
        <ele>1730.4</ele>
        <time>2015-02-09T14:49:23Z</time>
      </trkpt>
      <trkpt lat="42.5299" lon="0.52574">
        <ele>1731</ele>
        <time>2015-02-09T14:49:23Z</time>
      </trkpt>
      <trkpt lat="42.52997" lon="0.52583">
        <ele>1732.9</ele>
        <time>2015-02-09T14:49:23Z</time>
      </trkpt>
      <trkpt lat="42.53005" lon="0.52593">
        <ele>1733.4</ele>
        <time>2015-02-09T14:49:23Z</time>
      </trkpt>
      <trkpt lat="42.53014" lon="0.52597">
        <ele>1731.1</ele>
        <time>2015-02-09T14:49:23Z</time>
      </trkpt>
      <trkpt lat="42.53026" lon="0.52595">
        <ele>1725.8</ele>
        <time>2015-02-09T14:49:23Z</time>
      </trkpt>
      <trkpt lat="42.53036" lon="0.52596">
        <ele>1722.3</ele>
        <time>2015-02-09T14:49:23Z</time>
      </trkpt>
      <trkpt lat="42.53041" lon="0.52599">
        <ele>1721.3</ele>
        <time>2015-02-09T14:49:23Z</time>
      </trkpt>
      <trkpt lat="42.53041" lon="0.52604">
        <ele>1722.9</ele>
        <time>2015-02-09T14:49:23Z</time>
      </trkpt>
      <trkpt lat="42.53036" lon="0.52613">
        <ele>1727.7</ele>
        <time>2015-02-09T14:49:23Z</time>
      </trkpt>
      <trkpt lat="42.53034" lon="0.52617">
        <ele>1729.6</ele>
        <time>2015-02-09T14:49:23Z</time>
      </trkpt>
      <trkpt lat="42.53029" lon="0.5262">
        <ele>1732.6</ele>
        <time>2015-02-09T14:49:23Z</time>
      </trkpt>
      <trkpt lat="42.53014" lon="0.5263">
        <ele>1740.7</ele>
        <time>2015-02-09T14:49:23Z</time>
      </trkpt>
      <trkpt lat="42.53008" lon="0.52638">
        <ele>1744.9</ele>
        <time>2015-02-09T14:49:23Z</time>
      </trkpt>
      <trkpt lat="42.53002" lon="0.52651">
        <ele>1750.5</ele>
        <time>2015-02-09T14:49:23Z</time>
      </trkpt>
      <trkpt lat="42.52997" lon="0.52663">
        <ele>1754.9</ele>
        <time>2015-02-09T14:49:23Z</time>
      </trkpt>
      <trkpt lat="42.52994" lon="0.52677">
        <ele>1757.8</ele>
        <time>2015-02-09T14:49:23Z</time>
      </trkpt>
      <trkpt lat="42.52988" lon="0.52686">
        <ele>1759.7</ele>
        <time>2015-02-09T14:49:23Z</time>
      </trkpt>
      <trkpt lat="42.52976" lon="0.52691">
        <ele>1760.6</ele>
        <time>2015-02-09T14:49:23Z</time>
      </trkpt>
      <trkpt lat="42.52972" lon="0.52692">
        <ele>1760.8</ele>
        <time>2015-02-09T14:49:23Z</time>
      </trkpt>
      <trkpt lat="42.52959" lon="0.52687">
        <ele>1759.8</ele>
        <time>2015-02-09T14:49:23Z</time>
      </trkpt>
      <trkpt lat="42.5295" lon="0.52685">
        <ele>1759.5</ele>
        <time>2015-02-09T14:49:23Z</time>
      </trkpt>
      <trkpt lat="42.52947" lon="0.52685">
        <ele>1759.4</ele>
        <time>2015-02-09T14:49:23Z</time>
      </trkpt>
      <trkpt lat="42.52942" lon="0.52694">
        <ele>1760.9</ele>
        <time>2015-02-09T14:49:23Z</time>
      </trkpt>
      <trkpt lat="42.52943" lon="0.52702">
        <ele>1762.6</ele>
        <time>2015-02-09T14:49:23Z</time>
      </trkpt>
      <trkpt lat="42.52955" lon="0.52709">
        <ele>1764</ele>
        <time>2015-02-09T14:49:23Z</time>
      </trkpt>
      <trkpt lat="42.52962" lon="0.52718">
        <ele>1765.8</ele>
        <time>2015-02-09T14:49:23Z</time>
      </trkpt>
      <trkpt lat="42.52971" lon="0.52725">
        <ele>1767.2</ele>
        <time>2015-02-09T14:49:23Z</time>
      </trkpt>
      <trkpt lat="42.52984" lon="0.52734">
        <ele>1769.2</ele>
        <time>2015-02-09T14:49:23Z</time>
      </trkpt>
      <trkpt lat="42.52993" lon="0.5274">
        <ele>1770.7</ele>
        <time>2015-02-09T14:49:23Z</time>
      </trkpt>
      <trkpt lat="42.53003" lon="0.52744">
        <ele>1771.4</ele>
        <time>2015-02-09T14:49:23Z</time>
      </trkpt>
      <trkpt lat="42.53015" lon="0.52749">
        <ele>1771.9</ele>
        <time>2015-02-09T14:49:23Z</time>
      </trkpt>
      <trkpt lat="42.53026" lon="0.52755">
        <ele>1772.7</ele>
        <time>2015-02-09T14:49:23Z</time>
      </trkpt>
      <trkpt lat="42.53031" lon="0.52756">
        <ele>1772.8</ele>
        <time>2015-02-09T14:49:23Z</time>
      </trkpt>
      <trkpt lat="42.53043" lon="0.52761">
        <ele>1773.6</ele>
        <time>2015-02-09T14:49:23Z</time>
      </trkpt>
      <trkpt lat="42.53055" lon="0.52765">
        <ele>1774.1</ele>
        <time>2015-02-09T14:49:23Z</time>
      </trkpt>
      <trkpt lat="42.53065" lon="0.52765">
        <ele>1773.7</ele>
        <time>2015-02-09T14:49:23Z</time>
      </trkpt>
      <trkpt lat="42.53078" lon="0.52769">
        <ele>1774.2</ele>
        <time>2015-02-09T14:49:23Z</time>
      </trkpt>
      <trkpt lat="42.53087" lon="0.52772">
        <ele>1774.6</ele>
        <time>2015-02-09T14:49:23Z</time>
      </trkpt>
      <trkpt lat="42.53099" lon="0.52778">
        <ele>1776</ele>
        <time>2015-02-09T14:49:23Z</time>
      </trkpt>
      <trkpt lat="42.53108" lon="0.52784">
        <ele>1777.5</ele>
        <time>2015-02-09T14:49:23Z</time>
      </trkpt>
      <trkpt lat="42.53119" lon="0.52792">
        <ele>1779.4</ele>
        <time>2015-02-09T14:49:23Z</time>
      </trkpt>
      <trkpt lat="42.5313" lon="0.52796">
        <ele>1780.2</ele>
        <time>2015-02-09T14:49:23Z</time>
      </trkpt>
      <trkpt lat="42.53142" lon="0.52795">
        <ele>1779.5</ele>
        <time>2015-02-09T14:49:23Z</time>
      </trkpt>
      <trkpt lat="42.53155" lon="0.52793">
        <ele>1778.3</ele>
        <time>2015-02-09T14:49:23Z</time>
      </trkpt>
      <trkpt lat="42.53167" lon="0.52795">
        <ele>1778.8</ele>
        <time>2015-02-09T14:49:23Z</time>
      </trkpt>
      <trkpt lat="42.53174" lon="0.52796">
        <ele>1778.9</ele>
        <time>2015-02-09T14:49:23Z</time>
      </trkpt>
      <trkpt lat="42.5318" lon="0.52799">
        <ele>1779.5</ele>
        <time>2015-02-09T14:49:23Z</time>
      </trkpt>
      <trkpt lat="42.5319" lon="0.52806">
        <ele>1781.3</ele>
        <time>2015-02-09T14:49:23Z</time>
      </trkpt>
      <trkpt lat="42.53198" lon="0.52816">
        <ele>1784.6</ele>
        <time>2015-02-09T14:49:23Z</time>
      </trkpt>
      <trkpt lat="42.532" lon="0.52828">
        <ele>1788.7</ele>
        <time>2015-02-09T14:49:23Z</time>
      </trkpt>
      <trkpt lat="42.53204" lon="0.52847">
        <ele>1794.7</ele>
        <time>2015-02-09T14:49:23Z</time>
      </trkpt>
      <trkpt lat="42.5321" lon="0.52859">
        <ele>1798.4</ele>
        <time>2015-02-09T14:49:23Z</time>
      </trkpt>
      <trkpt lat="42.53211" lon="0.5286">
        <ele>1798.8</ele>
        <time>2015-02-09T14:49:23Z</time>
      </trkpt>
      <trkpt lat="42.53216" lon="0.52872">
        <ele>1802.6</ele>
        <time>2015-02-09T14:49:23Z</time>
      </trkpt>
      <trkpt lat="42.53219" lon="0.52882">
        <ele>1806</ele>
        <time>2015-02-09T14:49:23Z</time>
      </trkpt>
      <trkpt lat="42.53223" lon="0.52895">
        <ele>1810.5</ele>
        <time>2015-02-09T14:49:23Z</time>
      </trkpt>
      <trkpt lat="42.53226" lon="0.52909">
        <ele>1815.4</ele>
        <time>2015-02-09T14:49:23Z</time>
      </trkpt>
      <trkpt lat="42.53229" lon="0.52923">
        <ele>1819.5</ele>
        <time>2015-02-09T14:49:23Z</time>
      </trkpt>
      <trkpt lat="42.5323" lon="0.52926">
        <ele>1820.5</ele>
        <time>2015-02-09T14:49:23Z</time>
      </trkpt>
      <trkpt lat="42.53233" lon="0.52932">
        <ele>1822.1</ele>
        <time>2015-02-09T14:49:23Z</time>
      </trkpt>
      <trkpt lat="42.53239" lon="0.52944">
        <ele>1825.7</ele>
        <time>2015-02-09T14:49:23Z</time>
      </trkpt>
      <trkpt lat="42.53246" lon="0.52946">
        <ele>1827.3</ele>
        <time>2015-02-09T14:49:23Z</time>
      </trkpt>
      <trkpt lat="42.5325" lon="0.52943">
        <ele>1827.1</ele>
        <time>2015-02-09T14:49:23Z</time>
      </trkpt>
      <trkpt lat="42.53259" lon="0.52933">
        <ele>1821</ele>
        <time>2015-02-09T14:49:23Z</time>
      </trkpt>
      <trkpt lat="42.53268" lon="0.52921">
        <ele>1814.4</ele>
        <time>2015-02-09T14:49:23Z</time>
      </trkpt>
      <trkpt lat="42.53276" lon="0.52913">
        <ele>1808.9</ele>
        <time>2015-02-09T14:49:23Z</time>
      </trkpt>
      <trkpt lat="42.53285" lon="0.52907">
        <ele>1802.9</ele>
        <time>2015-02-09T14:49:23Z</time>
      </trkpt>
      <trkpt lat="42.53298" lon="0.52909">
        <ele>1798.5</ele>
        <time>2015-02-09T14:49:23Z</time>
      </trkpt>
      <trkpt lat="42.53311" lon="0.52915">
        <ele>1795</ele>
        <time>2015-02-09T14:49:23Z</time>
      </trkpt>
      <trkpt lat="42.53321" lon="0.52917">
        <ele>1791.8</ele>
        <time>2015-02-09T14:49:23Z</time>
      </trkpt>
      <trkpt lat="42.53333" lon="0.52917">
        <ele>1787</ele>
        <time>2015-02-09T14:49:23Z</time>
      </trkpt>
      <trkpt lat="42.53341" lon="0.52921">
        <ele>1784.2</ele>
        <time>2015-02-09T14:49:23Z</time>
      </trkpt>
      <trkpt lat="42.53341" lon="0.52926">
        <ele>1785.7</ele>
        <time>2015-02-09T14:49:23Z</time>
      </trkpt>
      <trkpt lat="42.53332" lon="0.52936">
        <ele>1792.4</ele>
        <time>2015-02-09T14:49:23Z</time>
      </trkpt>
      <trkpt lat="42.53323" lon="0.52944">
        <ele>1798.1</ele>
        <time>2015-02-09T14:49:23Z</time>
      </trkpt>
      <trkpt lat="42.53319" lon="0.52945">
        <ele>1800.1</ele>
        <time>2015-02-09T14:49:23Z</time>
      </trkpt>
      <trkpt lat="42.53328" lon="0.52955">
        <ele>1799.3</ele>
        <time>2015-02-09T14:49:23Z</time>
      </trkpt>
      <trkpt lat="42.53323" lon="0.52961">
        <ele>1802.7</ele>
        <time>2015-02-09T14:49:23Z</time>
      </trkpt>
      <trkpt lat="42.5332" lon="0.52967">
        <ele>1805.6</ele>
        <time>2015-02-09T14:49:23Z</time>
      </trkpt>
      <trkpt lat="42.53318" lon="0.52978">
        <ele>1809.6</ele>
        <time>2015-02-09T14:49:23Z</time>
      </trkpt>
      <trkpt lat="42.53312" lon="0.52996">
        <ele>1816.4</ele>
        <time>2015-02-09T14:49:23Z</time>
      </trkpt>
      <trkpt lat="42.53301" lon="0.53005">
        <ele>1823</ele>
        <time>2015-02-09T14:49:23Z</time>
      </trkpt>
      <trkpt lat="42.53294" lon="0.53016">
        <ele>1828.7</ele>
        <time>2015-02-09T14:49:23Z</time>
      </trkpt>
      <trkpt lat="42.53292" lon="0.53029">
        <ele>1832.9</ele>
        <time>2015-02-09T14:49:23Z</time>
      </trkpt>
      <trkpt lat="42.53292" lon="0.53045">
        <ele>1837</ele>
        <time>2015-02-09T14:49:23Z</time>
      </trkpt>
      <trkpt lat="42.53294" lon="0.53062">
        <ele>1841</ele>
        <time>2015-02-09T14:49:23Z</time>
      </trkpt>
      <trkpt lat="42.53296" lon="0.53081">
        <ele>1846</ele>
        <time>2015-02-09T14:49:23Z</time>
      </trkpt>
      <trkpt lat="42.53296" lon="0.53095">
        <ele>1849.4</ele>
        <time>2015-02-09T14:49:23Z</time>
      </trkpt>
      <trkpt lat="42.53295" lon="0.53117">
        <ele>1855</ele>
        <time>2015-02-09T14:49:23Z</time>
      </trkpt>
      <trkpt lat="42.53291" lon="0.53138">
        <ele>1860.7</ele>
        <time>2015-02-09T14:49:23Z</time>
      </trkpt>
      <trkpt lat="42.53287" lon="0.53157">
        <ele>1865.8</ele>
        <time>2015-02-09T14:49:23Z</time>
      </trkpt>
      <trkpt lat="42.53282" lon="0.53177">
        <ele>1869.6</ele>
        <time>2015-02-09T14:49:23Z</time>
      </trkpt>
      <trkpt lat="42.53278" lon="0.53182">
        <ele>1870.5</ele>
        <time>2015-02-09T14:49:23Z</time>
      </trkpt>
      <trkpt lat="42.53272" lon="0.53182">
        <ele>1871</ele>
        <time>2015-02-09T14:49:23Z</time>
      </trkpt>
      <trkpt lat="42.53262" lon="0.53174">
        <ele>1870.9</ele>
        <time>2015-02-09T14:49:23Z</time>
      </trkpt>
      <trkpt lat="42.53257" lon="0.53173">
        <ele>1871.1</ele>
        <time>2015-02-09T14:49:23Z</time>
      </trkpt>
      <trkpt lat="42.53244" lon="0.53181">
        <ele>1871.6</ele>
        <time>2015-02-09T14:49:23Z</time>
      </trkpt>
      <trkpt lat="42.53237" lon="0.53183">
        <ele>1870.7</ele>
        <time>2015-02-09T14:49:23Z</time>
      </trkpt>
      <trkpt lat="42.53229" lon="0.53175">
        <ele>1868.2</ele>
        <time>2015-02-09T14:49:23Z</time>
      </trkpt>
      <trkpt lat="42.53228" lon="0.53159">
        <ele>1865.4</ele>
        <time>2015-02-09T14:49:23Z</time>
      </trkpt>
      <trkpt lat="42.53228" lon="0.53155">
        <ele>1864.5</ele>
        <time>2015-02-09T14:49:23Z</time>
      </trkpt>
      <trkpt lat="42.53224" lon="0.53147">
        <ele>1862.3</ele>
        <time>2015-02-09T14:49:23Z</time>
      </trkpt>
      <trkpt lat="42.5321" lon="0.53139">
        <ele>1858.6</ele>
        <time>2015-02-09T14:49:23Z</time>
      </trkpt>
      <trkpt lat="42.53193" lon="0.5313">
        <ele>1854.3</ele>
        <time>2015-02-09T14:49:23Z</time>
      </trkpt>
      <trkpt lat="42.53174" lon="0.53127">
        <ele>1850.9</ele>
        <time>2015-02-09T14:49:23Z</time>
      </trkpt>
      <trkpt lat="42.53161" lon="0.53132">
        <ele>1851.1</ele>
        <time>2015-02-09T14:49:23Z</time>
      </trkpt>
      <trkpt lat="42.53148" lon="0.53134">
        <ele>1853</ele>
        <time>2015-02-09T14:49:23Z</time>
      </trkpt>
      <trkpt lat="42.53134" lon="0.53134">
        <ele>1854.9</ele>
        <time>2015-02-09T14:49:23Z</time>
      </trkpt>
      <trkpt lat="42.53115" lon="0.53134">
        <ele>1857.4</ele>
        <time>2015-02-09T14:49:23Z</time>
      </trkpt>
      <trkpt lat="42.53105" lon="0.53132">
        <ele>1858.6</ele>
        <time>2015-02-09T14:49:23Z</time>
      </trkpt>
      <trkpt lat="42.53091" lon="0.53129">
        <ele>1860</ele>
        <time>2015-02-09T14:49:23Z</time>
      </trkpt>
      <trkpt lat="42.53077" lon="0.53123">
        <ele>1860.6</ele>
        <time>2015-02-09T14:49:23Z</time>
      </trkpt>
      <trkpt lat="42.53063" lon="0.53115">
        <ele>1860.3</ele>
        <time>2015-02-09T14:49:23Z</time>
      </trkpt>
      <trkpt lat="42.53053" lon="0.53106">
        <ele>1859.3</ele>
        <time>2015-02-09T14:49:23Z</time>
      </trkpt>
      <trkpt lat="42.53041" lon="0.53095">
        <ele>1857.6</ele>
        <time>2015-02-09T14:49:23Z</time>
      </trkpt>
      <trkpt lat="42.53027" lon="0.53082">
        <ele>1855.4</ele>
        <time>2015-02-09T14:49:23Z</time>
      </trkpt>
      <trkpt lat="42.53007" lon="0.53066">
        <ele>1852.4</ele>
        <time>2015-02-09T14:49:23Z</time>
      </trkpt>
      <trkpt lat="42.52994" lon="0.53057">
        <ele>1852</ele>
        <time>2015-02-09T14:49:23Z</time>
      </trkpt>
      <trkpt lat="42.52974" lon="0.53042">
        <ele>1853.7</ele>
        <time>2015-02-09T14:49:23Z</time>
      </trkpt>
      <trkpt lat="42.52959" lon="0.53033">
        <ele>1855.2</ele>
        <time>2015-02-09T14:49:23Z</time>
      </trkpt>
      <trkpt lat="42.52946" lon="0.53028">
        <ele>1857</ele>
        <time>2015-02-09T14:49:23Z</time>
      </trkpt>
      <trkpt lat="42.52942" lon="0.53031">
        <ele>1858.8</ele>
        <time>2015-02-09T14:49:23Z</time>
      </trkpt>
      <trkpt lat="42.52942" lon="0.53041">
        <ele>1861.8</ele>
        <time>2015-02-09T14:49:23Z</time>
      </trkpt>
      <trkpt lat="42.52949" lon="0.53045">
        <ele>1861.1</ele>
        <time>2015-02-09T14:49:23Z</time>
      </trkpt>
      <trkpt lat="42.52959" lon="0.53056">
        <ele>1861.2</ele>
        <time>2015-02-09T14:49:23Z</time>
      </trkpt>
      <trkpt lat="42.5297" lon="0.53071">
        <ele>1862.4</ele>
        <time>2015-02-09T14:49:23Z</time>
      </trkpt>
      <trkpt lat="42.5298" lon="0.53087">
        <ele>1863.5</ele>
        <time>2015-02-09T14:49:23Z</time>
      </trkpt>
      <trkpt lat="42.52988" lon="0.531">
        <ele>1864.4</ele>
        <time>2015-02-09T14:49:23Z</time>
      </trkpt>
      <trkpt lat="42.52999" lon="0.5312">
        <ele>1866.4</ele>
        <time>2015-02-09T14:49:23Z</time>
      </trkpt>
      <trkpt lat="42.53008" lon="0.53137">
        <ele>1869.6</ele>
        <time>2015-02-09T14:49:23Z</time>
      </trkpt>
      <trkpt lat="42.53018" lon="0.53151">
        <ele>1871.6</ele>
        <time>2015-02-09T14:49:23Z</time>
      </trkpt>
      <trkpt lat="42.53028" lon="0.53164">
        <ele>1873.4</ele>
        <time>2015-02-09T14:49:23Z</time>
      </trkpt>
      <trkpt lat="42.53036" lon="0.53181">
        <ele>1876.4</ele>
        <time>2015-02-09T14:49:23Z</time>
      </trkpt>
      <trkpt lat="42.53045" lon="0.53197">
        <ele>1879.3</ele>
        <time>2015-02-09T14:49:23Z</time>
      </trkpt>
      <trkpt lat="42.53054" lon="0.53214">
        <ele>1881.9</ele>
        <time>2015-02-09T14:49:23Z</time>
      </trkpt>
      <trkpt lat="42.53065" lon="0.53236">
        <ele>1885.2</ele>
        <time>2015-02-09T14:49:23Z</time>
      </trkpt>
      <trkpt lat="42.53074" lon="0.53253">
        <ele>1887.4</ele>
        <time>2015-02-09T14:49:23Z</time>
      </trkpt>
      <trkpt lat="42.53084" lon="0.53269">
        <ele>1890</ele>
        <time>2015-02-09T14:49:23Z</time>
      </trkpt>
      <trkpt lat="42.5309" lon="0.53283">
        <ele>1893.2</ele>
        <time>2015-02-09T14:49:23Z</time>
      </trkpt>
      <trkpt lat="42.531" lon="0.53299">
        <ele>1895.9</ele>
        <time>2015-02-09T14:49:23Z</time>
      </trkpt>
      <trkpt lat="42.5311" lon="0.5331">
        <ele>1897.4</ele>
        <time>2015-02-09T14:49:23Z</time>
      </trkpt>
      <trkpt lat="42.53117" lon="0.53319">
        <ele>1898.2</ele>
        <time>2015-02-09T14:49:23Z</time>
      </trkpt>
      <trkpt lat="42.5313" lon="0.5333">
        <ele>1898.9</ele>
        <time>2015-02-09T14:49:23Z</time>
      </trkpt>
      <trkpt lat="42.53141" lon="0.53341">
        <ele>1899.8</ele>
        <time>2015-02-09T14:49:23Z</time>
      </trkpt>
      <trkpt lat="42.53151" lon="0.53355">
        <ele>1902.3</ele>
        <time>2015-02-09T14:49:23Z</time>
      </trkpt>
      <trkpt lat="42.53163" lon="0.53365">
        <ele>1903</ele>
        <time>2015-02-09T14:49:23Z</time>
      </trkpt>
      <trkpt lat="42.53176" lon="0.53371">
        <ele>1904</ele>
        <time>2015-02-09T14:49:23Z</time>
      </trkpt>
      <trkpt lat="42.53186" lon="0.53378">
        <ele>1906.4</ele>
        <time>2015-02-09T14:49:23Z</time>
      </trkpt>
      <trkpt lat="42.53194" lon="0.53389">
        <ele>1909.4</ele>
        <time>2015-02-09T14:49:23Z</time>
      </trkpt>
      <trkpt lat="42.53199" lon="0.53405">
        <ele>1913.9</ele>
        <time>2015-02-09T14:49:23Z</time>
      </trkpt>
      <trkpt lat="42.53205" lon="0.5342">
        <ele>1918.4</ele>
        <time>2015-02-09T14:49:23Z</time>
      </trkpt>
      <trkpt lat="42.53213" lon="0.53434">
        <ele>1922.8</ele>
        <time>2015-02-09T14:49:23Z</time>
      </trkpt>
      <trkpt lat="42.53221" lon="0.53441">
        <ele>1924.5</ele>
        <time>2015-02-09T14:49:23Z</time>
      </trkpt>
      <trkpt lat="42.5323" lon="0.53447">
        <ele>1926</ele>
        <time>2015-02-09T14:49:23Z</time>
      </trkpt>
      <trkpt lat="42.53241" lon="0.53459">
        <ele>1928.6</ele>
        <time>2015-02-09T14:49:23Z</time>
      </trkpt>
      <trkpt lat="42.53253" lon="0.5347">
        <ele>1929.4</ele>
        <time>2015-02-09T14:49:23Z</time>
      </trkpt>
      <trkpt lat="42.53261" lon="0.53477">
        <ele>1928.5</ele>
        <time>2015-02-09T14:49:23Z</time>
      </trkpt>
      <trkpt lat="42.53273" lon="0.53481">
        <ele>1925</ele>
        <time>2015-02-09T14:49:23Z</time>
      </trkpt>
      <trkpt lat="42.53274" lon="0.53481">
        <ele>1924.6</ele>
        <time>2015-02-09T14:49:23Z</time>
      </trkpt>
      <trkpt lat="42.53285" lon="0.53481">
        <ele>1920.4</ele>
        <time>2015-02-09T14:49:23Z</time>
      </trkpt>
      <trkpt lat="42.53292" lon="0.53481">
        <ele>1917.7</ele>
        <time>2015-02-09T14:49:23Z</time>
      </trkpt>
      <trkpt lat="42.53307" lon="0.53488">
        <ele>1913.4</ele>
        <time>2015-02-09T14:49:23Z</time>
      </trkpt>
      <trkpt lat="42.53317" lon="0.53489">
        <ele>1909.9</ele>
        <time>2015-02-09T14:49:23Z</time>
      </trkpt>
      <trkpt lat="42.53327" lon="0.53489">
        <ele>1906</ele>
        <time>2015-02-09T14:49:23Z</time>
      </trkpt>
      <trkpt lat="42.53338" lon="0.53496">
        <ele>1904.3</ele>
        <time>2015-02-09T14:49:23Z</time>
      </trkpt>
      <trkpt lat="42.53342" lon="0.53505">
        <ele>1906.1</ele>
        <time>2015-02-09T14:49:23Z</time>
      </trkpt>
      <trkpt lat="42.53346" lon="0.53519">
        <ele>1909.9</ele>
        <time>2015-02-09T14:49:23Z</time>
      </trkpt>
      <trkpt lat="42.53352" lon="0.53537">
        <ele>1914.7</ele>
        <time>2015-02-09T14:49:23Z</time>
      </trkpt>
      <trkpt lat="42.53361" lon="0.53549">
        <ele>1917.3</ele>
        <time>2015-02-09T14:49:23Z</time>
      </trkpt>
      <trkpt lat="42.53368" lon="0.53563">
        <ele>1920.8</ele>
        <time>2015-02-09T14:49:23Z</time>
      </trkpt>
      <trkpt lat="42.5337" lon="0.53576">
        <ele>1924.6</ele>
        <time>2015-02-09T14:49:23Z</time>
      </trkpt>
      <trkpt lat="42.53376" lon="0.53591">
        <ele>1928.8</ele>
        <time>2015-02-09T14:49:23Z</time>
      </trkpt>
      <trkpt lat="42.53383" lon="0.53606">
        <ele>1934.1</ele>
        <time>2015-02-09T14:49:23Z</time>
      </trkpt>
      <trkpt lat="42.5339" lon="0.53619">
        <ele>1938.8</ele>
        <time>2015-02-09T14:49:23Z</time>
      </trkpt>
      <trkpt lat="42.53399" lon="0.53637">
        <ele>1946</ele>
        <time>2015-02-09T14:49:23Z</time>
      </trkpt>
      <trkpt lat="42.53408" lon="0.53653">
        <ele>1952.5</ele>
        <time>2015-02-09T14:49:23Z</time>
      </trkpt>
      <trkpt lat="42.53413" lon="0.53657">
        <ele>1954.3</ele>
        <time>2015-02-09T14:49:23Z</time>
      </trkpt>
      <trkpt lat="42.53423" lon="0.53662">
        <ele>1958.4</ele>
        <time>2015-02-09T14:49:23Z</time>
      </trkpt>
      <trkpt lat="42.53427" lon="0.53665">
        <ele>1960.5</ele>
        <time>2015-02-09T14:49:23Z</time>
      </trkpt>
      <trkpt lat="42.53432" lon="0.53683">
        <ele>1967.9</ele>
        <time>2015-02-09T14:49:23Z</time>
      </trkpt>
      <trkpt lat="42.53436" lon="0.537">
        <ele>1974.3</ele>
        <time>2015-02-09T14:49:23Z</time>
      </trkpt>
      <trkpt lat="42.53438" lon="0.53715">
        <ele>1979.8</ele>
        <time>2015-02-09T14:49:23Z</time>
      </trkpt>
      <trkpt lat="42.53443" lon="0.5373">
        <ele>1985.7</ele>
        <time>2015-02-09T14:49:23Z</time>
      </trkpt>
      <trkpt lat="42.53447" lon="0.53744">
        <ele>1991.3</ele>
        <time>2015-02-09T14:49:23Z</time>
      </trkpt>
      <trkpt lat="42.53454" lon="0.53758">
        <ele>1997.8</ele>
        <time>2015-02-09T14:49:23Z</time>
      </trkpt>
      <trkpt lat="42.53458" lon="0.53761">
        <ele>1999.7</ele>
        <time>2015-02-09T14:49:23Z</time>
      </trkpt>
      <trkpt lat="42.53468" lon="0.53761">
        <ele>2002</ele>
        <time>2015-02-09T14:49:23Z</time>
      </trkpt>
      <trkpt lat="42.53475" lon="0.53755">
        <ele>2001.5</ele>
        <time>2015-02-09T14:49:23Z</time>
      </trkpt>
      <trkpt lat="42.53483" lon="0.53739">
        <ele>1998.2</ele>
        <time>2015-02-09T14:49:23Z</time>
      </trkpt>
      <trkpt lat="42.53495" lon="0.53725">
        <ele>1996.5</ele>
        <time>2015-02-09T14:49:23Z</time>
      </trkpt>
      <trkpt lat="42.53501" lon="0.53721">
        <ele>1996.3</ele>
        <time>2015-02-09T14:49:23Z</time>
      </trkpt>
      <trkpt lat="42.53515" lon="0.53717">
        <ele>1995</ele>
        <time>2015-02-09T14:49:23Z</time>
      </trkpt>
      <trkpt lat="42.53525" lon="0.53709">
        <ele>1992.5</ele>
        <time>2015-02-09T14:49:23Z</time>
      </trkpt>
      <trkpt lat="42.53533" lon="0.53697">
        <ele>1988.8</ele>
        <time>2015-02-09T14:49:23Z</time>
      </trkpt>
      <trkpt lat="42.53542" lon="0.53686">
        <ele>1985.2</ele>
        <time>2015-02-09T14:49:23Z</time>
      </trkpt>
      <trkpt lat="42.53552" lon="0.53674">
        <ele>1981.6</ele>
        <time>2015-02-09T14:49:23Z</time>
      </trkpt>
      <trkpt lat="42.53564" lon="0.53663">
        <ele>1978.4</ele>
        <time>2015-02-09T14:49:23Z</time>
      </trkpt>
      <trkpt lat="42.53574" lon="0.53658">
        <ele>1976.7</ele>
        <time>2015-02-09T14:49:23Z</time>
      </trkpt>
      <trkpt lat="42.53583" lon="0.5366">
        <ele>1977.3</ele>
        <time>2015-02-09T14:49:23Z</time>
      </trkpt>
      <trkpt lat="42.53584" lon="0.53661">
        <ele>1977.7</ele>
        <time>2015-02-09T14:49:23Z</time>
      </trkpt>
      <trkpt lat="42.53584" lon="0.53671">
        <ele>1981.1</ele>
        <time>2015-02-09T14:49:23Z</time>
      </trkpt>
      <trkpt lat="42.5358" lon="0.53676">
        <ele>1982.7</ele>
        <time>2015-02-09T14:49:23Z</time>
      </trkpt>
      <trkpt lat="42.53576" lon="0.53677">
        <ele>1982.7</ele>
        <time>2015-02-09T14:49:23Z</time>
      </trkpt>
      <trkpt lat="42.53571" lon="0.53677">
        <ele>1982.6</ele>
        <time>2015-02-09T14:49:23Z</time>
      </trkpt>
      <trkpt lat="42.53564" lon="0.53682">
        <ele>1984.1</ele>
        <time>2015-02-09T14:49:23Z</time>
      </trkpt>
      <trkpt lat="42.53561" lon="0.53685">
        <ele>1985.3</ele>
        <time>2015-02-09T14:49:23Z</time>
      </trkpt>
      <trkpt lat="42.53553" lon="0.53696">
        <ele>1988.5</ele>
        <time>2015-02-09T14:49:23Z</time>
      </trkpt>
      <trkpt lat="42.53545" lon="0.53709">
        <ele>1992.5</ele>
        <time>2015-02-09T14:49:23Z</time>
      </trkpt>
      <trkpt lat="42.5354" lon="0.53722">
        <ele>1996.6</ele>
        <time>2015-02-09T14:49:23Z</time>
      </trkpt>
      <trkpt lat="42.53531" lon="0.5374">
        <ele>2002.3</ele>
        <time>2015-02-09T14:49:23Z</time>
      </trkpt>
      <trkpt lat="42.53516" lon="0.53751">
        <ele>2005.8</ele>
        <time>2015-02-09T14:49:23Z</time>
      </trkpt>
      <trkpt lat="42.53507" lon="0.5377">
        <ele>2012.6</ele>
        <time>2015-02-09T14:49:23Z</time>
      </trkpt>
      <trkpt lat="42.53501" lon="0.53791">
        <ele>2019.6</ele>
        <time>2015-02-09T14:49:23Z</time>
      </trkpt>
      <trkpt lat="42.53495" lon="0.53808">
        <ele>2024.2</ele>
        <time>2015-02-09T14:49:23Z</time>
      </trkpt>
      <trkpt lat="42.53489" lon="0.53825">
        <ele>2028.7</ele>
        <time>2015-02-09T14:49:23Z</time>
      </trkpt>
      <trkpt lat="42.53479" lon="0.53837">
        <ele>2030.6</ele>
        <time>2015-02-09T14:49:23Z</time>
      </trkpt>
      <trkpt lat="42.53468" lon="0.53835">
        <ele>2027.7</ele>
        <time>2015-02-09T14:49:23Z</time>
      </trkpt>
      <trkpt lat="42.53454" lon="0.53824">
        <ele>2020.5</ele>
        <time>2015-02-09T14:49:23Z</time>
      </trkpt>
      <trkpt lat="42.53443" lon="0.53812">
        <ele>2014</ele>
        <time>2015-02-09T14:49:23Z</time>
      </trkpt>
      <trkpt lat="42.53432" lon="0.53792">
        <ele>2004.6</ele>
        <time>2015-02-09T14:49:23Z</time>
      </trkpt>
      <trkpt lat="42.53421" lon="0.5378">
        <ele>1997.4</ele>
        <time>2015-02-09T14:49:23Z</time>
      </trkpt>
      <trkpt lat="42.53405" lon="0.53764">
        <ele>1990.4</ele>
        <time>2015-02-09T14:49:23Z</time>
      </trkpt>
      <trkpt lat="42.5339" lon="0.53755">
        <ele>1986.6</ele>
        <time>2015-02-09T14:49:23Z</time>
      </trkpt>
      <trkpt lat="42.53377" lon="0.53752">
        <ele>1985.1</ele>
        <time>2015-02-09T14:49:23Z</time>
      </trkpt>
      <trkpt lat="42.53361" lon="0.53751">
        <ele>1984</ele>
        <time>2015-02-09T14:49:23Z</time>
      </trkpt>
      <trkpt lat="42.53351" lon="0.53741">
        <ele>1980.7</ele>
        <time>2015-02-09T14:49:23Z</time>
      </trkpt>
      <trkpt lat="42.5334" lon="0.53723">
        <ele>1974.4</ele>
        <time>2015-02-09T14:49:23Z</time>
      </trkpt>
      <trkpt lat="42.53329" lon="0.53713">
        <ele>1972.5</ele>
        <time>2015-02-09T14:49:23Z</time>
      </trkpt>
      <trkpt lat="42.53313" lon="0.53709">
        <ele>1978.2</ele>
        <time>2015-02-09T14:49:23Z</time>
      </trkpt>
      <trkpt lat="42.53303" lon="0.53707">
        <ele>1981.8</ele>
        <time>2015-02-09T14:49:23Z</time>
      </trkpt>
      <trkpt lat="42.53292" lon="0.53693">
        <ele>1982.4</ele>
        <time>2015-02-09T14:49:23Z</time>
      </trkpt>
      <trkpt lat="42.5328" lon="0.53684">
        <ele>1984.8</ele>
        <time>2015-02-09T14:49:23Z</time>
      </trkpt>
      <trkpt lat="42.53263" lon="0.53675">
        <ele>1989.5</ele>
        <time>2015-02-09T14:49:23Z</time>
      </trkpt>
      <trkpt lat="42.53249" lon="0.53669">
        <ele>1993.5</ele>
        <time>2015-02-09T14:49:23Z</time>
      </trkpt>
      <trkpt lat="42.53235" lon="0.53667">
        <ele>1995.8</ele>
        <time>2015-02-09T14:49:23Z</time>
      </trkpt>
      <trkpt lat="42.53215" lon="0.5366">
        <ele>1997</ele>
        <time>2015-02-09T14:49:23Z</time>
      </trkpt>
      <trkpt lat="42.53193" lon="0.53653">
        <ele>1998.9</ele>
        <time>2015-02-09T14:49:23Z</time>
      </trkpt>
      <trkpt lat="42.53172" lon="0.5365">
        <ele>2002</ele>
        <time>2015-02-09T14:49:23Z</time>
      </trkpt>
      <trkpt lat="42.53153" lon="0.53646">
        <ele>2004.4</ele>
        <time>2015-02-09T14:49:23Z</time>
      </trkpt>
      <trkpt lat="42.53137" lon="0.53641">
        <ele>2005.9</ele>
        <time>2015-02-09T14:49:23Z</time>
      </trkpt>
      <trkpt lat="42.53123" lon="0.53635">
        <ele>2006.4</ele>
        <time>2015-02-09T14:49:23Z</time>
      </trkpt>
      <trkpt lat="42.53105" lon="0.53625">
        <ele>2006.1</ele>
        <time>2015-02-09T14:49:23Z</time>
      </trkpt>
      <trkpt lat="42.53087" lon="0.53617">
        <ele>2006.7</ele>
        <time>2015-02-09T14:49:23Z</time>
      </trkpt>
      <trkpt lat="42.53071" lon="0.53609">
        <ele>2007.5</ele>
        <time>2015-02-09T14:49:23Z</time>
      </trkpt>
      <trkpt lat="42.53054" lon="0.53599">
        <ele>2007.9</ele>
        <time>2015-02-09T14:49:23Z</time>
      </trkpt>
      <trkpt lat="42.53037" lon="0.53589">
        <ele>2008.6</ele>
        <time>2015-02-09T14:49:23Z</time>
      </trkpt>
      <trkpt lat="42.53022" lon="0.53582">
        <ele>2009.4</ele>
        <time>2015-02-09T14:49:23Z</time>
      </trkpt>
      <trkpt lat="42.53007" lon="0.53574">
        <ele>2010.6</ele>
        <time>2015-02-09T14:49:23Z</time>
      </trkpt>
      <trkpt lat="42.52989" lon="0.53564">
        <ele>2012.5</ele>
        <time>2015-02-09T14:49:23Z</time>
      </trkpt>
      <trkpt lat="42.52971" lon="0.53554">
        <ele>2014.5</ele>
        <time>2015-02-09T14:49:23Z</time>
      </trkpt>
      <trkpt lat="42.52955" lon="0.53549">
        <ele>2017.6</ele>
        <time>2015-02-09T14:49:23Z</time>
      </trkpt>
      <trkpt lat="42.52937" lon="0.53543">
        <ele>2021.1</ele>
        <time>2015-02-09T14:49:23Z</time>
      </trkpt>
      <trkpt lat="42.52919" lon="0.53541">
        <ele>2026.2</ele>
        <time>2015-02-09T14:49:23Z</time>
      </trkpt>
      <trkpt lat="42.52904" lon="0.53549">
        <ele>2031.3</ele>
        <time>2015-02-09T14:49:23Z</time>
      </trkpt>
      <trkpt lat="42.52893" lon="0.5356">
        <ele>2036.4</ele>
        <time>2015-02-09T14:49:23Z</time>
      </trkpt>
      <trkpt lat="42.52885" lon="0.53572">
        <ele>2041</ele>
        <time>2015-02-09T14:49:23Z</time>
      </trkpt>
      <trkpt lat="42.52874" lon="0.53585">
        <ele>2046.5</ele>
        <time>2015-02-09T14:49:23Z</time>
      </trkpt>
      <trkpt lat="42.52865" lon="0.53595">
        <ele>2050.8</ele>
        <time>2015-02-09T14:49:23Z</time>
      </trkpt>
      <trkpt lat="42.52854" lon="0.53611">
        <ele>2057.7</ele>
        <time>2015-02-09T14:49:23Z</time>
      </trkpt>
      <trkpt lat="42.52845" lon="0.53624">
        <ele>2062.9</ele>
        <time>2015-02-09T14:49:23Z</time>
      </trkpt>
      <trkpt lat="42.52834" lon="0.53638">
        <ele>2068.2</ele>
        <time>2015-02-09T14:49:23Z</time>
      </trkpt>
      <trkpt lat="42.52826" lon="0.53651">
        <ele>2070.8</ele>
        <time>2015-02-09T14:49:23Z</time>
      </trkpt>
      <trkpt lat="42.52819" lon="0.53665">
        <ele>2073.4</ele>
        <time>2015-02-09T14:49:23Z</time>
      </trkpt>
      <trkpt lat="42.52817" lon="0.53674">
        <ele>2074.7</ele>
        <time>2015-02-09T14:49:23Z</time>
      </trkpt>
      <trkpt lat="42.52815" lon="0.53677">
        <ele>2074.6</ele>
        <time>2015-02-09T14:49:23Z</time>
      </trkpt>
      <trkpt lat="42.52812" lon="0.53697">
        <ele>2076.9</ele>
        <time>2015-02-09T14:49:23Z</time>
      </trkpt>
      <trkpt lat="42.52808" lon="0.53718">
        <ele>2078.9</ele>
        <time>2015-02-09T14:49:23Z</time>
      </trkpt>
      <trkpt lat="42.52805" lon="0.53734">
        <ele>2080.3</ele>
        <time>2015-02-09T14:49:23Z</time>
      </trkpt>
      <trkpt lat="42.52798" lon="0.5375">
        <ele>2080.9</ele>
        <time>2015-02-09T14:49:23Z</time>
      </trkpt>
      <trkpt lat="42.52791" lon="0.53767">
        <ele>2081.8</ele>
        <time>2015-02-09T14:49:23Z</time>
      </trkpt>
      <trkpt lat="42.52785" lon="0.5378">
        <ele>2082.1</ele>
        <time>2015-02-09T14:49:23Z</time>
      </trkpt>
      <trkpt lat="42.52779" lon="0.53797">
        <ele>2082.8</ele>
        <time>2015-02-09T14:49:23Z</time>
      </trkpt>
      <trkpt lat="42.52779" lon="0.53803">
        <ele>2083.5</ele>
        <time>2015-02-09T14:49:23Z</time>
      </trkpt>
      <trkpt lat="42.52786" lon="0.53808">
        <ele>2086</ele>
        <time>2015-02-09T14:49:23Z</time>
      </trkpt>
      <trkpt lat="42.52792" lon="0.53803">
        <ele>2086.9</ele>
        <time>2015-02-09T14:49:23Z</time>
      </trkpt>
      <trkpt lat="42.52801" lon="0.53792">
        <ele>2087.8</ele>
        <time>2015-02-09T14:49:23Z</time>
      </trkpt>
      <trkpt lat="42.52812" lon="0.53786">
        <ele>2089.6</ele>
        <time>2015-02-09T14:49:23Z</time>
      </trkpt>
      <trkpt lat="42.52822" lon="0.53776">
        <ele>2090.5</ele>
        <time>2015-02-09T14:49:23Z</time>
      </trkpt>
      <trkpt lat="42.52833" lon="0.53766">
        <ele>2091.6</ele>
        <time>2015-02-09T14:49:23Z</time>
      </trkpt>
      <trkpt lat="42.52839" lon="0.53758">
        <ele>2090.4</ele>
        <time>2015-02-09T14:49:23Z</time>
      </trkpt>
      <trkpt lat="42.52849" lon="0.53746">
        <ele>2088.3</ele>
        <time>2015-02-09T14:49:23Z</time>
      </trkpt>
      <trkpt lat="42.5286" lon="0.53736">
        <ele>2086.6</ele>
        <time>2015-02-09T14:49:23Z</time>
      </trkpt>
      <trkpt lat="42.52874" lon="0.53722">
        <ele>2083.5</ele>
        <time>2015-02-09T14:49:23Z</time>
      </trkpt>
      <trkpt lat="42.52883" lon="0.53714">
        <ele>2081.5</ele>
        <time>2015-02-09T14:49:23Z</time>
      </trkpt>
      <trkpt lat="42.52898" lon="0.53711">
        <ele>2080.1</ele>
        <time>2015-02-09T14:49:23Z</time>
      </trkpt>
      <trkpt lat="42.52912" lon="0.53709">
        <ele>2078.7</ele>
        <time>2015-02-09T14:49:23Z</time>
      </trkpt>
      <trkpt lat="42.52924" lon="0.53708">
        <ele>2076.9</ele>
        <time>2015-02-09T14:49:23Z</time>
      </trkpt>
      <trkpt lat="42.52933" lon="0.53711">
        <ele>2076.5</ele>
        <time>2015-02-09T14:49:23Z</time>
      </trkpt>
      <trkpt lat="42.52943" lon="0.53714">
        <ele>2075.8</ele>
        <time>2015-02-09T14:49:23Z</time>
      </trkpt>
      <trkpt lat="42.52954" lon="0.5372">
        <ele>2075.7</ele>
        <time>2015-02-09T14:49:23Z</time>
      </trkpt>
      <trkpt lat="42.52964" lon="0.53727">
        <ele>2076.7</ele>
        <time>2015-02-09T14:49:23Z</time>
      </trkpt>
      <trkpt lat="42.52974" lon="0.53738">
        <ele>2078.7</ele>
        <time>2015-02-09T14:49:23Z</time>
      </trkpt>
      <trkpt lat="42.52985" lon="0.53752">
        <ele>2082.1</ele>
        <time>2015-02-09T14:49:23Z</time>
      </trkpt>
      <trkpt lat="42.52994" lon="0.53763">
        <ele>2083.6</ele>
        <time>2015-02-09T14:49:23Z</time>
      </trkpt>
      <trkpt lat="42.53004" lon="0.53772">
        <ele>2084.7</ele>
        <time>2015-02-09T14:49:23Z</time>
      </trkpt>
      <trkpt lat="42.5302" lon="0.53781">
        <ele>2085.5</ele>
        <time>2015-02-09T14:49:23Z</time>
      </trkpt>
      <trkpt lat="42.53032" lon="0.53786">
        <ele>2085.9</ele>
        <time>2015-02-09T14:49:23Z</time>
      </trkpt>
      <trkpt lat="42.53047" lon="0.53794">
        <ele>2087.2</ele>
        <time>2015-02-09T14:49:23Z</time>
      </trkpt>
      <trkpt lat="42.53061" lon="0.53801">
        <ele>2089</ele>
        <time>2015-02-09T14:49:23Z</time>
      </trkpt>
      <trkpt lat="42.53072" lon="0.53806">
        <ele>2089.9</ele>
        <time>2015-02-09T14:49:23Z</time>
      </trkpt>
      <trkpt lat="42.53078" lon="0.53816">
        <ele>2093.7</ele>
        <time>2015-02-09T14:49:23Z</time>
      </trkpt>
      <trkpt lat="42.53078" lon="0.53818">
        <ele>2094.8</ele>
        <time>2015-02-09T14:49:23Z</time>
      </trkpt>
      <trkpt lat="42.53069" lon="0.53824">
        <ele>2097</ele>
        <time>2015-02-09T14:49:23Z</time>
      </trkpt>
      <trkpt lat="42.53068" lon="0.53824">
        <ele>2097</ele>
        <time>2015-02-09T14:49:23Z</time>
      </trkpt>
      <trkpt lat="42.53054" lon="0.53826">
        <ele>2098.2</ele>
        <time>2015-02-09T14:49:23Z</time>
      </trkpt>
      <trkpt lat="42.53053" lon="0.53826">
        <ele>2098.3</ele>
        <time>2015-02-09T14:49:23Z</time>
      </trkpt>
      <trkpt lat="42.53047" lon="0.5383">
        <ele>2099.7</ele>
        <time>2015-02-09T14:49:23Z</time>
      </trkpt>
      <trkpt lat="42.53034" lon="0.53839">
        <ele>2102.6</ele>
        <time>2015-02-09T14:49:23Z</time>
      </trkpt>
      <trkpt lat="42.53018" lon="0.53851">
        <ele>2106.1</ele>
        <time>2015-02-09T14:49:23Z</time>
      </trkpt>
      <trkpt lat="42.53002" lon="0.53862">
        <ele>2108.9</ele>
        <time>2015-02-09T14:49:23Z</time>
      </trkpt>
      <trkpt lat="42.52985" lon="0.53873">
        <ele>2112</ele>
        <time>2015-02-09T14:49:23Z</time>
      </trkpt>
      <trkpt lat="42.52969" lon="0.53883">
        <ele>2114.2</ele>
        <time>2015-02-09T14:49:23Z</time>
      </trkpt>
      <trkpt lat="42.52959" lon="0.53895">
        <ele>2116.5</ele>
        <time>2015-02-09T14:49:23Z</time>
      </trkpt>
      <trkpt lat="42.52953" lon="0.53914">
        <ele>2120.2</ele>
        <time>2015-02-09T14:49:23Z</time>
      </trkpt>
      <trkpt lat="42.52946" lon="0.53932">
        <ele>2122.5</ele>
        <time>2015-02-09T14:49:23Z</time>
      </trkpt>
      <trkpt lat="42.52941" lon="0.53946">
        <ele>2123.9</ele>
        <time>2015-02-09T14:49:23Z</time>
      </trkpt>
      <trkpt lat="42.52936" lon="0.53963">
        <ele>2125.5</ele>
        <time>2015-02-09T14:49:23Z</time>
      </trkpt>
      <trkpt lat="42.5293" lon="0.5398">
        <ele>2126.8</ele>
        <time>2015-02-09T14:49:23Z</time>
      </trkpt>
      <trkpt lat="42.52926" lon="0.54006">
        <ele>2129.1</ele>
        <time>2015-02-09T14:49:23Z</time>
      </trkpt>
      <trkpt lat="42.52927" lon="0.5404">
        <ele>2132.3</ele>
        <time>2015-02-09T14:49:23Z</time>
      </trkpt>
      <trkpt lat="42.52931" lon="0.5408">
        <ele>2136.9</ele>
        <time>2015-02-09T14:49:23Z</time>
      </trkpt>
      <trkpt lat="42.5294" lon="0.5412">
        <ele>2139.8</ele>
        <time>2015-02-09T14:49:23Z</time>
      </trkpt>
      <trkpt lat="42.52952" lon="0.54159">
        <ele>2143.7</ele>
        <time>2015-02-09T14:49:23Z</time>
      </trkpt>
      <trkpt lat="42.52969" lon="0.54207">
        <ele>2147.9</ele>
        <time>2015-02-09T14:49:23Z</time>
      </trkpt>
      <trkpt lat="42.52985" lon="0.54261">
        <ele>2152.8</ele>
        <time>2015-02-09T14:49:23Z</time>
      </trkpt>
      <trkpt lat="42.52997" lon="0.54316">
        <ele>2154.8</ele>
        <time>2015-02-09T14:49:23Z</time>
      </trkpt>
      <trkpt lat="42.53006" lon="0.54349">
        <ele>2156.8</ele>
        <time>2015-02-09T14:49:23Z</time>
      </trkpt>
      <trkpt lat="42.53011" lon="0.54365">
        <ele>2158</ele>
        <time>2015-02-09T14:49:23Z</time>
      </trkpt>
      <trkpt lat="42.53017" lon="0.54398">
        <ele>2158.9</ele>
        <time>2015-02-09T14:49:23Z</time>
      </trkpt>
      <trkpt lat="42.53018" lon="0.54423">
        <ele>2158</ele>
        <time>2015-02-09T14:49:23Z</time>
      </trkpt>
      <trkpt lat="42.53026" lon="0.54464">
        <ele>2158.4</ele>
        <time>2015-02-09T14:49:23Z</time>
      </trkpt>
      <trkpt lat="42.53029" lon="0.54484">
        <ele>2158.5</ele>
        <time>2015-02-09T14:49:23Z</time>
      </trkpt>
      <trkpt lat="42.53032" lon="0.54507">
        <ele>2158.5</ele>
        <time>2015-02-09T14:49:23Z</time>
      </trkpt>
      <trkpt lat="42.53032" lon="0.54528">
        <ele>2157.9</ele>
        <time>2015-02-09T14:49:23Z</time>
      </trkpt>
      <trkpt lat="42.53036" lon="0.54572">
        <ele>2158.2</ele>
        <time>2015-02-09T14:49:23Z</time>
      </trkpt>
      <trkpt lat="42.53036" lon="0.54583">
        <ele>2157.9</ele>
        <time>2015-02-09T14:49:23Z</time>
      </trkpt>
      <trkpt lat="42.53029" lon="0.54609">
        <ele>2155</ele>
        <time>2015-02-09T14:49:23Z</time>
      </trkpt>
      <trkpt lat="42.53023" lon="0.54618">
        <ele>2152.8</ele>
        <time>2015-02-09T14:49:23Z</time>
      </trkpt>
      <trkpt lat="42.53009" lon="0.54622">
        <ele>2147.7</ele>
        <time>2015-02-09T14:49:23Z</time>
      </trkpt>
      <trkpt lat="42.53001" lon="0.54619">
        <ele>2144.9</ele>
        <time>2015-02-09T14:49:23Z</time>
      </trkpt>
      <trkpt lat="42.52978" lon="0.54612">
        <ele>2137.6</ele>
        <time>2015-02-09T14:49:23Z</time>
      </trkpt>
      <trkpt lat="42.5295" lon="0.54616">
        <ele>2129.8</ele>
        <time>2015-02-09T14:49:23Z</time>
      </trkpt>
      <trkpt lat="42.52939" lon="0.54635">
        <ele>2128.3</ele>
        <time>2015-02-09T14:49:23Z</time>
      </trkpt>
      <trkpt lat="42.52927" lon="0.54683">
        <ele>2131.4</ele>
        <time>2015-02-09T14:49:23Z</time>
      </trkpt>
      <trkpt lat="42.52918" lon="0.54717">
        <ele>2135.9</ele>
        <time>2015-02-09T14:49:23Z</time>
      </trkpt>
      <trkpt lat="42.52916" lon="0.54727">
        <ele>2137.4</ele>
        <time>2015-02-09T14:49:23Z</time>
      </trkpt>
      <trkpt lat="42.52913" lon="0.54743">
        <ele>2139.6</ele>
        <time>2015-02-09T14:49:23Z</time>
      </trkpt>
      <trkpt lat="42.52913" lon="0.54796">
        <ele>2143.8</ele>
        <time>2015-02-09T14:49:23Z</time>
      </trkpt>
      <trkpt lat="42.52913" lon="0.54834">
        <ele>2146.1</ele>
        <time>2015-02-09T14:49:23Z</time>
      </trkpt>
      <trkpt lat="42.52908" lon="0.54861">
        <ele>2146.1</ele>
        <time>2015-02-09T14:49:23Z</time>
      </trkpt>
      <trkpt lat="42.52884" lon="0.54899">
        <ele>2141.2</ele>
        <time>2015-02-09T14:49:23Z</time>
      </trkpt>
      <trkpt lat="42.52879" lon="0.54909">
        <ele>2140.4</ele>
        <time>2015-02-09T14:49:23Z</time>
      </trkpt>
      <trkpt lat="42.52875" lon="0.54919">
        <ele>2139.9</ele>
        <time>2015-02-09T14:49:23Z</time>
      </trkpt>
      <trkpt lat="42.5286" lon="0.54978">
        <ele>2144.8</ele>
        <time>2015-02-09T14:49:23Z</time>
      </trkpt>
      <trkpt lat="42.52856" lon="0.54997">
        <ele>2146.7</ele>
        <time>2015-02-09T14:49:23Z</time>
      </trkpt>
      <trkpt lat="42.52845" lon="0.55035">
        <ele>2147.4</ele>
        <time>2015-02-09T14:49:23Z</time>
      </trkpt>
      <trkpt lat="42.52834" lon="0.55065">
        <ele>2146.9</ele>
        <time>2015-02-09T14:49:23Z</time>
      </trkpt>
      <trkpt lat="42.52827" lon="0.5507">
        <ele>2145.2</ele>
        <time>2015-02-09T14:49:23Z</time>
      </trkpt>
      <trkpt lat="42.52802" lon="0.55076">
        <ele>2138.6</ele>
        <time>2015-02-09T14:49:23Z</time>
      </trkpt>
      <trkpt lat="42.52767" lon="0.55073">
        <ele>2128.2</ele>
        <time>2015-02-09T14:49:23Z</time>
      </trkpt>
      <trkpt lat="42.52731" lon="0.55073">
        <ele>2122.4</ele>
        <time>2015-02-09T14:49:23Z</time>
      </trkpt>
      <trkpt lat="42.52698" lon="0.55068">
        <ele>2119.7</ele>
        <time>2015-02-09T14:49:23Z</time>
      </trkpt>
      <trkpt lat="42.52665" lon="0.55054">
        <ele>2113.7</ele>
        <time>2015-02-09T14:49:23Z</time>
      </trkpt>
      <trkpt lat="42.52614" lon="0.55048">
        <ele>2111.4</ele>
        <time>2015-02-09T14:49:23Z</time>
      </trkpt>
      <trkpt lat="42.52609" lon="0.55047">
        <ele>2111.4</ele>
        <time>2015-02-09T14:49:23Z</time>
      </trkpt>
      <trkpt lat="42.52593" lon="0.55044">
        <ele>2110</ele>
        <time>2015-02-09T14:49:23Z</time>
      </trkpt>
      <trkpt lat="42.52549" lon="0.55028">
        <ele>2105.2</ele>
        <time>2015-02-09T14:49:23Z</time>
      </trkpt>
      <trkpt lat="42.52514" lon="0.5502">
        <ele>2102.8</ele>
        <time>2015-02-09T14:49:23Z</time>
      </trkpt>
      <trkpt lat="42.5251" lon="0.5502">
        <ele>2102.8</ele>
        <time>2015-02-09T14:49:23Z</time>
      </trkpt>
      <trkpt lat="42.52474" lon="0.55009">
        <ele>2100.2</ele>
        <time>2015-02-09T14:49:23Z</time>
      </trkpt>
      <trkpt lat="42.52456" lon="0.55006">
        <ele>2100.5</ele>
        <time>2015-02-09T14:49:23Z</time>
      </trkpt>
      <trkpt lat="42.52433" lon="0.55012">
        <ele>2105.2</ele>
        <time>2015-02-09T14:49:23Z</time>
      </trkpt>
      <trkpt lat="42.52422" lon="0.55024">
        <ele>2111.7</ele>
        <time>2015-02-09T14:49:23Z</time>
      </trkpt>
      <trkpt lat="42.52413" lon="0.55035">
        <ele>2116.8</ele>
        <time>2015-02-09T14:49:23Z</time>
      </trkpt>
      <trkpt lat="42.52397" lon="0.55051">
        <ele>2123.4</ele>
        <time>2015-02-09T14:49:23Z</time>
      </trkpt>
      <trkpt lat="42.52384" lon="0.55059">
        <ele>2126.2</ele>
        <time>2015-02-09T14:49:23Z</time>
      </trkpt>
      <trkpt lat="42.52347" lon="0.55074">
        <ele>2130.9</ele>
        <time>2015-02-09T14:49:23Z</time>
      </trkpt>
      <trkpt lat="42.52313" lon="0.55096">
        <ele>2133.6</ele>
        <time>2015-02-09T14:49:23Z</time>
      </trkpt>
      <trkpt lat="42.52278" lon="0.55121">
        <ele>2131.8</ele>
        <time>2015-02-09T14:49:23Z</time>
      </trkpt>
      <trkpt lat="42.52216" lon="0.55173">
        <ele>2129.1</ele>
        <time>2015-02-09T14:49:23Z</time>
      </trkpt>
      <trkpt lat="42.52188" lon="0.55204">
        <ele>2124.6</ele>
        <time>2015-02-09T14:49:23Z</time>
      </trkpt>
      <trkpt lat="42.52176" lon="0.55234">
        <ele>2127.9</ele>
        <time>2015-02-09T14:49:23Z</time>
      </trkpt>
      <trkpt lat="42.52175" lon="0.55244">
        <ele>2130.7</ele>
        <time>2015-02-09T14:49:23Z</time>
      </trkpt>
      <trkpt lat="42.52175" lon="0.55313">
        <ele>2144.3</ele>
        <time>2015-02-09T14:49:23Z</time>
      </trkpt>
      <trkpt lat="42.52172" lon="0.5537">
        <ele>2147.5</ele>
        <time>2015-02-09T14:49:23Z</time>
      </trkpt>
      <trkpt lat="42.52167" lon="0.55434">
        <ele>2145.7</ele>
        <time>2015-02-09T14:49:23Z</time>
      </trkpt>
      <trkpt lat="42.52159" lon="0.55505">
        <ele>2140.7</ele>
        <time>2015-02-09T14:49:23Z</time>
      </trkpt>
      <trkpt lat="42.52155" lon="0.55527">
        <ele>2138.6</ele>
        <time>2015-02-09T14:49:23Z</time>
      </trkpt>
      <trkpt lat="42.52144" lon="0.55558">
        <ele>2132.8</ele>
        <time>2015-02-09T14:49:23Z</time>
      </trkpt>
      <trkpt lat="42.52134" lon="0.55588">
        <ele>2128.2</ele>
        <time>2015-02-09T14:49:23Z</time>
      </trkpt>
      <trkpt lat="42.52125" lon="0.55645">
        <ele>2125.9</ele>
        <time>2015-02-09T14:49:23Z</time>
      </trkpt>
      <trkpt lat="42.52123" lon="0.55686">
        <ele>2126.9</ele>
        <time>2015-02-09T14:49:23Z</time>
      </trkpt>
      <trkpt lat="42.52119" lon="0.55714">
        <ele>2126.7</ele>
        <time>2015-02-09T14:49:23Z</time>
      </trkpt>
      <trkpt lat="42.52118" lon="0.55719">
        <ele>2126.5</ele>
        <time>2015-02-09T14:49:23Z</time>
      </trkpt>
      <trkpt lat="42.52115" lon="0.55751">
        <ele>2126.9</ele>
        <time>2015-02-09T14:49:23Z</time>
      </trkpt>
      <trkpt lat="42.52112" lon="0.55787">
        <ele>2127.5</ele>
        <time>2015-02-09T14:49:23Z</time>
      </trkpt>
      <trkpt lat="42.52112" lon="0.55815">
        <ele>2129.3</ele>
        <time>2015-02-09T14:49:23Z</time>
      </trkpt>
      <trkpt lat="42.52114" lon="0.55836">
        <ele>2132</ele>
        <time>2015-02-09T14:49:23Z</time>
      </trkpt>
      <trkpt lat="42.52114" lon="0.55863">
        <ele>2135.5</ele>
        <time>2015-02-09T14:49:23Z</time>
      </trkpt>
      <trkpt lat="42.52111" lon="0.55884">
        <ele>2136.7</ele>
        <time>2015-02-09T14:49:23Z</time>
      </trkpt>
      <trkpt lat="42.52104" lon="0.55916">
        <ele>2137.2</ele>
        <time>2015-02-09T14:49:23Z</time>
      </trkpt>
      <trkpt lat="42.52094" lon="0.55946">
        <ele>2136.2</ele>
        <time>2015-02-09T14:49:23Z</time>
      </trkpt>
      <trkpt lat="42.5209" lon="0.55969">
        <ele>2137.5</ele>
        <time>2015-02-09T14:49:23Z</time>
      </trkpt>
      <trkpt lat="42.52092" lon="0.55985">
        <ele>2140.9</ele>
        <time>2015-02-09T14:49:23Z</time>
      </trkpt>
      <trkpt lat="42.5209" lon="0.56001">
        <ele>2142.1</ele>
        <time>2015-02-09T14:49:23Z</time>
      </trkpt>
      <trkpt lat="42.52079" lon="0.56018">
        <ele>2138.1</ele>
        <time>2015-02-09T14:49:23Z</time>
      </trkpt>
      <trkpt lat="42.52077" lon="0.56034">
        <ele>2139.2</ele>
        <time>2015-02-09T14:49:23Z</time>
      </trkpt>
      <trkpt lat="42.52079" lon="0.56065">
        <ele>2144.1</ele>
        <time>2015-02-09T14:49:23Z</time>
      </trkpt>
      <trkpt lat="42.52079" lon="0.56086">
        <ele>2146.9</ele>
        <time>2015-02-09T14:49:23Z</time>
      </trkpt>
      <trkpt lat="42.5208" lon="0.56106">
        <ele>2149.6</ele>
        <time>2015-02-09T14:49:23Z</time>
      </trkpt>
      <trkpt lat="42.5208" lon="0.56129">
        <ele>2152.1</ele>
        <time>2015-02-09T14:49:23Z</time>
      </trkpt>
      <trkpt lat="42.52079" lon="0.56146">
        <ele>2153.4</ele>
        <time>2015-02-09T14:49:23Z</time>
      </trkpt>
      <trkpt lat="42.52073" lon="0.56168">
        <ele>2152.1</ele>
        <time>2015-02-09T14:49:23Z</time>
      </trkpt>
      <trkpt lat="42.52072" lon="0.56188">
        <ele>2153.3</ele>
        <time>2015-02-09T14:49:23Z</time>
      </trkpt>
      <trkpt lat="42.52075" lon="0.56209">
        <ele>2157.1</ele>
        <time>2015-02-09T14:49:23Z</time>
      </trkpt>
      <trkpt lat="42.52076" lon="0.56231">
        <ele>2159.8</ele>
        <time>2015-02-09T14:49:23Z</time>
      </trkpt>
      <trkpt lat="42.52074" lon="0.56246">
        <ele>2159.8</ele>
        <time>2015-02-09T14:49:23Z</time>
      </trkpt>
      <trkpt lat="42.52078" lon="0.56262">
        <ele>2163.4</ele>
        <time>2015-02-09T14:49:23Z</time>
      </trkpt>
      <trkpt lat="42.52079" lon="0.56283">
        <ele>2165.1</ele>
        <time>2015-02-09T14:49:23Z</time>
      </trkpt>
      <trkpt lat="42.52074" lon="0.56295">
        <ele>2162.7</ele>
        <time>2015-02-09T14:49:23Z</time>
      </trkpt>
      <trkpt lat="42.5207" lon="0.56309">
        <ele>2161</ele>
        <time>2015-02-09T14:49:23Z</time>
      </trkpt>
      <trkpt lat="42.52074" lon="0.56328">
        <ele>2164.4</ele>
        <time>2015-02-09T14:49:23Z</time>
      </trkpt>
      <trkpt lat="42.52078" lon="0.56348">
        <ele>2167.4</ele>
        <time>2015-02-09T14:49:23Z</time>
      </trkpt>
      <trkpt lat="42.5208" lon="0.56366">
        <ele>2168.8</ele>
        <time>2015-02-09T14:49:23Z</time>
      </trkpt>
      <trkpt lat="42.52074" lon="0.56379">
        <ele>2166.1</ele>
        <time>2015-02-09T14:49:23Z</time>
      </trkpt>
      <trkpt lat="42.52062" lon="0.56387">
        <ele>2160.4</ele>
        <time>2015-02-09T14:49:23Z</time>
      </trkpt>
      <trkpt lat="42.52052" lon="0.56395">
        <ele>2156</ele>
        <time>2015-02-09T14:49:23Z</time>
      </trkpt>
      <trkpt lat="42.52042" lon="0.56407">
        <ele>2152.4</ele>
        <time>2015-02-09T14:49:23Z</time>
      </trkpt>
      <trkpt lat="42.52038" lon="0.56421">
        <ele>2152.3</ele>
        <time>2015-02-09T14:49:23Z</time>
      </trkpt>
      <trkpt lat="42.52038" lon="0.56433">
        <ele>2154.6</ele>
        <time>2015-02-09T14:49:23Z</time>
      </trkpt>
      <trkpt lat="42.52037" lon="0.56448">
        <ele>2157.2</ele>
        <time>2015-02-09T14:49:23Z</time>
      </trkpt>
      <trkpt lat="42.52032" lon="0.56463">
        <ele>2157.8</ele>
        <time>2015-02-09T14:49:23Z</time>
      </trkpt>
      <trkpt lat="42.52025" lon="0.56478">
        <ele>2157.7</ele>
        <time>2015-02-09T14:49:23Z</time>
      </trkpt>
      <trkpt lat="42.5202" lon="0.5649">
        <ele>2157.9</ele>
        <time>2015-02-09T14:49:23Z</time>
      </trkpt>
      <trkpt lat="42.52015" lon="0.56502">
        <ele>2158.1</ele>
        <time>2015-02-09T14:49:23Z</time>
      </trkpt>
      <trkpt lat="42.52011" lon="0.56519">
        <ele>2160.5</ele>
        <time>2015-02-09T14:49:23Z</time>
      </trkpt>
      <trkpt lat="42.52007" lon="0.56534">
        <ele>2162.7</ele>
        <time>2015-02-09T14:49:23Z</time>
      </trkpt>
      <trkpt lat="42.52003" lon="0.56547">
        <ele>2164.3</ele>
        <time>2015-02-09T14:49:23Z</time>
      </trkpt>
      <trkpt lat="42.51999" lon="0.56563">
        <ele>2166.5</ele>
        <time>2015-02-09T14:49:23Z</time>
      </trkpt>
      <trkpt lat="42.51991" lon="0.56577">
        <ele>2167.2</ele>
        <time>2015-02-09T14:49:23Z</time>
      </trkpt>
      <trkpt lat="42.51986" lon="0.56589">
        <ele>2168.3</ele>
        <time>2015-02-09T14:49:23Z</time>
      </trkpt>
      <trkpt lat="42.51982" lon="0.56601">
        <ele>2169.5</ele>
        <time>2015-02-09T14:49:23Z</time>
      </trkpt>
      <trkpt lat="42.51977" lon="0.56613">
        <ele>2170.4</ele>
        <time>2015-02-09T14:49:23Z</time>
      </trkpt>
      <trkpt lat="42.51972" lon="0.56629">
        <ele>2172.5</ele>
        <time>2015-02-09T14:49:23Z</time>
      </trkpt>
      <trkpt lat="42.51965" lon="0.56646">
        <ele>2173.9</ele>
        <time>2015-02-09T14:49:23Z</time>
      </trkpt>
      <trkpt lat="42.51959" lon="0.56662">
        <ele>2175.3</ele>
        <time>2015-02-09T14:49:23Z</time>
      </trkpt>
      <trkpt lat="42.51955" lon="0.56679">
        <ele>2176.2</ele>
        <time>2015-02-09T14:49:23Z</time>
      </trkpt>
      <trkpt lat="42.51952" lon="0.56696">
        <ele>2177</ele>
        <time>2015-02-09T14:49:23Z</time>
      </trkpt>
      <trkpt lat="42.51949" lon="0.56711">
        <ele>2177.7</ele>
        <time>2015-02-09T14:49:23Z</time>
      </trkpt>
      <trkpt lat="42.51946" lon="0.5673">
        <ele>2178.7</ele>
        <time>2015-02-09T14:49:23Z</time>
      </trkpt>
      <trkpt lat="42.51944" lon="0.5674">
        <ele>2179.1</ele>
        <time>2015-02-09T14:49:23Z</time>
      </trkpt>
      <trkpt lat="42.51942" lon="0.56754">
        <ele>2179.6</ele>
        <time>2015-02-09T14:49:23Z</time>
      </trkpt>
      <trkpt lat="42.5194" lon="0.56767">
        <ele>2178.8</ele>
        <time>2015-02-09T14:49:23Z</time>
      </trkpt>
      <trkpt lat="42.51935" lon="0.56778">
        <ele>2177.1</ele>
        <time>2015-02-09T14:49:23Z</time>
      </trkpt>
      <trkpt lat="42.51927" lon="0.5678">
        <ele>2174.2</ele>
        <time>2015-02-09T14:49:23Z</time>
      </trkpt>
      <trkpt lat="42.51915" lon="0.56774">
        <ele>2169.9</ele>
        <time>2015-02-09T14:49:23Z</time>
      </trkpt>
      <trkpt lat="42.51912" lon="0.56773">
        <ele>2169.1</ele>
        <time>2015-02-09T14:49:23Z</time>
      </trkpt>
      <trkpt lat="42.51903" lon="0.56783">
        <ele>2167</ele>
        <time>2015-02-09T14:49:23Z</time>
      </trkpt>
      <trkpt lat="42.519" lon="0.56783">
        <ele>2166.2</ele>
        <time>2015-02-09T14:49:23Z</time>
      </trkpt>
      <trkpt lat="42.519" lon="0.56782">
        <ele>2166.1</ele>
        <time>2015-02-09T14:49:23Z</time>
      </trkpt>
      <trkpt lat="42.51892" lon="0.56778">
        <ele>2164</ele>
        <time>2015-02-09T14:49:23Z</time>
      </trkpt>
      <trkpt lat="42.5189" lon="0.56776">
        <ele>2163.4</ele>
        <time>2015-02-09T14:49:23Z</time>
      </trkpt>
      <trkpt lat="42.51871" lon="0.56773">
        <ele>2158.1</ele>
        <time>2015-02-09T14:49:23Z</time>
      </trkpt>
      <trkpt lat="42.51857" lon="0.56776">
        <ele>2154.5</ele>
        <time>2015-02-09T14:49:23Z</time>
      </trkpt>
      <trkpt lat="42.51847" lon="0.56784">
        <ele>2152.5</ele>
        <time>2015-02-09T14:49:23Z</time>
      </trkpt>
      <trkpt lat="42.51841" lon="0.56787">
        <ele>2151.1</ele>
        <time>2015-02-09T14:49:23Z</time>
      </trkpt>
      <trkpt lat="42.51832" lon="0.56787">
        <ele>2148.9</ele>
        <time>2015-02-09T14:49:23Z</time>
      </trkpt>
      <trkpt lat="42.51812" lon="0.56781">
        <ele>2145.3</ele>
        <time>2015-02-09T14:49:23Z</time>
      </trkpt>
      <trkpt lat="42.51794" lon="0.56778">
        <ele>2142.1</ele>
        <time>2015-02-09T14:49:23Z</time>
      </trkpt>
      <trkpt lat="42.51779" lon="0.56771">
        <ele>2138.2</ele>
        <time>2015-02-09T14:49:23Z</time>
      </trkpt>
      <trkpt lat="42.51755" lon="0.56768">
        <ele>2132.9</ele>
        <time>2015-02-09T14:49:23Z</time>
      </trkpt>
      <trkpt lat="42.5174" lon="0.56769">
        <ele>2130.3</ele>
        <time>2015-02-09T14:49:23Z</time>
      </trkpt>
      <trkpt lat="42.51724" lon="0.56769">
        <ele>2127.1</ele>
        <time>2015-02-09T14:49:23Z</time>
      </trkpt>
      <trkpt lat="42.5171" lon="0.56769">
        <ele>2124.3</ele>
        <time>2015-02-09T14:49:23Z</time>
      </trkpt>
      <trkpt lat="42.5169" lon="0.56768">
        <ele>2119.9</ele>
        <time>2015-02-09T14:49:23Z</time>
      </trkpt>
      <trkpt lat="42.51676" lon="0.56771">
        <ele>2118.2</ele>
        <time>2015-02-09T14:49:23Z</time>
      </trkpt>
      <trkpt lat="42.51655" lon="0.56778">
        <ele>2116</ele>
        <time>2015-02-09T14:49:23Z</time>
      </trkpt>
      <trkpt lat="42.51643" lon="0.56784">
        <ele>2115.8</ele>
        <time>2015-02-09T14:49:23Z</time>
      </trkpt>
      <trkpt lat="42.51632" lon="0.56788">
        <ele>2115</ele>
        <time>2015-02-09T14:49:23Z</time>
      </trkpt>
      <trkpt lat="42.51616" lon="0.56795">
        <ele>2114.4</ele>
        <time>2015-02-09T14:49:23Z</time>
      </trkpt>
      <trkpt lat="42.51599" lon="0.56805">
        <ele>2115.3</ele>
        <time>2015-02-09T14:49:23Z</time>
      </trkpt>
      <trkpt lat="42.51571" lon="0.56822">
        <ele>2115.6</ele>
        <time>2015-02-09T14:49:23Z</time>
      </trkpt>
      <trkpt lat="42.51559" lon="0.56833">
        <ele>2115.8</ele>
        <time>2015-02-09T14:49:23Z</time>
      </trkpt>
      <trkpt lat="42.51551" lon="0.5684">
        <ele>2116</ele>
        <time>2015-02-09T14:49:23Z</time>
      </trkpt>
      <trkpt lat="42.51534" lon="0.56846">
        <ele>2112.5</ele>
        <time>2015-02-09T14:49:23Z</time>
      </trkpt>
      <trkpt lat="42.51532" lon="0.56847">
        <ele>2112.4</ele>
        <time>2015-02-09T14:49:23Z</time>
      </trkpt>
      <trkpt lat="42.51523" lon="0.5685">
        <ele>2110.5</ele>
        <time>2015-02-09T14:49:23Z</time>
      </trkpt>
      <trkpt lat="42.51507" lon="0.56853">
        <ele>2107.1</ele>
        <time>2015-02-09T14:49:23Z</time>
      </trkpt>
      <trkpt lat="42.5148" lon="0.56854">
        <ele>2100</ele>
        <time>2015-02-09T14:49:23Z</time>
      </trkpt>
      <trkpt lat="42.51461" lon="0.56853">
        <ele>2095.3</ele>
        <time>2015-02-09T14:49:23Z</time>
      </trkpt>
      <trkpt lat="42.51442" lon="0.56854">
        <ele>2090.6</ele>
        <time>2015-02-09T14:49:23Z</time>
      </trkpt>
      <trkpt lat="42.51419" lon="0.56871">
        <ele>2090.6</ele>
        <time>2015-02-09T14:49:23Z</time>
      </trkpt>
      <trkpt lat="42.51393" lon="0.569">
        <ele>2092.9</ele>
        <time>2015-02-09T14:49:23Z</time>
      </trkpt>
      <trkpt lat="42.51378" lon="0.56911">
        <ele>2091.6</ele>
        <time>2015-02-09T14:49:23Z</time>
      </trkpt>
      <trkpt lat="42.51367" lon="0.56921">
        <ele>2091.5</ele>
        <time>2015-02-09T14:49:23Z</time>
      </trkpt>
      <trkpt lat="42.51365" lon="0.56924">
        <ele>2091.7</ele>
        <time>2015-02-09T14:49:23Z</time>
      </trkpt>
      <trkpt lat="42.51358" lon="0.56944">
        <ele>2095.9</ele>
        <time>2015-02-09T14:49:23Z</time>
      </trkpt>
      <trkpt lat="42.51348" lon="0.56962">
        <ele>2098.1</ele>
        <time>2015-02-09T14:49:23Z</time>
      </trkpt>
      <trkpt lat="42.51336" lon="0.56979">
        <ele>2099.4</ele>
        <time>2015-02-09T14:49:23Z</time>
      </trkpt>
      <trkpt lat="42.51334" lon="0.56984">
        <ele>2100.3</ele>
        <time>2015-02-09T14:49:23Z</time>
      </trkpt>
      <trkpt lat="42.51328" lon="0.56987">
        <ele>2099.2</ele>
        <time>2015-02-09T14:49:23Z</time>
      </trkpt>
      <trkpt lat="42.51315" lon="0.56993">
        <ele>2095.7</ele>
        <time>2015-02-09T14:49:23Z</time>
      </trkpt>
      <trkpt lat="42.51313" lon="0.56995">
        <ele>2095.8</ele>
        <time>2015-02-09T14:49:23Z</time>
      </trkpt>
      <trkpt lat="42.51307" lon="0.56992">
        <ele>2092.3</ele>
        <time>2015-02-09T14:49:23Z</time>
      </trkpt>
      <trkpt lat="42.5129" lon="0.5698">
        <ele>2082</ele>
        <time>2015-02-09T14:49:23Z</time>
      </trkpt>
      <trkpt lat="42.51287" lon="0.56978">
        <ele>2080.4</ele>
        <time>2015-02-09T14:49:23Z</time>
      </trkpt>
      <trkpt lat="42.51278" lon="0.56969">
        <ele>2074.1</ele>
        <time>2015-02-09T14:49:23Z</time>
      </trkpt>
      <trkpt lat="42.51273" lon="0.56966">
        <ele>2070.8</ele>
        <time>2015-02-09T14:49:23Z</time>
      </trkpt>
      <trkpt lat="42.51256" lon="0.56963">
        <ele>2063.3</ele>
        <time>2015-02-09T14:49:23Z</time>
      </trkpt>
      <trkpt lat="42.5124" lon="0.56958">
        <ele>2057.7</ele>
        <time>2015-02-09T14:49:23Z</time>
      </trkpt>
      <trkpt lat="42.51237" lon="0.56957">
        <ele>2057.2</ele>
        <time>2015-02-09T14:49:23Z</time>
      </trkpt>
      <trkpt lat="42.51224" lon="0.56949">
        <ele>2052.2</ele>
        <time>2015-02-09T14:49:23Z</time>
      </trkpt>
      <trkpt lat="42.51207" lon="0.56931">
        <ele>2043.7</ele>
        <time>2015-02-09T14:49:23Z</time>
      </trkpt>
      <trkpt lat="42.512" lon="0.56924">
        <ele>2039.9</ele>
        <time>2015-02-09T14:49:23Z</time>
      </trkpt>
      <trkpt lat="42.51185" lon="0.56906">
        <ele>2030.3</ele>
        <time>2015-02-09T14:49:23Z</time>
      </trkpt>
      <trkpt lat="42.51171" lon="0.56892">
        <ele>2022</ele>
        <time>2015-02-09T14:49:23Z</time>
      </trkpt>
      <trkpt lat="42.51163" lon="0.56883">
        <ele>2018</ele>
        <time>2015-02-09T14:49:23Z</time>
      </trkpt>
      <trkpt lat="42.51139" lon="0.56865">
        <ele>2017.9</ele>
        <time>2015-02-09T14:49:23Z</time>
      </trkpt>
      <trkpt lat="42.51136" lon="0.56864">
        <ele>2018.3</ele>
        <time>2015-02-09T14:49:23Z</time>
      </trkpt>
      <trkpt lat="42.51127" lon="0.56854">
        <ele>2016.8</ele>
        <time>2015-02-09T14:49:23Z</time>
      </trkpt>
      <trkpt lat="42.51123" lon="0.56849">
        <ele>2016.6</ele>
        <time>2015-02-09T14:49:23Z</time>
      </trkpt>
      <trkpt lat="42.51102" lon="0.56834">
        <ele>2017.3</ele>
        <time>2015-02-09T14:49:23Z</time>
      </trkpt>
      <trkpt lat="42.5109" lon="0.56828">
        <ele>2018.7</ele>
        <time>2015-02-09T14:49:23Z</time>
      </trkpt>
      <trkpt lat="42.51076" lon="0.56824">
        <ele>2021.5</ele>
        <time>2015-02-09T14:49:23Z</time>
      </trkpt>
      <trkpt lat="42.51052" lon="0.56808">
        <ele>2022.3</ele>
        <time>2015-02-09T14:49:23Z</time>
      </trkpt>
      <trkpt lat="42.51039" lon="0.56804">
        <ele>2024.8</ele>
        <time>2015-02-09T14:49:23Z</time>
      </trkpt>
      <trkpt lat="42.5102" lon="0.56802">
        <ele>2029.9</ele>
        <time>2015-02-09T14:49:23Z</time>
      </trkpt>
      <trkpt lat="42.51007" lon="0.56796">
        <ele>2032.1</ele>
        <time>2015-02-09T14:49:23Z</time>
      </trkpt>
      <trkpt lat="42.51003" lon="0.56797">
        <ele>2033.8</ele>
        <time>2015-02-09T14:49:23Z</time>
      </trkpt>
      <trkpt lat="42.50983" lon="0.568">
        <ele>2034.3</ele>
        <time>2015-02-09T14:49:23Z</time>
      </trkpt>
      <trkpt lat="42.5097" lon="0.56799">
        <ele>2032.5</ele>
        <time>2015-02-09T14:49:23Z</time>
      </trkpt>
      <trkpt lat="42.50964" lon="0.56798">
        <ele>2031.5</ele>
        <time>2015-02-09T14:49:23Z</time>
      </trkpt>
      <trkpt lat="42.50956" lon="0.568">
        <ele>2031.6</ele>
        <time>2015-02-09T14:49:23Z</time>
      </trkpt>
      <trkpt lat="42.50947" lon="0.568">
        <ele>2030.7</ele>
        <time>2015-02-09T14:49:23Z</time>
      </trkpt>
      <trkpt lat="42.50931" lon="0.56791">
        <ele>2026</ele>
        <time>2015-02-09T14:49:23Z</time>
      </trkpt>
      <trkpt lat="42.50916" lon="0.56779">
        <ele>2020.6</ele>
        <time>2015-02-09T14:49:23Z</time>
      </trkpt>
      <trkpt lat="42.50901" lon="0.5677">
        <ele>2014.5</ele>
        <time>2015-02-09T14:49:23Z</time>
      </trkpt>
      <trkpt lat="42.50886" lon="0.56765">
        <ele>2009.8</ele>
        <time>2015-02-09T14:49:23Z</time>
      </trkpt>
      <trkpt lat="42.50877" lon="0.56765">
        <ele>2008</ele>
        <time>2015-02-09T14:49:23Z</time>
      </trkpt>
      <trkpt lat="42.50872" lon="0.56763">
        <ele>2006.5</ele>
        <time>2015-02-09T14:49:23Z</time>
      </trkpt>
      <trkpt lat="42.50859" lon="0.56764">
        <ele>2003.9</ele>
        <time>2015-02-09T14:49:23Z</time>
      </trkpt>
      <trkpt lat="42.50848" lon="0.56767">
        <ele>2003</ele>
        <time>2015-02-09T14:49:23Z</time>
      </trkpt>
      <trkpt lat="42.50837" lon="0.56778">
        <ele>2003.8</ele>
        <time>2015-02-09T14:49:23Z</time>
      </trkpt>
      <trkpt lat="42.50827" lon="0.56784">
        <ele>2003.1</ele>
        <time>2015-02-09T14:49:23Z</time>
      </trkpt>
      <trkpt lat="42.50823" lon="0.56797">
        <ele>2005.7</ele>
        <time>2015-02-09T14:49:23Z</time>
      </trkpt>
      <trkpt lat="42.50817" lon="0.5681">
        <ele>2007.5</ele>
        <time>2015-02-09T14:49:23Z</time>
      </trkpt>
      <trkpt lat="42.50816" lon="0.56812">
        <ele>2007.5</ele>
        <time>2015-02-09T14:49:23Z</time>
      </trkpt>
      <trkpt lat="42.50813" lon="0.56808">
        <ele>2005.6</ele>
        <time>2015-02-09T14:49:23Z</time>
      </trkpt>
      <trkpt lat="42.50814" lon="0.56794">
        <ele>2002</ele>
        <time>2015-02-09T14:49:23Z</time>
      </trkpt>
      <trkpt lat="42.50815" lon="0.56776">
        <ele>1997.7</ele>
        <time>2015-02-09T14:49:23Z</time>
      </trkpt>
      <trkpt lat="42.50815" lon="0.5676">
        <ele>1993.2</ele>
        <time>2015-02-09T14:49:23Z</time>
      </trkpt>
      <trkpt lat="42.5081" lon="0.56748">
        <ele>1988.5</ele>
        <time>2015-02-09T14:49:23Z</time>
      </trkpt>
      <trkpt lat="42.50804" lon="0.56728">
        <ele>1979.5</ele>
        <time>2015-02-09T14:49:23Z</time>
      </trkpt>
      <trkpt lat="42.50803" lon="0.56724">
        <ele>1977.8</ele>
        <time>2015-02-09T14:49:23Z</time>
      </trkpt>
      <trkpt lat="42.50794" lon="0.56715">
        <ele>1973</ele>
        <time>2015-02-09T14:49:23Z</time>
      </trkpt>
      <trkpt lat="42.50792" lon="0.56701">
        <ele>1967.6</ele>
        <time>2015-02-09T14:49:23Z</time>
      </trkpt>
      <trkpt lat="42.50794" lon="0.56681">
        <ele>1960.8</ele>
        <time>2015-02-09T14:49:23Z</time>
      </trkpt>
      <trkpt lat="42.50793" lon="0.56656">
        <ele>1951.2</ele>
        <time>2015-02-09T14:49:23Z</time>
      </trkpt>
      <trkpt lat="42.50792" lon="0.56637">
        <ele>1944.4</ele>
        <time>2015-02-09T14:49:23Z</time>
      </trkpt>
      <trkpt lat="42.50789" lon="0.56621">
        <ele>1938</ele>
        <time>2015-02-09T14:49:23Z</time>
      </trkpt>
      <trkpt lat="42.50787" lon="0.56602">
        <ele>1931.1</ele>
        <time>2015-02-09T14:49:23Z</time>
      </trkpt>
      <trkpt lat="42.50788" lon="0.56577">
        <ele>1921.8</ele>
        <time>2015-02-09T14:49:23Z</time>
      </trkpt>
      <trkpt lat="42.50785" lon="0.56571">
        <ele>1919.3</ele>
        <time>2015-02-09T14:49:23Z</time>
      </trkpt>
      <trkpt lat="42.50781" lon="0.56556">
        <ele>1913.9</ele>
        <time>2015-02-09T14:49:23Z</time>
      </trkpt>
      <trkpt lat="42.5078" lon="0.56551">
        <ele>1911.9</ele>
        <time>2015-02-09T14:49:23Z</time>
      </trkpt>
      <trkpt lat="42.50777" lon="0.56521">
        <ele>1901</ele>
        <time>2015-02-09T14:49:23Z</time>
      </trkpt>
      <trkpt lat="42.50769" lon="0.56516">
        <ele>1899.9</ele>
        <time>2015-02-09T14:49:23Z</time>
      </trkpt>
      <trkpt lat="42.50768" lon="0.56503">
        <ele>1895.5</ele>
        <time>2015-02-09T14:49:23Z</time>
      </trkpt>
      <trkpt lat="42.50768" lon="0.56497">
        <ele>1893.3</ele>
        <time>2015-02-09T14:49:23Z</time>
      </trkpt>
      <trkpt lat="42.50767" lon="0.56484">
        <ele>1889.4</ele>
        <time>2015-02-09T14:49:23Z</time>
      </trkpt>
      <trkpt lat="42.50764" lon="0.56483">
        <ele>1889.5</ele>
        <time>2015-02-09T14:49:23Z</time>
      </trkpt>
      <trkpt lat="42.50758" lon="0.56482">
        <ele>1890.4</ele>
        <time>2015-02-09T14:49:23Z</time>
      </trkpt>
      <trkpt lat="42.50756" lon="0.56482">
        <ele>1890.7</ele>
        <time>2015-02-09T14:49:23Z</time>
      </trkpt>
      <trkpt lat="42.50745" lon="0.56472">
        <ele>1889.6</ele>
        <time>2015-02-09T14:49:23Z</time>
      </trkpt>
      <trkpt lat="42.50739" lon="0.56457">
        <ele>1886.7</ele>
        <time>2015-02-09T14:49:23Z</time>
      </trkpt>
      <trkpt lat="42.50735" lon="0.56444">
        <ele>1884</ele>
        <time>2015-02-09T14:49:23Z</time>
      </trkpt>
      <trkpt lat="42.50732" lon="0.5643">
        <ele>1880.9</ele>
        <time>2015-02-09T14:49:23Z</time>
      </trkpt>
      <trkpt lat="42.50726" lon="0.56412">
        <ele>1877.5</ele>
        <time>2015-02-09T14:49:23Z</time>
      </trkpt>
      <trkpt lat="42.50714" lon="0.56361">
        <ele>1867.2</ele>
        <time>2015-02-09T14:49:23Z</time>
      </trkpt>
      <trkpt lat="42.50723" lon="0.5635">
        <ele>1861.4</ele>
        <time>2015-02-09T14:49:23Z</time>
      </trkpt>
      <trkpt lat="42.50736" lon="0.56332">
        <ele>1852.8</ele>
        <time>2015-02-09T14:49:23Z</time>
      </trkpt>
      <trkpt lat="42.50739" lon="0.56316">
        <ele>1845.9</ele>
        <time>2015-02-09T14:49:23Z</time>
      </trkpt>
      <trkpt lat="42.50737" lon="0.5631">
        <ele>1844.7</ele>
        <time>2015-02-09T14:49:23Z</time>
      </trkpt>
      <trkpt lat="42.50727" lon="0.56306">
        <ele>1846.4</ele>
        <time>2015-02-09T14:49:23Z</time>
      </trkpt>
      <trkpt lat="42.50713" lon="0.56303">
        <ele>1849.3</ele>
        <time>2015-02-09T14:49:23Z</time>
      </trkpt>
      <trkpt lat="42.50709" lon="0.56304">
        <ele>1851</ele>
        <time>2015-02-09T14:49:23Z</time>
      </trkpt>
      <trkpt lat="42.50687" lon="0.56307">
        <ele>1858.7</ele>
        <time>2015-02-09T14:49:23Z</time>
      </trkpt>
      <trkpt lat="42.50681" lon="0.56315">
        <ele>1863.3</ele>
        <time>2015-02-09T14:49:23Z</time>
      </trkpt>
      <trkpt lat="42.50676" lon="0.5632">
        <ele>1866.8</ele>
        <time>2015-02-09T14:49:23Z</time>
      </trkpt>
      <trkpt lat="42.50665" lon="0.56322">
        <ele>1870.6</ele>
        <time>2015-02-09T14:49:23Z</time>
      </trkpt>
      <trkpt lat="42.50658" lon="0.56323">
        <ele>1869.9</ele>
        <time>2015-02-09T14:49:23Z</time>
      </trkpt>
      <trkpt lat="42.50649" lon="0.56326">
        <ele>1869.3</ele>
        <time>2015-02-09T14:49:23Z</time>
      </trkpt>
      <trkpt lat="42.50641" lon="0.56319">
        <ele>1865.7</ele>
        <time>2015-02-09T14:49:23Z</time>
      </trkpt>
      <trkpt lat="42.50642" lon="0.56309">
        <ele>1862.2</ele>
        <time>2015-02-09T14:49:23Z</time>
      </trkpt>
      <trkpt lat="42.50651" lon="0.56279">
        <ele>1853</ele>
        <time>2015-02-09T14:49:23Z</time>
      </trkpt>
      <trkpt lat="42.50655" lon="0.56265">
        <ele>1848.5</ele>
        <time>2015-02-09T14:49:23Z</time>
      </trkpt>
      <trkpt lat="42.50648" lon="0.56259">
        <ele>1845.1</ele>
        <time>2015-02-09T14:49:23Z</time>
      </trkpt>
      <trkpt lat="42.50644" lon="0.56261">
        <ele>1845.5</ele>
        <time>2015-02-09T14:49:23Z</time>
      </trkpt>
      <trkpt lat="42.50644" lon="0.56261">
        <ele>1845.5</ele>
        <time>2015-02-09T14:49:23Z</time>
      </trkpt>
      <trkpt lat="42.50621" lon="0.56289">
        <ele>1851.6</ele>
        <time>2015-02-09T14:49:23Z</time>
      </trkpt>
      <trkpt lat="42.50619" lon="0.56289">
        <ele>1851.3</ele>
        <time>2015-02-09T14:49:23Z</time>
      </trkpt>
      <trkpt lat="42.50614" lon="0.56285">
        <ele>1849.2</ele>
        <time>2015-02-09T14:49:23Z</time>
      </trkpt>
      <trkpt lat="42.50615" lon="0.5628">
        <ele>1848</ele>
        <time>2015-02-09T14:49:23Z</time>
      </trkpt>
      <trkpt lat="42.50612" lon="0.56275">
        <ele>1845.7</ele>
        <time>2015-02-09T14:49:23Z</time>
      </trkpt>
      <trkpt lat="42.50611" lon="0.56269">
        <ele>1843.3</ele>
        <time>2015-02-09T14:49:23Z</time>
      </trkpt>
      <trkpt lat="42.50613" lon="0.5626">
        <ele>1840.5</ele>
        <time>2015-02-09T14:49:23Z</time>
      </trkpt>
      <trkpt lat="42.50616" lon="0.56249">
        <ele>1837.1</ele>
        <time>2015-02-09T14:49:23Z</time>
      </trkpt>
      <trkpt lat="42.50616" lon="0.56249">
        <ele>1837.1</ele>
        <time>2015-02-09T14:49:23Z</time>
      </trkpt>
      <trkpt lat="42.50612" lon="0.56242">
        <ele>1832.6</ele>
        <time>2015-02-09T14:49:23Z</time>
      </trkpt>
      <trkpt lat="42.50612" lon="0.56241">
        <ele>1832.6</ele>
        <time>2015-02-09T14:49:23Z</time>
      </trkpt>
      <trkpt lat="42.50616" lon="0.56234">
        <ele>1829.1</ele>
        <time>2015-02-09T14:49:23Z</time>
      </trkpt>
      <trkpt lat="42.50617" lon="0.56231">
        <ele>1827.9</ele>
        <time>2015-02-09T14:49:23Z</time>
      </trkpt>
      <trkpt lat="42.50614" lon="0.56229">
        <ele>1826.2</ele>
        <time>2015-02-09T14:49:23Z</time>
      </trkpt>
      <trkpt lat="42.50609" lon="0.56236">
        <ele>1829.5</ele>
        <time>2015-02-09T14:49:23Z</time>
      </trkpt>
      <trkpt lat="42.50606" lon="0.56231">
        <ele>1826.5</ele>
        <time>2015-02-09T14:49:23Z</time>
      </trkpt>
      <trkpt lat="42.50603" lon="0.56226">
        <ele>1823.4</ele>
        <time>2015-02-09T14:49:23Z</time>
      </trkpt>
      <trkpt lat="42.50596" lon="0.56228">
        <ele>1823.8</ele>
        <time>2015-02-09T14:49:23Z</time>
      </trkpt>
      <trkpt lat="42.50587" lon="0.56221">
        <ele>1818.8</ele>
        <time>2015-02-09T14:49:23Z</time>
      </trkpt>
      <trkpt lat="42.50585" lon="0.56221">
        <ele>1818.6</ele>
        <time>2015-02-09T14:49:23Z</time>
      </trkpt>
      <trkpt lat="42.5057" lon="0.56214">
        <ele>1812.1</ele>
        <time>2015-02-09T14:49:23Z</time>
      </trkpt>
      <trkpt lat="42.5055" lon="0.562">
        <ele>1802.1</ele>
        <time>2015-02-09T14:49:23Z</time>
      </trkpt>
      <trkpt lat="42.50528" lon="0.56174">
        <ele>1790.1</ele>
        <time>2015-02-09T14:49:23Z</time>
      </trkpt>
      <trkpt lat="42.50516" lon="0.56162">
        <ele>1785.8</ele>
        <time>2015-02-09T14:49:23Z</time>
      </trkpt>
      <trkpt lat="42.5051" lon="0.56148">
        <ele>1781.9</ele>
        <time>2015-02-09T14:49:23Z</time>
      </trkpt>
      <trkpt lat="42.50509" lon="0.56144">
        <ele>1780.9</ele>
        <time>2015-02-09T14:49:23Z</time>
      </trkpt>
      <trkpt lat="42.50506" lon="0.56135">
        <ele>1778.6</ele>
        <time>2015-02-09T14:49:23Z</time>
      </trkpt>
      <trkpt lat="42.50502" lon="0.5611">
        <ele>1772.8</ele>
        <time>2015-02-09T14:49:23Z</time>
      </trkpt>
      <trkpt lat="42.50502" lon="0.56105">
        <ele>1771.6</ele>
        <time>2015-02-09T14:49:23Z</time>
      </trkpt>
      <trkpt lat="42.50494" lon="0.56079">
        <ele>1767.3</ele>
        <time>2015-02-09T14:49:23Z</time>
      </trkpt>
      <trkpt lat="42.50488" lon="0.56064">
        <ele>1766.3</ele>
        <time>2015-02-09T14:49:23Z</time>
      </trkpt>
      <trkpt lat="42.50484" lon="0.56041">
        <ele>1763.8</ele>
        <time>2015-02-09T14:49:23Z</time>
      </trkpt>
      <trkpt lat="42.50481" lon="0.56028">
        <ele>1762.8</ele>
        <time>2015-02-09T14:49:23Z</time>
      </trkpt>
      <trkpt lat="42.50468" lon="0.56002">
        <ele>1764.4</ele>
        <time>2015-02-09T14:49:23Z</time>
      </trkpt>
      <trkpt lat="42.50457" lon="0.55996">
        <ele>1767.9</ele>
        <time>2015-02-09T14:49:23Z</time>
      </trkpt>
      <trkpt lat="42.5045" lon="0.5599">
        <ele>1769.8</ele>
        <time>2015-02-09T14:49:23Z</time>
      </trkpt>
      <trkpt lat="42.50445" lon="0.55974">
        <ele>1769</ele>
        <time>2015-02-09T14:49:23Z</time>
      </trkpt>
      <trkpt lat="42.5044" lon="0.55965">
        <ele>1769.3</ele>
        <time>2015-02-09T14:49:23Z</time>
      </trkpt>
      <trkpt lat="42.50432" lon="0.55949">
        <ele>1769.7</ele>
        <time>2015-02-09T14:49:23Z</time>
      </trkpt>
      <trkpt lat="42.50429" lon="0.55947">
        <ele>1770.8</ele>
        <time>2015-02-09T14:49:23Z</time>
      </trkpt>
      <trkpt lat="42.50426" lon="0.55944">
        <ele>1771.6</ele>
        <time>2015-02-09T14:49:23Z</time>
      </trkpt>
      <trkpt lat="42.50422" lon="0.5594">
        <ele>1772.4</ele>
        <time>2015-02-09T14:49:23Z</time>
      </trkpt>
      <trkpt lat="42.50414" lon="0.55931">
        <ele>1773.7</ele>
        <time>2015-02-09T14:49:23Z</time>
      </trkpt>
      <trkpt lat="42.5041" lon="0.55929">
        <ele>1773.4</ele>
        <time>2015-02-09T14:49:23Z</time>
      </trkpt>
      <trkpt lat="42.50401" lon="0.55923">
        <ele>1772.7</ele>
        <time>2015-02-09T14:49:23Z</time>
      </trkpt>
      <trkpt lat="42.50393" lon="0.55917">
        <ele>1772.4</ele>
        <time>2015-02-09T14:49:23Z</time>
      </trkpt>
      <trkpt lat="42.50392" lon="0.55917">
        <ele>1772.4</ele>
        <time>2015-02-09T14:49:23Z</time>
      </trkpt>
      <trkpt lat="42.50391" lon="0.55915">
        <ele>1771.6</ele>
        <time>2015-02-09T14:49:23Z</time>
      </trkpt>
      <trkpt lat="42.50386" lon="0.55909">
        <ele>1770.2</ele>
        <time>2015-02-09T14:49:23Z</time>
      </trkpt>
      <trkpt lat="42.50385" lon="0.55907">
        <ele>1769.4</ele>
        <time>2015-02-09T14:49:23Z</time>
      </trkpt>
      <trkpt lat="42.50383" lon="0.55906">
        <ele>1769.1</ele>
        <time>2015-02-09T14:49:23Z</time>
      </trkpt>
      <trkpt lat="42.5037" lon="0.55896">
        <ele>1766.8</ele>
        <time>2015-02-09T14:49:23Z</time>
      </trkpt>
      <trkpt lat="42.50369" lon="0.55895">
        <ele>1766.4</ele>
        <time>2015-02-09T14:49:23Z</time>
      </trkpt>
      <trkpt lat="42.50369" lon="0.55894">
        <ele>1766</ele>
        <time>2015-02-09T14:49:23Z</time>
      </trkpt>
      <trkpt lat="42.50364" lon="0.55892">
        <ele>1765.8</ele>
        <time>2015-02-09T14:49:23Z</time>
      </trkpt>
      <trkpt lat="42.5035" lon="0.5589">
        <ele>1765.8</ele>
        <time>2015-02-09T14:49:23Z</time>
      </trkpt>
      <trkpt lat="42.50331" lon="0.55883">
        <ele>1764.7</ele>
        <time>2015-02-09T14:49:23Z</time>
      </trkpt>
      <trkpt lat="42.50325" lon="0.5588">
        <ele>1763.6</ele>
        <time>2015-02-09T14:49:23Z</time>
      </trkpt>
      <trkpt lat="42.50312" lon="0.55875">
        <ele>1763.1</ele>
        <time>2015-02-09T14:49:23Z</time>
      </trkpt>
      <trkpt lat="42.50294" lon="0.55866">
        <ele>1762.1</ele>
        <time>2015-02-09T14:49:23Z</time>
      </trkpt>
      <trkpt lat="42.50287" lon="0.5586">
        <ele>1761.4</ele>
        <time>2015-02-09T14:49:23Z</time>
      </trkpt>
      <trkpt lat="42.50286" lon="0.55859">
        <ele>1761.2</ele>
        <time>2015-02-09T14:49:23Z</time>
      </trkpt>
      <trkpt lat="42.50271" lon="0.55856">
        <ele>1762.4</ele>
        <time>2015-02-09T14:49:23Z</time>
      </trkpt>
      <trkpt lat="42.50262" lon="0.55853">
        <ele>1763.1</ele>
        <time>2015-02-09T14:49:23Z</time>
      </trkpt>
      <trkpt lat="42.5026" lon="0.55852">
        <ele>1763.2</ele>
        <time>2015-02-09T14:49:23Z</time>
      </trkpt>
      <trkpt lat="42.5026" lon="0.55852">
        <ele>1763.2</ele>
        <time>2015-02-09T14:49:23Z</time>
      </trkpt>
      <trkpt lat="42.50256" lon="0.55849">
        <ele>1763.4</ele>
        <time>2015-02-09T14:49:23Z</time>
      </trkpt>
      <trkpt lat="42.50245" lon="0.55857">
        <ele>1764.5</ele>
        <time>2015-02-09T14:49:23Z</time>
      </trkpt>
      <trkpt lat="42.50235" lon="0.55858">
        <ele>1763.4</ele>
        <time>2015-02-09T14:49:23Z</time>
      </trkpt>
      <trkpt lat="42.50216" lon="0.55851">
        <ele>1761.1</ele>
        <time>2015-02-09T14:49:23Z</time>
      </trkpt>
      <trkpt lat="42.50198" lon="0.55872">
        <ele>1759.4</ele>
        <time>2015-02-09T14:49:23Z</time>
      </trkpt>
      <trkpt lat="42.50185" lon="0.55881">
        <ele>1757.5</ele>
        <time>2015-02-09T14:49:23Z</time>
      </trkpt>
      <trkpt lat="42.5018" lon="0.55873">
        <ele>1757</ele>
        <time>2015-02-09T14:49:23Z</time>
      </trkpt>
      <trkpt lat="42.50172" lon="0.5586">
        <ele>1756.4</ele>
        <time>2015-02-09T14:49:23Z</time>
      </trkpt>
      <trkpt lat="42.50159" lon="0.55837">
        <ele>1755.5</ele>
        <time>2015-02-09T14:49:23Z</time>
      </trkpt>
      <trkpt lat="42.5015" lon="0.55834">
        <ele>1753.9</ele>
        <time>2015-02-09T14:49:23Z</time>
      </trkpt>
      <trkpt lat="42.50139" lon="0.55826">
        <ele>1749.7</ele>
        <time>2015-02-09T14:49:23Z</time>
      </trkpt>
      <trkpt lat="42.5013" lon="0.5582">
        <ele>1746.3</ele>
        <time>2015-02-09T14:49:23Z</time>
      </trkpt>
      <trkpt lat="42.50118" lon="0.55815">
        <ele>1742.8</ele>
        <time>2015-02-09T14:49:23Z</time>
      </trkpt>
      <trkpt lat="42.50117" lon="0.55814">
        <ele>1742.6</ele>
        <time>2015-02-09T14:49:23Z</time>
      </trkpt>
      <trkpt lat="42.5011" lon="0.55814">
        <ele>1741.4</ele>
        <time>2015-02-09T14:49:23Z</time>
      </trkpt>
      <trkpt lat="42.50092" lon="0.55827">
        <ele>1741.2</ele>
        <time>2015-02-09T14:49:23Z</time>
      </trkpt>
      <trkpt lat="42.50076" lon="0.55837">
        <ele>1738.8</ele>
        <time>2015-02-09T14:49:23Z</time>
      </trkpt>
      <trkpt lat="42.50074" lon="0.55839">
        <ele>1738.1</ele>
        <time>2015-02-09T14:49:23Z</time>
      </trkpt>
      <trkpt lat="42.50065" lon="0.5585">
        <ele>1734.8</ele>
        <time>2015-02-09T14:49:23Z</time>
      </trkpt>
      <trkpt lat="42.50058" lon="0.55839">
        <ele>1733.5</ele>
        <time>2015-02-09T14:49:23Z</time>
      </trkpt>
      <trkpt lat="42.50059" lon="0.55822">
        <ele>1731.6</ele>
        <time>2015-02-09T14:49:23Z</time>
      </trkpt>
      <trkpt lat="42.50058" lon="0.55806">
        <ele>1727.9</ele>
        <time>2015-02-09T14:49:23Z</time>
      </trkpt>
      <trkpt lat="42.50049" lon="0.55795">
        <ele>1722.9</ele>
        <time>2015-02-09T14:49:23Z</time>
      </trkpt>
      <trkpt lat="42.50037" lon="0.55791">
        <ele>1718.8</ele>
        <time>2015-02-09T14:49:23Z</time>
      </trkpt>
      <trkpt lat="42.50035" lon="0.55791">
        <ele>1718.3</ele>
        <time>2015-02-09T14:49:23Z</time>
      </trkpt>
      <trkpt lat="42.5003" lon="0.55792">
        <ele>1717.3</ele>
        <time>2015-02-09T14:49:23Z</time>
      </trkpt>
      <trkpt lat="42.50028" lon="0.55795">
        <ele>1717.2</ele>
        <time>2015-02-09T14:49:23Z</time>
      </trkpt>
      <trkpt lat="42.50022" lon="0.55797">
        <ele>1716.1</ele>
        <time>2015-02-09T14:49:23Z</time>
      </trkpt>
      <trkpt lat="42.50015" lon="0.558">
        <ele>1714.7</ele>
        <time>2015-02-09T14:49:23Z</time>
      </trkpt>
      <trkpt lat="42.5001" lon="0.55803">
        <ele>1713.9</ele>
        <time>2015-02-09T14:49:23Z</time>
      </trkpt>
      <trkpt lat="42.50002" lon="0.55817">
        <ele>1714.5</ele>
        <time>2015-02-09T14:49:23Z</time>
      </trkpt>
      <trkpt lat="42.49999" lon="0.55823">
        <ele>1714.8</ele>
        <time>2015-02-09T14:49:23Z</time>
      </trkpt>
      <trkpt lat="42.49996" lon="0.55823">
        <ele>1713.7</ele>
        <time>2015-02-09T14:49:23Z</time>
      </trkpt>
      <trkpt lat="42.49988" lon="0.55819">
        <ele>1710.3</ele>
        <time>2015-02-09T14:49:23Z</time>
      </trkpt>
      <trkpt lat="42.4998" lon="0.55826">
        <ele>1708.7</ele>
        <time>2015-02-09T14:49:23Z</time>
      </trkpt>
      <trkpt lat="42.49973" lon="0.55843">
        <ele>1707.2</ele>
        <time>2015-02-09T14:49:23Z</time>
      </trkpt>
      <trkpt lat="42.49973" lon="0.55857">
        <ele>1706.4</ele>
        <time>2015-02-09T14:49:23Z</time>
      </trkpt>
      <trkpt lat="42.49964" lon="0.5586">
        <ele>1703.1</ele>
        <time>2015-02-09T14:49:23Z</time>
      </trkpt>
      <trkpt lat="42.49962" lon="0.55857">
        <ele>1702.6</ele>
        <time>2015-02-09T14:49:23Z</time>
      </trkpt>
      <trkpt lat="42.49959" lon="0.55851">
        <ele>1701.8</ele>
        <time>2015-02-09T14:49:23Z</time>
      </trkpt>
      <trkpt lat="42.49945" lon="0.55841">
        <ele>1697.6</ele>
        <time>2015-02-09T14:49:23Z</time>
      </trkpt>
      <trkpt lat="42.49936" lon="0.55835">
        <ele>1694.8</ele>
        <time>2015-02-09T14:49:23Z</time>
      </trkpt>
      <trkpt lat="42.4993" lon="0.5582">
        <ele>1689.9</ele>
        <time>2015-02-09T14:49:23Z</time>
      </trkpt>
      <trkpt lat="42.49932" lon="0.55796">
        <ele>1685.9</ele>
        <time>2015-02-09T14:49:23Z</time>
      </trkpt>
      <trkpt lat="42.49933" lon="0.55791">
        <ele>1685.2</ele>
        <time>2015-02-09T14:49:23Z</time>
      </trkpt>
      <trkpt lat="42.49933" lon="0.55765">
        <ele>1680</ele>
        <time>2015-02-09T14:49:23Z</time>
      </trkpt>
      <trkpt lat="42.49923" lon="0.55749">
        <ele>1673</ele>
        <time>2015-02-09T14:49:23Z</time>
      </trkpt>
      <trkpt lat="42.49916" lon="0.55735">
        <ele>1665.5</ele>
        <time>2015-02-09T14:49:23Z</time>
      </trkpt>
      <trkpt lat="42.49911" lon="0.55713">
        <ele>1656.7</ele>
        <time>2015-02-09T14:49:23Z</time>
      </trkpt>
      <trkpt lat="42.49902" lon="0.55693">
        <ele>1648.4</ele>
        <time>2015-02-09T14:49:23Z</time>
      </trkpt>
      <trkpt lat="42.49898" lon="0.55664">
        <ele>1638.4</ele>
        <time>2015-02-09T14:49:23Z</time>
      </trkpt>
      <trkpt lat="42.4989" lon="0.55645">
        <ele>1632.1</ele>
        <time>2015-02-09T14:49:23Z</time>
      </trkpt>
      <trkpt lat="42.49886" lon="0.55631">
        <ele>1627.7</ele>
        <time>2015-02-09T14:49:23Z</time>
      </trkpt>
      <trkpt lat="42.49886" lon="0.55619">
        <ele>1624.4</ele>
        <time>2015-02-09T14:49:23Z</time>
      </trkpt>
      <trkpt lat="42.49887" lon="0.55594">
        <ele>1617.4</ele>
        <time>2015-02-09T14:49:23Z</time>
      </trkpt>
      <trkpt lat="42.49879" lon="0.55562">
        <ele>1609.3</ele>
        <time>2015-02-09T14:49:23Z</time>
      </trkpt>
      <trkpt lat="42.4986" lon="0.55538">
        <ele>1605.6</ele>
        <time>2015-02-09T14:49:23Z</time>
      </trkpt>
      <trkpt lat="42.49845" lon="0.55508">
        <ele>1600.8</ele>
        <time>2015-02-09T14:49:23Z</time>
      </trkpt>
      <trkpt lat="42.49841" lon="0.5548">
        <ele>1594.4</ele>
        <time>2015-02-09T14:49:23Z</time>
      </trkpt>
      <trkpt lat="42.49838" lon="0.55458">
        <ele>1589.4</ele>
        <time>2015-02-09T14:49:23Z</time>
      </trkpt>
      <trkpt lat="42.49835" lon="0.55442">
        <ele>1585.9</ele>
        <time>2015-02-09T14:49:23Z</time>
      </trkpt>
      <trkpt lat="42.49835" lon="0.55418">
        <ele>1580</ele>
        <time>2015-02-09T14:49:23Z</time>
      </trkpt>
      <trkpt lat="42.49834" lon="0.55405">
        <ele>1578.6</ele>
        <time>2015-02-09T14:49:23Z</time>
      </trkpt>
      <trkpt lat="42.49831" lon="0.55375">
        <ele>1576.1</ele>
        <time>2015-02-09T14:49:23Z</time>
      </trkpt>
      <trkpt lat="42.49831" lon="0.55361">
        <ele>1574.6</ele>
        <time>2015-02-09T14:49:23Z</time>
      </trkpt>
      <trkpt lat="42.49833" lon="0.55317">
        <ele>1571.4</ele>
        <time>2015-02-09T14:49:23Z</time>
      </trkpt>
      <trkpt lat="42.49832" lon="0.55306">
        <ele>1571.9</ele>
        <time>2015-02-09T14:49:23Z</time>
      </trkpt>
      <trkpt lat="42.49836" lon="0.55295">
        <ele>1571.1</ele>
        <time>2015-02-09T14:49:23Z</time>
      </trkpt>
      <trkpt lat="42.49849" lon="0.55265">
        <ele>1568.2</ele>
        <time>2015-02-09T14:49:23Z</time>
      </trkpt>
      <trkpt lat="42.49844" lon="0.55245">
        <ele>1569.8</ele>
        <time>2015-02-09T14:49:23Z</time>
      </trkpt>
      <trkpt lat="42.49843" lon="0.55214">
        <ele>1570</ele>
        <time>2015-02-09T14:49:23Z</time>
      </trkpt>
      <trkpt lat="42.49844" lon="0.55199">
        <ele>1569.7</ele>
        <time>2015-02-09T14:49:23Z</time>
      </trkpt>
      <trkpt lat="42.4985" lon="0.55157">
        <ele>1566.8</ele>
        <time>2015-02-09T14:49:23Z</time>
      </trkpt>
      <trkpt lat="42.49849" lon="0.55112">
        <ele>1562.5</ele>
        <time>2015-02-09T14:49:23Z</time>
      </trkpt>
      <trkpt lat="42.49849" lon="0.55062">
        <ele>1556.6</ele>
        <time>2015-02-09T14:49:23Z</time>
      </trkpt>
      <trkpt lat="42.4985" lon="0.5503">
        <ele>1552.1</ele>
        <time>2015-02-09T14:49:23Z</time>
      </trkpt>
      <trkpt lat="42.49852" lon="0.54988">
        <ele>1547.8</ele>
        <time>2015-02-09T14:49:23Z</time>
      </trkpt>
      <trkpt lat="42.49868" lon="0.5496">
        <ele>1545.5</ele>
        <time>2015-02-09T14:49:23Z</time>
      </trkpt>
      <trkpt lat="42.49888" lon="0.54946">
        <ele>1542.6</ele>
        <time>2015-02-09T14:49:23Z</time>
      </trkpt>
      <trkpt lat="42.49904" lon="0.54919">
        <ele>1540.8</ele>
        <time>2015-02-09T14:49:23Z</time>
      </trkpt>
      <trkpt lat="42.49903" lon="0.54897">
        <ele>1544</ele>
        <time>2015-02-09T14:49:23Z</time>
      </trkpt>
      <trkpt lat="42.49923" lon="0.54879">
        <ele>1543.4</ele>
        <time>2015-02-09T14:49:23Z</time>
      </trkpt>
      <trkpt lat="42.49946" lon="0.54869">
        <ele>1540.1</ele>
        <time>2015-02-09T14:49:23Z</time>
      </trkpt>
      <trkpt lat="42.49967" lon="0.54859">
        <ele>1537.5</ele>
        <time>2015-02-09T14:49:23Z</time>
      </trkpt>
      <trkpt lat="42.49985" lon="0.54852">
        <ele>1535.1</ele>
        <time>2015-02-09T14:49:23Z</time>
      </trkpt>
      <trkpt lat="42.5" lon="0.54848">
        <ele>1532.8</ele>
        <time>2015-02-09T14:49:23Z</time>
      </trkpt>
      <trkpt lat="42.5" lon="0.54848">
        <ele>1532.8</ele>
        <time>2015-02-09T14:49:23Z</time>
      </trkpt>
      <trkpt lat="42.50005" lon="0.54846">
        <ele>1531.4</ele>
        <time>2015-02-09T14:49:23Z</time>
      </trkpt>
      <trkpt lat="42.50007" lon="0.54841">
        <ele>1531.7</ele>
        <time>2015-02-09T14:49:23Z</time>
      </trkpt>
      <trkpt lat="42.50012" lon="0.54829">
        <ele>1532.1</ele>
        <time>2015-02-09T14:49:23Z</time>
      </trkpt>
      <trkpt lat="42.50014" lon="0.54825">
        <ele>1532</ele>
        <time>2015-02-09T14:49:23Z</time>
      </trkpt>
      <trkpt lat="42.50022" lon="0.54812">
        <ele>1531.2</ele>
        <time>2015-02-09T14:49:23Z</time>
      </trkpt>
      <trkpt lat="42.5003" lon="0.54797">
        <ele>1530.6</ele>
        <time>2015-02-09T14:49:23Z</time>
      </trkpt>
      <trkpt lat="42.50038" lon="0.54781">
        <ele>1530.4</ele>
        <time>2015-02-09T14:49:23Z</time>
      </trkpt>
      <trkpt lat="42.50049" lon="0.54765">
        <ele>1528.7</ele>
        <time>2015-02-09T14:49:23Z</time>
      </trkpt>
      <trkpt lat="42.50058" lon="0.54747">
        <ele>1527.9</ele>
        <time>2015-02-09T14:49:23Z</time>
      </trkpt>
      <trkpt lat="42.5007" lon="0.54726">
        <ele>1525.8</ele>
        <time>2015-02-09T14:49:23Z</time>
      </trkpt>
      <trkpt lat="42.50077" lon="0.54709">
        <ele>1525</ele>
        <time>2015-02-09T14:49:23Z</time>
      </trkpt>
      <trkpt lat="42.50085" lon="0.54692">
        <ele>1523.8</ele>
        <time>2015-02-09T14:49:23Z</time>
      </trkpt>
      <trkpt lat="42.50092" lon="0.54677">
        <ele>1522.3</ele>
        <time>2015-02-09T14:49:23Z</time>
      </trkpt>
      <trkpt lat="42.50103" lon="0.54658">
        <ele>1519</ele>
        <time>2015-02-09T14:49:23Z</time>
      </trkpt>
      <trkpt lat="42.50109" lon="0.54637">
        <ele>1518.4</ele>
        <time>2015-02-09T14:49:23Z</time>
      </trkpt>
      <trkpt lat="42.50114" lon="0.54612">
        <ele>1518.8</ele>
        <time>2015-02-09T14:49:23Z</time>
      </trkpt>
      <trkpt lat="42.50115" lon="0.54606">
        <ele>1519.1</ele>
        <time>2015-02-09T14:49:23Z</time>
      </trkpt>
      <trkpt lat="42.50119" lon="0.54569">
        <ele>1521.7</ele>
        <time>2015-02-09T14:49:23Z</time>
      </trkpt>
      <trkpt lat="42.5012" lon="0.54563">
        <ele>1522</ele>
        <time>2015-02-09T14:49:23Z</time>
      </trkpt>
      <trkpt lat="42.50125" lon="0.54538">
        <ele>1523.1</ele>
        <time>2015-02-09T14:49:23Z</time>
      </trkpt>
      <trkpt lat="42.50133" lon="0.5452">
        <ele>1522.7</ele>
        <time>2015-02-09T14:49:23Z</time>
      </trkpt>
      <trkpt lat="42.50139" lon="0.54503">
        <ele>1523.2</ele>
        <time>2015-02-09T14:49:23Z</time>
      </trkpt>
      <trkpt lat="42.50144" lon="0.54481">
        <ele>1520.8</ele>
        <time>2015-02-09T14:49:23Z</time>
      </trkpt>
      <trkpt lat="42.50142" lon="0.54456">
        <ele>1519.7</ele>
        <time>2015-02-09T14:49:23Z</time>
      </trkpt>
      <trkpt lat="42.50139" lon="0.54431">
        <ele>1519.1</ele>
        <time>2015-02-09T14:49:23Z</time>
      </trkpt>
      <trkpt lat="42.50136" lon="0.54409">
        <ele>1517.8</ele>
        <time>2015-02-09T14:49:23Z</time>
      </trkpt>
      <trkpt lat="42.50127" lon="0.54386">
        <ele>1516.6</ele>
        <time>2015-02-09T14:49:23Z</time>
      </trkpt>
      <trkpt lat="42.50115" lon="0.54368">
        <ele>1517.3</ele>
        <time>2015-02-09T14:49:23Z</time>
      </trkpt>
      <trkpt lat="42.5011" lon="0.54344">
        <ele>1514.8</ele>
        <time>2015-02-09T14:49:23Z</time>
      </trkpt>
      <trkpt lat="42.50097" lon="0.54308">
        <ele>1510.8</ele>
        <time>2015-02-09T14:49:23Z</time>
      </trkpt>
      <trkpt lat="42.5009" lon="0.54274">
        <ele>1504.6</ele>
        <time>2015-02-09T14:49:23Z</time>
      </trkpt>
      <trkpt lat="42.50087" lon="0.54263">
        <ele>1502.9</ele>
        <time>2015-02-09T14:49:23Z</time>
      </trkpt>
      <trkpt lat="42.50076" lon="0.54249">
        <ele>1502.7</ele>
        <time>2015-02-09T14:49:23Z</time>
      </trkpt>
      <trkpt lat="42.50059" lon="0.54236">
        <ele>1504.8</ele>
        <time>2015-02-09T14:49:23Z</time>
      </trkpt>
      <trkpt lat="42.5005" lon="0.54224">
        <ele>1504.8</ele>
        <time>2015-02-09T14:49:23Z</time>
      </trkpt>
      <trkpt lat="42.50044" lon="0.54222">
        <ele>1505.8</ele>
        <time>2015-02-09T14:49:23Z</time>
      </trkpt>
      <trkpt lat="42.5004" lon="0.5422">
        <ele>1506.4</ele>
        <time>2015-02-09T14:49:23Z</time>
      </trkpt>
      <trkpt lat="42.50042" lon="0.542">
        <ele>1501.6</ele>
        <time>2015-02-09T14:49:23Z</time>
      </trkpt>
      <trkpt lat="42.5005" lon="0.5418">
        <ele>1495.1</ele>
        <time>2015-02-09T14:49:23Z</time>
      </trkpt>
      <trkpt lat="42.50042" lon="0.5415">
        <ele>1492</ele>
        <time>2015-02-09T14:49:23Z</time>
      </trkpt>
      <trkpt lat="42.5003" lon="0.54142">
        <ele>1494.2</ele>
        <time>2015-02-09T14:49:23Z</time>
      </trkpt>
      <trkpt lat="42.50021" lon="0.54125">
        <ele>1494.4</ele>
        <time>2015-02-09T14:49:23Z</time>
      </trkpt>
      <trkpt lat="42.50021" lon="0.54109">
        <ele>1492.4</ele>
        <time>2015-02-09T14:49:23Z</time>
      </trkpt>
      <trkpt lat="42.50021" lon="0.54108">
        <ele>1492.2</ele>
        <time>2015-02-09T14:49:23Z</time>
      </trkpt>
      <trkpt lat="42.50027" lon="0.54106">
        <ele>1490.3</ele>
        <time>2015-02-09T14:49:23Z</time>
      </trkpt>
      <trkpt lat="42.50028" lon="0.54106">
        <ele>1490</ele>
        <time>2015-02-09T14:49:23Z</time>
      </trkpt>
      <trkpt lat="42.50039" lon="0.54099">
        <ele>1485.8</ele>
        <time>2015-02-09T14:49:23Z</time>
      </trkpt>
      <trkpt lat="42.50041" lon="0.54099">
        <ele>1485.3</ele>
        <time>2015-02-09T14:49:23Z</time>
      </trkpt>
      <trkpt lat="42.50034" lon="0.54096">
        <ele>1486.8</ele>
        <time>2015-02-09T14:49:23Z</time>
      </trkpt>
      <trkpt lat="42.50031" lon="0.5409">
        <ele>1487</ele>
        <time>2015-02-09T14:49:23Z</time>
      </trkpt>
      <trkpt lat="42.50027" lon="0.54069">
        <ele>1486.7</ele>
        <time>2015-02-09T14:49:23Z</time>
      </trkpt>
      <trkpt lat="42.50019" lon="0.54042">
        <ele>1487.5</ele>
        <time>2015-02-09T14:49:23Z</time>
      </trkpt>
      <trkpt lat="42.50012" lon="0.54016">
        <ele>1488.2</ele>
        <time>2015-02-09T14:49:23Z</time>
      </trkpt>
      <trkpt lat="42.50012" lon="0.54002">
        <ele>1487.4</ele>
        <time>2015-02-09T14:49:23Z</time>
      </trkpt>
      <trkpt lat="42.50013" lon="0.53984">
        <ele>1487.7</ele>
        <time>2015-02-09T14:49:23Z</time>
      </trkpt>
      <trkpt lat="42.50011" lon="0.53965">
        <ele>1489.1</ele>
        <time>2015-02-09T14:49:23Z</time>
      </trkpt>
      <trkpt lat="42.50005" lon="0.53945">
        <ele>1491.9</ele>
        <time>2015-02-09T14:49:23Z</time>
      </trkpt>
      <trkpt lat="42.50001" lon="0.53926">
        <ele>1494.1</ele>
        <time>2015-02-09T14:49:23Z</time>
      </trkpt>
      <trkpt lat="42.50001" lon="0.53903">
        <ele>1496.3</ele>
        <time>2015-02-09T14:49:23Z</time>
      </trkpt>
      <trkpt lat="42.50008" lon="0.53878">
        <ele>1496.8</ele>
        <time>2015-02-09T14:49:23Z</time>
      </trkpt>
      <trkpt lat="42.50017" lon="0.53868">
        <ele>1495</ele>
        <time>2015-02-09T14:49:23Z</time>
      </trkpt>
      <trkpt lat="42.50024" lon="0.53856">
        <ele>1494.1</ele>
        <time>2015-02-09T14:49:23Z</time>
      </trkpt>
      <trkpt lat="42.50026" lon="0.53838">
        <ele>1495.7</ele>
        <time>2015-02-09T14:49:23Z</time>
      </trkpt>
      <trkpt lat="42.50023" lon="0.5383">
        <ele>1497</ele>
        <time>2015-02-09T14:49:23Z</time>
      </trkpt>
      <trkpt lat="42.50002" lon="0.53819">
        <ele>1503.3</ele>
        <time>2015-02-09T14:49:23Z</time>
      </trkpt>
      <trkpt lat="42.49984" lon="0.53818">
        <ele>1504</ele>
        <time>2015-02-09T14:49:23Z</time>
      </trkpt>
      <trkpt lat="42.49966" lon="0.53802">
        <ele>1502.6</ele>
        <time>2015-02-09T14:49:23Z</time>
      </trkpt>
      <trkpt lat="42.49958" lon="0.53784">
        <ele>1501</ele>
        <time>2015-02-09T14:49:23Z</time>
      </trkpt>
      <trkpt lat="42.49948" lon="0.53761">
        <ele>1498.7</ele>
        <time>2015-02-09T14:49:23Z</time>
      </trkpt>
      <trkpt lat="42.4994" lon="0.53745">
        <ele>1496.8</ele>
        <time>2015-02-09T14:49:23Z</time>
      </trkpt>
      <trkpt lat="42.4993" lon="0.53729">
        <ele>1494.3</ele>
        <time>2015-02-09T14:49:23Z</time>
      </trkpt>
      <trkpt lat="42.49935" lon="0.53721">
        <ele>1493.3</ele>
        <time>2015-02-09T14:49:23Z</time>
      </trkpt>
      <trkpt lat="42.49942" lon="0.53713">
        <ele>1492.2</ele>
        <time>2015-02-09T14:49:23Z</time>
      </trkpt>
      <trkpt lat="42.49948" lon="0.53702">
        <ele>1490.7</ele>
        <time>2015-02-09T14:49:23Z</time>
      </trkpt>
      <trkpt lat="42.49968" lon="0.53694">
        <ele>1489.6</ele>
        <time>2015-02-09T14:49:23Z</time>
      </trkpt>
      <trkpt lat="42.49978" lon="0.53696">
        <ele>1489.8</ele>
        <time>2015-02-09T14:49:23Z</time>
      </trkpt>
      <trkpt lat="42.49978" lon="0.53697">
        <ele>1490</ele>
        <time>2015-02-09T14:49:23Z</time>
      </trkpt>
      <trkpt lat="42.49994" lon="0.53704">
        <ele>1491.1</ele>
        <time>2015-02-09T14:49:23Z</time>
      </trkpt>
      <trkpt lat="42.50012" lon="0.53708">
        <ele>1490.8</ele>
        <time>2015-02-09T14:49:23Z</time>
      </trkpt>
      <trkpt lat="42.50025" lon="0.53711">
        <ele>1490.3</ele>
        <time>2015-02-09T14:49:23Z</time>
      </trkpt>
      <trkpt lat="42.50025" lon="0.53711">
        <ele>1490.3</ele>
        <time>2015-02-09T14:49:23Z</time>
      </trkpt>
      <trkpt lat="42.50033" lon="0.53691">
        <ele>1487.5</ele>
        <time>2015-02-09T14:49:23Z</time>
      </trkpt>
      <trkpt lat="42.50037" lon="0.53673">
        <ele>1485.5</ele>
        <time>2015-02-09T14:49:23Z</time>
      </trkpt>
      <trkpt lat="42.50038" lon="0.53652">
        <ele>1482.7</ele>
        <time>2015-02-09T14:49:23Z</time>
      </trkpt>
      <trkpt lat="42.50054" lon="0.53623">
        <ele>1479.1</ele>
        <time>2015-02-09T14:49:23Z</time>
      </trkpt>
      <trkpt lat="42.50063" lon="0.53603">
        <ele>1477</ele>
        <time>2015-02-09T14:49:23Z</time>
      </trkpt>
      <trkpt lat="42.50065" lon="0.53591">
        <ele>1475.5</ele>
        <time>2015-02-09T14:49:23Z</time>
      </trkpt>
      <trkpt lat="42.50068" lon="0.53579">
        <ele>1474.2</ele>
        <time>2015-02-09T14:49:23Z</time>
      </trkpt>
      <trkpt lat="42.50064" lon="0.53561">
        <ele>1471.4</ele>
        <time>2015-02-09T14:49:23Z</time>
      </trkpt>
      <trkpt lat="42.50059" lon="0.53539">
        <ele>1467.9</ele>
        <time>2015-02-09T14:49:23Z</time>
      </trkpt>
      <trkpt lat="42.50065" lon="0.53518">
        <ele>1465.7</ele>
        <time>2015-02-09T14:49:23Z</time>
      </trkpt>
      <trkpt lat="42.50073" lon="0.53496">
        <ele>1463.7</ele>
        <time>2015-02-09T14:49:23Z</time>
      </trkpt>
      <trkpt lat="42.50076" lon="0.5347">
        <ele>1459.8</ele>
        <time>2015-02-09T14:49:23Z</time>
      </trkpt>
      <trkpt lat="42.50067" lon="0.53431">
        <ele>1452.3</ele>
        <time>2015-02-09T14:49:23Z</time>
      </trkpt>
      <trkpt lat="42.50057" lon="0.53407">
        <ele>1446.6</ele>
        <time>2015-02-09T14:49:23Z</time>
      </trkpt>
      <trkpt lat="42.50045" lon="0.53382">
        <ele>1440.3</ele>
        <time>2015-02-09T14:49:23Z</time>
      </trkpt>
      <trkpt lat="42.5004" lon="0.53361">
        <ele>1435.6</ele>
        <time>2015-02-09T14:49:23Z</time>
      </trkpt>
      <trkpt lat="42.50034" lon="0.53329">
        <ele>1428.9</ele>
        <time>2015-02-09T14:49:23Z</time>
      </trkpt>
      <trkpt lat="42.50032" lon="0.53318">
        <ele>1427.6</ele>
        <time>2015-02-09T14:49:23Z</time>
      </trkpt>
      <trkpt lat="42.50017" lon="0.53304">
        <ele>1423.2</ele>
        <time>2015-02-09T14:49:23Z</time>
      </trkpt>
      <trkpt lat="42.49989" lon="0.53269">
        <ele>1413.6</ele>
        <time>2015-02-09T14:49:24Z</time>
      </trkpt>
      <trkpt lat="42.49984" lon="0.53238">
        <ele>1408.4</ele>
        <time>2015-02-09T14:49:24Z</time>
      </trkpt>
      <trkpt lat="42.49979" lon="0.53206">
        <ele>1403.7</ele>
        <time>2015-02-09T14:49:24Z</time>
      </trkpt>
      <trkpt lat="42.4998" lon="0.5317">
        <ele>1399.1</ele>
        <time>2015-02-09T14:49:24Z</time>
      </trkpt>
      <trkpt lat="42.49971" lon="0.53147">
        <ele>1395.6</ele>
        <time>2015-02-09T14:49:24Z</time>
      </trkpt>
      <trkpt lat="42.49961" lon="0.53087">
        <ele>1388.5</ele>
        <time>2015-02-09T14:49:24Z</time>
      </trkpt>
      <trkpt lat="42.49943" lon="0.53062">
        <ele>1381.8</ele>
        <time>2015-02-09T14:49:24Z</time>
      </trkpt>
      <trkpt lat="42.49936" lon="0.53051">
        <ele>1379.3</ele>
        <time>2015-02-09T14:49:24Z</time>
      </trkpt>
      <trkpt lat="42.49896" lon="0.53016">
        <ele>1369</ele>
        <time>2015-02-09T14:49:24Z</time>
      </trkpt>
      <trkpt lat="42.49879" lon="0.52981">
        <ele>1360.4</ele>
        <time>2015-02-09T14:49:24Z</time>
      </trkpt>
      <trkpt lat="42.49863" lon="0.52942">
        <ele>1349.9</ele>
        <time>2015-02-09T14:49:24Z</time>
      </trkpt>
      <trkpt lat="42.49857" lon="0.52909">
        <ele>1341.9</ele>
        <time>2015-02-09T14:49:24Z</time>
      </trkpt>
      <trkpt lat="42.49854" lon="0.52875">
        <ele>1331.9</ele>
        <time>2015-02-09T14:49:24Z</time>
      </trkpt>
      <trkpt lat="42.49858" lon="0.52849">
        <ele>1325.3</ele>
        <time>2015-02-09T14:49:24Z</time>
      </trkpt>
      <trkpt lat="42.49859" lon="0.52805">
        <ele>1314.8</ele>
        <time>2015-02-09T14:49:24Z</time>
      </trkpt>
      <trkpt lat="42.4985" lon="0.52776">
        <ele>1306.8</ele>
        <time>2015-02-09T14:49:24Z</time>
      </trkpt>
      <trkpt lat="42.49835" lon="0.52741">
        <ele>1298.4</ele>
        <time>2015-02-09T14:49:24Z</time>
      </trkpt>
      <trkpt lat="42.49826" lon="0.52704">
        <ele>1293.9</ele>
        <time>2015-02-09T14:49:24Z</time>
      </trkpt>
      <trkpt lat="42.49819" lon="0.52678">
        <ele>1290</ele>
        <time>2015-02-09T14:49:24Z</time>
      </trkpt>
      <trkpt lat="42.49823" lon="0.52655">
        <ele>1289</ele>
        <time>2015-02-09T14:49:24Z</time>
      </trkpt>
      <trkpt lat="42.49816" lon="0.52632">
        <ele>1286.6</ele>
        <time>2015-02-09T14:49:24Z</time>
      </trkpt>
      <trkpt lat="42.49809" lon="0.52622">
        <ele>1284.4</ele>
        <time>2015-02-09T14:49:24Z</time>
      </trkpt>
      <trkpt lat="42.49803" lon="0.52604">
        <ele>1281.6</ele>
        <time>2015-02-09T14:49:24Z</time>
      </trkpt>
      <trkpt lat="42.49797" lon="0.52593">
        <ele>1279.1</ele>
        <time>2015-02-09T14:49:24Z</time>
      </trkpt>
      <trkpt lat="42.49794" lon="0.52577">
        <ele>1277.2</ele>
        <time>2015-02-09T14:49:24Z</time>
      </trkpt>
      <trkpt lat="42.49789" lon="0.52559">
        <ele>1275</ele>
        <time>2015-02-09T14:49:24Z</time>
      </trkpt>
      <trkpt lat="42.49791" lon="0.52548">
        <ele>1275.5</ele>
        <time>2015-02-09T14:49:24Z</time>
      </trkpt>
      <trkpt lat="42.49791" lon="0.52536">
        <ele>1275.2</ele>
        <time>2015-02-09T14:49:24Z</time>
      </trkpt>
      <trkpt lat="42.49787" lon="0.52525">
        <ele>1273.2</ele>
        <time>2015-02-09T14:49:24Z</time>
      </trkpt>
      <trkpt lat="42.4978" lon="0.52519">
        <ele>1269.5</ele>
        <time>2015-02-09T14:49:24Z</time>
      </trkpt>
      <trkpt lat="42.49785" lon="0.5251">
        <ele>1271.7</ele>
        <time>2015-02-09T14:49:24Z</time>
      </trkpt>
      <trkpt lat="42.49795" lon="0.52498">
        <ele>1276.6</ele>
        <time>2015-02-09T14:49:24Z</time>
      </trkpt>
      <trkpt lat="42.49807" lon="0.52506">
        <ele>1282.5</ele>
        <time>2015-02-09T14:49:24Z</time>
      </trkpt>
      <trkpt lat="42.49813" lon="0.52507">
        <ele>1285.6</ele>
        <time>2015-02-09T14:49:24Z</time>
      </trkpt>
      <trkpt lat="42.49821" lon="0.52497">
        <ele>1289.9</ele>
        <time>2015-02-09T14:49:24Z</time>
      </trkpt>
      <trkpt lat="42.49821" lon="0.5248">
        <ele>1290.3</ele>
        <time>2015-02-09T14:49:24Z</time>
      </trkpt>
      <trkpt lat="42.49816" lon="0.52447">
        <ele>1288.5</ele>
        <time>2015-02-09T14:49:24Z</time>
      </trkpt>
      <trkpt lat="42.49822" lon="0.52416">
        <ele>1292.2</ele>
        <time>2015-02-09T14:49:24Z</time>
      </trkpt>
      <trkpt lat="42.49823" lon="0.5239">
        <ele>1291.2</ele>
        <time>2015-02-09T14:49:24Z</time>
      </trkpt>
      <trkpt lat="42.49819" lon="0.52358">
        <ele>1287.1</ele>
        <time>2015-02-09T14:49:24Z</time>
      </trkpt>
      <trkpt lat="42.49817" lon="0.52347">
        <ele>1285.5</ele>
        <time>2015-02-09T14:49:24Z</time>
      </trkpt>
      <trkpt lat="42.49816" lon="0.52329">
        <ele>1283.6</ele>
        <time>2015-02-09T14:49:24Z</time>
      </trkpt>
      <trkpt lat="42.49828" lon="0.52313">
        <ele>1287.1</ele>
        <time>2015-02-09T14:49:24Z</time>
      </trkpt>
      <trkpt lat="42.49837" lon="0.52291">
        <ele>1287.1</ele>
        <time>2015-02-09T14:49:24Z</time>
      </trkpt>
      <trkpt lat="42.4985" lon="0.52267">
        <ele>1285.8</ele>
        <time>2015-02-09T14:49:24Z</time>
      </trkpt>
      <trkpt lat="42.49863" lon="0.5223">
        <ele>1281.3</ele>
        <time>2015-02-09T14:49:24Z</time>
      </trkpt>
      <trkpt lat="42.49872" lon="0.52213">
        <ele>1279.4</ele>
        <time>2015-02-09T14:49:24Z</time>
      </trkpt>
      <trkpt lat="42.49882" lon="0.52172">
        <ele>1273.3</ele>
        <time>2015-02-09T14:49:24Z</time>
      </trkpt>
      <trkpt lat="42.49897" lon="0.52143">
        <ele>1270.1</ele>
        <time>2015-02-09T14:49:24Z</time>
      </trkpt>
      <trkpt lat="42.4991" lon="0.52128">
        <ele>1269.2</ele>
        <time>2015-02-09T14:49:24Z</time>
      </trkpt>
      <trkpt lat="42.49919" lon="0.52124">
        <ele>1269.3</ele>
        <time>2015-02-09T14:49:24Z</time>
      </trkpt>
      <trkpt lat="42.49923" lon="0.5213">
        <ele>1270.2</ele>
        <time>2015-02-09T14:49:24Z</time>
      </trkpt>
      <trkpt lat="42.49918" lon="0.52158">
        <ele>1274.6</ele>
        <time>2015-02-09T14:49:24Z</time>
      </trkpt>
      <trkpt lat="42.49912" lon="0.52177">
        <ele>1277.3</ele>
        <time>2015-02-09T14:49:24Z</time>
      </trkpt>
      <trkpt lat="42.49929" lon="0.52199">
        <ele>1281.1</ele>
        <time>2015-02-09T14:49:24Z</time>
      </trkpt>
      <trkpt lat="42.49953" lon="0.5221">
        <ele>1281.1</ele>
        <time>2015-02-09T14:49:24Z</time>
      </trkpt>
      <trkpt lat="42.49971" lon="0.5221">
        <ele>1279.6</ele>
        <time>2015-02-09T14:49:24Z</time>
      </trkpt>
      <trkpt lat="42.4999" lon="0.52207">
        <ele>1277.6</ele>
        <time>2015-02-09T14:49:24Z</time>
      </trkpt>
      <trkpt lat="42.50008" lon="0.52207">
        <ele>1274.3</ele>
        <time>2015-02-09T14:49:24Z</time>
      </trkpt>
      <trkpt lat="42.50021" lon="0.52217">
        <ele>1271.6</ele>
        <time>2015-02-09T14:49:24Z</time>
      </trkpt>
      <trkpt lat="42.50029" lon="0.52218">
        <ele>1269.5</ele>
        <time>2015-02-09T14:49:24Z</time>
      </trkpt>
      <trkpt lat="42.50029" lon="0.52211">
        <ele>1268.8</ele>
        <time>2015-02-09T14:49:24Z</time>
      </trkpt>
      <trkpt lat="42.50019" lon="0.52199">
        <ele>1270.4</ele>
        <time>2015-02-09T14:49:24Z</time>
      </trkpt>
      <trkpt lat="42.50006" lon="0.52192">
        <ele>1273.8</ele>
        <time>2015-02-09T14:49:24Z</time>
      </trkpt>
      <trkpt lat="42.4999" lon="0.52191">
        <ele>1276.2</ele>
        <time>2015-02-09T14:49:24Z</time>
      </trkpt>
      <trkpt lat="42.4997" lon="0.52191">
        <ele>1277.4</ele>
        <time>2015-02-09T14:49:24Z</time>
      </trkpt>
      <trkpt lat="42.49953" lon="0.52189">
        <ele>1278.2</ele>
        <time>2015-02-09T14:49:24Z</time>
      </trkpt>
      <trkpt lat="42.49957" lon="0.52162">
        <ele>1274.4</ele>
        <time>2015-02-09T14:49:24Z</time>
      </trkpt>
      <trkpt lat="42.49962" lon="0.52119">
        <ele>1269.6</ele>
        <time>2015-02-09T14:49:24Z</time>
      </trkpt>
      <trkpt lat="42.49968" lon="0.52068">
        <ele>1263.1</ele>
        <time>2015-02-09T14:49:24Z</time>
      </trkpt>
      <trkpt lat="42.49976" lon="0.52034">
        <ele>1257.3</ele>
        <time>2015-02-09T14:49:24Z</time>
      </trkpt>
      <trkpt lat="42.49975" lon="0.52002">
        <ele>1251</ele>
        <time>2015-02-09T14:49:24Z</time>
      </trkpt>
      <trkpt lat="42.49977" lon="0.51966">
        <ele>1244.3</ele>
        <time>2015-02-09T14:49:24Z</time>
      </trkpt>
      <trkpt lat="42.4998" lon="0.5192">
        <ele>1235.9</ele>
        <time>2015-02-09T14:49:24Z</time>
      </trkpt>
      <trkpt lat="42.49978" lon="0.51891">
        <ele>1230.1</ele>
        <time>2015-02-09T14:49:24Z</time>
      </trkpt>
      <trkpt lat="42.4999" lon="0.51836">
        <ele>1219.5</ele>
        <time>2015-02-09T14:49:24Z</time>
      </trkpt>
      <trkpt lat="42.49989" lon="0.51805">
        <ele>1213.7</ele>
        <time>2015-02-09T14:49:24Z</time>
      </trkpt>
      <trkpt lat="42.49998" lon="0.51777">
        <ele>1208.1</ele>
        <time>2015-02-09T14:49:24Z</time>
      </trkpt>
      <trkpt lat="42.50002" lon="0.51752">
        <ele>1203</ele>
        <time>2015-02-09T14:49:24Z</time>
      </trkpt>
      <trkpt lat="42.50013" lon="0.5172">
        <ele>1194.2</ele>
        <time>2015-02-09T14:49:24Z</time>
      </trkpt>
      <trkpt lat="42.50031" lon="0.51676">
        <ele>1181.9</ele>
        <time>2015-02-09T14:49:24Z</time>
      </trkpt>
      <trkpt lat="42.50044" lon="0.51653">
        <ele>1175.7</ele>
        <time>2015-02-09T14:49:24Z</time>
      </trkpt>
      <trkpt lat="42.50051" lon="0.51622">
        <ele>1169.8</ele>
        <time>2015-02-09T14:49:24Z</time>
      </trkpt>
      <trkpt lat="42.50052" lon="0.5159">
        <ele>1164.5</ele>
        <time>2015-02-09T14:49:24Z</time>
      </trkpt>
      <trkpt lat="42.50063" lon="0.51604">
        <ele>1166.3</ele>
        <time>2015-02-09T14:49:24Z</time>
      </trkpt>
      <trkpt lat="42.50071" lon="0.51607">
        <ele>1166.6</ele>
        <time>2015-02-09T14:49:24Z</time>
      </trkpt>
      <trkpt lat="42.50075" lon="0.51599">
        <ele>1165.3</ele>
        <time>2015-02-09T14:49:24Z</time>
      </trkpt>
      <trkpt lat="42.5008" lon="0.51591">
        <ele>1163.9</ele>
        <time>2015-02-09T14:49:24Z</time>
      </trkpt>
      <trkpt lat="42.50089" lon="0.51586">
        <ele>1164.9</ele>
        <time>2015-02-09T14:49:24Z</time>
      </trkpt>
      <trkpt lat="42.50096" lon="0.51569">
        <ele>1164</ele>
        <time>2015-02-09T14:49:24Z</time>
      </trkpt>
      <trkpt lat="42.50093" lon="0.51538">
        <ele>1159.1</ele>
        <time>2015-02-09T14:49:24Z</time>
      </trkpt>
      <trkpt lat="42.50117" lon="0.51499">
        <ele>1157.9</ele>
        <time>2015-02-09T14:49:24Z</time>
      </trkpt>
      <trkpt lat="42.5012" lon="0.51481">
        <ele>1155.1</ele>
        <time>2015-02-09T14:49:24Z</time>
      </trkpt>
      <trkpt lat="42.50107" lon="0.51463">
        <ele>1149.8</ele>
        <time>2015-02-09T14:49:24Z</time>
      </trkpt>
      <trkpt lat="42.50099" lon="0.51445">
        <ele>1145.5</ele>
        <time>2015-02-09T14:49:24Z</time>
      </trkpt>
      <trkpt lat="42.50098" lon="0.51425">
        <ele>1142.1</ele>
        <time>2015-02-09T14:49:24Z</time>
      </trkpt>
      <trkpt lat="42.50096" lon="0.51414">
        <ele>1140</ele>
        <time>2015-02-09T14:49:24Z</time>
      </trkpt>
      <trkpt lat="42.50078" lon="0.51387">
        <ele>1134.7</ele>
        <time>2015-02-09T14:49:24Z</time>
      </trkpt>
      <trkpt lat="42.50063" lon="0.51369">
        <ele>1131.2</ele>
        <time>2015-02-09T14:49:24Z</time>
      </trkpt>
      <trkpt lat="42.5005" lon="0.51354">
        <ele>1128</ele>
        <time>2015-02-09T14:49:24Z</time>
      </trkpt>
      <trkpt lat="42.50036" lon="0.51321">
        <ele>1122.5</ele>
        <time>2015-02-09T14:49:24Z</time>
      </trkpt>
      <trkpt lat="42.50021" lon="0.51293">
        <ele>1118</ele>
        <time>2015-02-09T14:49:24Z</time>
      </trkpt>
      <trkpt lat="42.50014" lon="0.51283">
        <ele>1116.5</ele>
        <time>2015-02-09T14:49:24Z</time>
      </trkpt>
      <trkpt lat="42.5001" lon="0.51269">
        <ele>1114.6</ele>
        <time>2015-02-09T14:49:24Z</time>
      </trkpt>
      <trkpt lat="42.5001" lon="0.51258">
        <ele>1113.5</ele>
        <time>2015-02-09T14:49:24Z</time>
      </trkpt>
      <trkpt lat="42.50016" lon="0.51255">
        <ele>1113.4</ele>
        <time>2015-02-09T14:49:24Z</time>
      </trkpt>
      <trkpt lat="42.50016" lon="0.51244">
        <ele>1112.7</ele>
        <time>2015-02-09T14:49:24Z</time>
      </trkpt>
      <trkpt lat="42.5" lon="0.51227">
        <ele>1111.2</ele>
        <time>2015-02-09T14:49:24Z</time>
      </trkpt>
      <trkpt lat="42.49985" lon="0.51187">
        <ele>1108.1</ele>
        <time>2015-02-09T14:49:24Z</time>
      </trkpt>
      <trkpt lat="42.49969" lon="0.51164">
        <ele>1106</ele>
        <time>2015-02-09T14:49:24Z</time>
      </trkpt>
      <trkpt lat="42.49952" lon="0.51144">
        <ele>1103.9</ele>
        <time>2015-02-09T14:49:24Z</time>
      </trkpt>
      <trkpt lat="42.49938" lon="0.51113">
        <ele>1102.1</ele>
        <time>2015-02-09T14:49:24Z</time>
      </trkpt>
      <trkpt lat="42.4993" lon="0.51091">
        <ele>1101.1</ele>
        <time>2015-02-09T14:49:24Z</time>
      </trkpt>
      <trkpt lat="42.49926" lon="0.51054">
        <ele>1098.9</ele>
        <time>2015-02-09T14:49:24Z</time>
      </trkpt>
      <trkpt lat="42.49923" lon="0.50997">
        <ele>1095.2</ele>
        <time>2015-02-09T14:49:24Z</time>
      </trkpt>
      <trkpt lat="42.49929" lon="0.50961">
        <ele>1091.7</ele>
        <time>2015-02-09T14:49:24Z</time>
      </trkpt>
      <trkpt lat="42.49946" lon="0.5091">
        <ele>1085.4</ele>
        <time>2015-02-09T14:49:24Z</time>
      </trkpt>
      <trkpt lat="42.49963" lon="0.50891">
        <ele>1082</ele>
        <time>2015-02-09T14:49:24Z</time>
      </trkpt>
      <trkpt lat="42.49963" lon="0.50877">
        <ele>1079.5</ele>
        <time>2015-02-09T14:49:24Z</time>
      </trkpt>
      <trkpt lat="42.49941" lon="0.50861">
        <ele>1077.8</ele>
        <time>2015-02-09T14:49:24Z</time>
      </trkpt>
      <trkpt lat="42.499" lon="0.50847">
        <ele>1077.2</ele>
        <time>2015-02-09T14:49:24Z</time>
      </trkpt>
      <trkpt lat="42.49866" lon="0.50835">
        <ele>1077.5</ele>
        <time>2015-02-09T14:49:24Z</time>
      </trkpt>
      <trkpt lat="42.49826" lon="0.50843">
        <ele>1079.3</ele>
        <time>2015-02-09T14:49:24Z</time>
      </trkpt>
      <trkpt lat="42.49789" lon="0.50838">
        <ele>1082.6</ele>
        <time>2015-02-09T14:49:24Z</time>
      </trkpt>
      <trkpt lat="42.49764" lon="0.50847">
        <ele>1084.5</ele>
        <time>2015-02-09T14:49:24Z</time>
      </trkpt>
      <trkpt lat="42.49737" lon="0.50853">
        <ele>1087.2</ele>
        <time>2015-02-09T14:49:24Z</time>
      </trkpt>
      <trkpt lat="42.49706" lon="0.50857">
        <ele>1091</ele>
        <time>2015-02-09T14:49:24Z</time>
      </trkpt>
      <trkpt lat="42.49687" lon="0.50847">
        <ele>1093.8</ele>
        <time>2015-02-09T14:49:24Z</time>
      </trkpt>
      <trkpt lat="42.49658" lon="0.50839">
        <ele>1097.6</ele>
        <time>2015-02-09T14:49:24Z</time>
      </trkpt>
      <trkpt lat="42.4965" lon="0.50825">
        <ele>1099.4</ele>
        <time>2015-02-09T14:49:24Z</time>
      </trkpt>
      <trkpt lat="42.49657" lon="0.50784">
        <ele>1102.4</ele>
        <time>2015-02-09T14:49:24Z</time>
      </trkpt>
      <trkpt lat="42.49646" lon="0.5074">
        <ele>1107.2</ele>
        <time>2015-02-09T14:49:24Z</time>
      </trkpt>
      <trkpt lat="42.49648" lon="0.50721">
        <ele>1109.5</ele>
        <time>2015-02-09T14:49:24Z</time>
      </trkpt>
      <trkpt lat="42.49662" lon="0.50717">
        <ele>1109.3</ele>
        <time>2015-02-09T14:49:24Z</time>
      </trkpt>
      <trkpt lat="42.49688" lon="0.50716">
        <ele>1106</ele>
        <time>2015-02-09T14:49:24Z</time>
      </trkpt>
      <trkpt lat="42.49711" lon="0.50672">
        <ele>1109.4</ele>
        <time>2015-02-09T14:49:24Z</time>
      </trkpt>
      <trkpt lat="42.49749" lon="0.50648">
        <ele>1108.6</ele>
        <time>2015-02-09T14:49:24Z</time>
      </trkpt>
      <trkpt lat="42.49814" lon="0.50647">
        <ele>1102</ele>
        <time>2015-02-09T14:49:24Z</time>
      </trkpt>
      <trkpt lat="42.49876" lon="0.50615">
        <ele>1104.2</ele>
        <time>2015-02-09T14:49:24Z</time>
      </trkpt>
      <trkpt lat="42.49907" lon="0.50614">
        <ele>1104.3</ele>
        <time>2015-02-09T14:49:24Z</time>
      </trkpt>
      <trkpt lat="42.49956" lon="0.50612">
        <ele>1105.9</ele>
        <time>2015-02-09T14:49:24Z</time>
      </trkpt>
      <trkpt lat="42.49982" lon="0.50607">
        <ele>1107.4</ele>
        <time>2015-02-09T14:49:24Z</time>
      </trkpt>
      <trkpt lat="42.50026" lon="0.50619">
        <ele>1106.2</ele>
        <time>2015-02-09T14:49:24Z</time>
      </trkpt>
      <trkpt lat="42.50076" lon="0.50629">
        <ele>1105.5</ele>
        <time>2015-02-09T14:49:24Z</time>
      </trkpt>
      <trkpt lat="42.50131" lon="0.5064">
        <ele>1109.2</ele>
        <time>2015-02-09T14:49:24Z</time>
      </trkpt>
      <trkpt lat="42.50178" lon="0.50638">
        <ele>1115.6</ele>
        <time>2015-02-09T14:49:24Z</time>
      </trkpt>
      <trkpt lat="42.50221" lon="0.50627">
        <ele>1124.9</ele>
        <time>2015-02-09T14:49:24Z</time>
      </trkpt>
      <trkpt lat="42.50243" lon="0.50629">
        <ele>1127.9</ele>
        <time>2015-02-09T14:49:24Z</time>
      </trkpt>
      <trkpt lat="42.50268" lon="0.50641">
        <ele>1124.5</ele>
        <time>2015-02-09T14:49:24Z</time>
      </trkpt>
      <trkpt lat="42.5029" lon="0.50651">
        <ele>1120.5</ele>
        <time>2015-02-09T14:49:24Z</time>
      </trkpt>
      <trkpt lat="42.50326" lon="0.50655">
        <ele>1116.5</ele>
        <time>2015-02-09T14:49:24Z</time>
      </trkpt>
      <trkpt lat="42.50365" lon="0.50667">
        <ele>1101.5</ele>
        <time>2015-02-09T14:49:24Z</time>
      </trkpt>
      <trkpt lat="42.50389" lon="0.50677">
        <ele>1091</ele>
        <time>2015-02-09T14:49:24Z</time>
      </trkpt>
      <trkpt lat="42.50406" lon="0.50669">
        <ele>1086.5</ele>
        <time>2015-02-09T14:49:24Z</time>
      </trkpt>
      <trkpt lat="42.50437" lon="0.5064">
        <ele>1077.6</ele>
        <time>2015-02-09T14:49:24Z</time>
      </trkpt>
      <trkpt lat="42.50454" lon="0.50602">
        <ele>1077.1</ele>
        <time>2015-02-09T14:49:24Z</time>
      </trkpt>
      <trkpt lat="42.50467" lon="0.50566">
        <ele>1078.8</ele>
        <time>2015-02-09T14:49:24Z</time>
      </trkpt>
      <trkpt lat="42.50472" lon="0.50533">
        <ele>1083.2</ele>
        <time>2015-02-09T14:49:24Z</time>
      </trkpt>
      <trkpt lat="42.50469" lon="0.50499">
        <ele>1090.3</ele>
        <time>2015-02-09T14:49:24Z</time>
      </trkpt>
      <trkpt lat="42.50478" lon="0.50472">
        <ele>1091.6</ele>
        <time>2015-02-09T14:49:24Z</time>
      </trkpt>
      <trkpt lat="42.50503" lon="0.50437">
        <ele>1089.3</ele>
        <time>2015-02-09T14:49:24Z</time>
      </trkpt>
      <trkpt lat="42.50513" lon="0.50419">
        <ele>1088.3</ele>
        <time>2015-02-09T14:49:24Z</time>
      </trkpt>
      <trkpt lat="42.5052" lon="0.50396">
        <ele>1088.1</ele>
        <time>2015-02-09T14:49:24Z</time>
      </trkpt>
      <trkpt lat="42.50534" lon="0.50369">
        <ele>1086.4</ele>
        <time>2015-02-09T14:49:24Z</time>
      </trkpt>
      <trkpt lat="42.50549" lon="0.50353">
        <ele>1083.6</ele>
        <time>2015-02-09T14:49:24Z</time>
      </trkpt>
      <trkpt lat="42.50555" lon="0.50335">
        <ele>1083.9</ele>
        <time>2015-02-09T14:49:24Z</time>
      </trkpt>
      <trkpt lat="42.50552" lon="0.50321">
        <ele>1085.1</ele>
        <time>2015-02-09T14:49:24Z</time>
      </trkpt>
      <trkpt lat="42.50544" lon="0.50302">
        <ele>1087.7</ele>
        <time>2015-02-09T14:49:24Z</time>
      </trkpt>
      <trkpt lat="42.50536" lon="0.50284">
        <ele>1089.9</ele>
        <time>2015-02-09T14:49:24Z</time>
      </trkpt>
      <trkpt lat="42.50538" lon="0.50247">
        <ele>1090.2</ele>
        <time>2015-02-09T14:49:24Z</time>
      </trkpt>
      <trkpt lat="42.50544" lon="0.50221">
        <ele>1091.5</ele>
        <time>2015-02-09T14:49:24Z</time>
      </trkpt>
      <trkpt lat="42.50562" lon="0.50183">
        <ele>1089.7</ele>
        <time>2015-02-09T14:49:24Z</time>
      </trkpt>
      <trkpt lat="42.50581" lon="0.5014">
        <ele>1089.3</ele>
        <time>2015-02-09T14:49:24Z</time>
      </trkpt>
      <trkpt lat="42.50599" lon="0.50088">
        <ele>1091.8</ele>
        <time>2015-02-09T14:49:24Z</time>
      </trkpt>
      <trkpt lat="42.50611" lon="0.50059">
        <ele>1091.7</ele>
        <time>2015-02-09T14:49:24Z</time>
      </trkpt>
      <trkpt lat="42.5062" lon="0.50044">
        <ele>1090.4</ele>
        <time>2015-02-09T14:49:24Z</time>
      </trkpt>
      <trkpt lat="42.50638" lon="0.50022">
        <ele>1085.9</ele>
        <time>2015-02-09T14:49:24Z</time>
      </trkpt>
      <trkpt lat="42.50646" lon="0.50016">
        <ele>1083.1</ele>
        <time>2015-02-09T14:49:24Z</time>
      </trkpt>
      <trkpt lat="42.50658" lon="0.49983">
        <ele>1081.8</ele>
        <time>2015-02-09T14:49:24Z</time>
      </trkpt>
      <trkpt lat="42.50667" lon="0.49961">
        <ele>1080.6</ele>
        <time>2015-02-09T14:49:24Z</time>
      </trkpt>
      <trkpt lat="42.50673" lon="0.49945">
        <ele>1079.7</ele>
        <time>2015-02-09T14:49:24Z</time>
      </trkpt>
      <trkpt lat="42.50687" lon="0.49929">
        <ele>1075.3</ele>
        <time>2015-02-09T14:49:24Z</time>
      </trkpt>
      <trkpt lat="42.5071" lon="0.49878">
        <ele>1069.8</ele>
        <time>2015-02-09T14:49:24Z</time>
      </trkpt>
      <trkpt lat="42.50718" lon="0.49843">
        <ele>1069.1</ele>
        <time>2015-02-09T14:49:24Z</time>
      </trkpt>
      <trkpt lat="42.50726" lon="0.49791">
        <ele>1066.8</ele>
        <time>2015-02-09T14:49:24Z</time>
      </trkpt>
      <trkpt lat="42.50722" lon="0.49765">
        <ele>1069.3</ele>
        <time>2015-02-09T14:49:24Z</time>
      </trkpt>
      <trkpt lat="42.50706" lon="0.49723">
        <ele>1073.4</ele>
        <time>2015-02-09T14:49:24Z</time>
      </trkpt>
      <trkpt lat="42.50694" lon="0.49689">
        <ele>1073.6</ele>
        <time>2015-02-09T14:49:24Z</time>
      </trkpt>
      <trkpt lat="42.50685" lon="0.49657">
        <ele>1072.4</ele>
        <time>2015-02-09T14:49:24Z</time>
      </trkpt>
      <trkpt lat="42.50676" lon="0.49616">
        <ele>1071.2</ele>
        <time>2015-02-09T14:49:24Z</time>
      </trkpt>
      <trkpt lat="42.50667" lon="0.49584">
        <ele>1070.8</ele>
        <time>2015-02-09T14:49:24Z</time>
      </trkpt>
      <trkpt lat="42.50661" lon="0.49553">
        <ele>1072.7</ele>
        <time>2015-02-09T14:49:24Z</time>
      </trkpt>
      <trkpt lat="42.50641" lon="0.49526">
        <ele>1080.1</ele>
        <time>2015-02-09T14:49:24Z</time>
      </trkpt>
      <trkpt lat="42.50616" lon="0.49499">
        <ele>1087.7</ele>
        <time>2015-02-09T14:49:24Z</time>
      </trkpt>
      <trkpt lat="42.50596" lon="0.49476">
        <ele>1095</ele>
        <time>2015-02-09T14:49:24Z</time>
      </trkpt>
      <trkpt lat="42.50585" lon="0.4946">
        <ele>1098.8</ele>
        <time>2015-02-09T14:49:24Z</time>
      </trkpt>
      <trkpt lat="42.50567" lon="0.49438">
        <ele>1102.7</ele>
        <time>2015-02-09T14:49:24Z</time>
      </trkpt>
      <trkpt lat="42.50552" lon="0.49395">
        <ele>1106.1</ele>
        <time>2015-02-09T14:49:24Z</time>
      </trkpt>
      <trkpt lat="42.50533" lon="0.4937">
        <ele>1110.1</ele>
        <time>2015-02-09T14:49:24Z</time>
      </trkpt>
      <trkpt lat="42.50513" lon="0.49344">
        <ele>1113.4</ele>
        <time>2015-02-09T14:49:24Z</time>
      </trkpt>
      <trkpt lat="42.50498" lon="0.49303">
        <ele>1115.2</ele>
        <time>2015-02-09T14:49:24Z</time>
      </trkpt>
      <trkpt lat="42.50489" lon="0.49277">
        <ele>1115.8</ele>
        <time>2015-02-09T14:49:24Z</time>
      </trkpt>
      <trkpt lat="42.50476" lon="0.4925">
        <ele>1115.9</ele>
        <time>2015-02-09T14:49:24Z</time>
      </trkpt>
      <trkpt lat="42.50467" lon="0.49218">
        <ele>1117.1</ele>
        <time>2015-02-09T14:49:24Z</time>
      </trkpt>
      <trkpt lat="42.50461" lon="0.49169">
        <ele>1118.5</ele>
        <time>2015-02-09T14:49:24Z</time>
      </trkpt>
      <trkpt lat="42.50464" lon="0.49151">
        <ele>1118.9</ele>
        <time>2015-02-09T14:49:24Z</time>
      </trkpt>
      <trkpt lat="42.50482" lon="0.49156">
        <ele>1119</ele>
        <time>2015-02-09T14:49:24Z</time>
      </trkpt>
      <trkpt lat="42.50508" lon="0.49165">
        <ele>1117.2</ele>
        <time>2015-02-09T14:49:24Z</time>
      </trkpt>
      <trkpt lat="42.50524" lon="0.49176">
        <ele>1113.9</ele>
        <time>2015-02-09T14:49:24Z</time>
      </trkpt>
      <trkpt lat="42.50541" lon="0.49185">
        <ele>1110.9</ele>
        <time>2015-02-09T14:49:24Z</time>
      </trkpt>
      <trkpt lat="42.50561" lon="0.49192">
        <ele>1107.7</ele>
        <time>2015-02-09T14:49:24Z</time>
      </trkpt>
      <trkpt lat="42.50573" lon="0.49192">
        <ele>1105.7</ele>
        <time>2015-02-09T14:49:24Z</time>
      </trkpt>
      <trkpt lat="42.50586" lon="0.49194">
        <ele>1103.1</ele>
        <time>2015-02-09T14:49:24Z</time>
      </trkpt>
      <trkpt lat="42.50596" lon="0.49213">
        <ele>1101</ele>
        <time>2015-02-09T14:49:24Z</time>
      </trkpt>
      <trkpt lat="42.50604" lon="0.49244">
        <ele>1100.8</ele>
        <time>2015-02-09T14:49:24Z</time>
      </trkpt>
      <trkpt lat="42.50616" lon="0.49263">
        <ele>1096.9</ele>
        <time>2015-02-09T14:49:24Z</time>
      </trkpt>
      <trkpt lat="42.50628" lon="0.49285">
        <ele>1092.7</ele>
        <time>2015-02-09T14:49:24Z</time>
      </trkpt>
      <trkpt lat="42.50639" lon="0.49311">
        <ele>1089.1</ele>
        <time>2015-02-09T14:49:24Z</time>
      </trkpt>
      <trkpt lat="42.50645" lon="0.49319">
        <ele>1087.2</ele>
        <time>2015-02-09T14:49:24Z</time>
      </trkpt>
      <trkpt lat="42.50671" lon="0.49317">
        <ele>1078.3</ele>
        <time>2015-02-09T14:49:24Z</time>
      </trkpt>
      <trkpt lat="42.50683" lon="0.49328">
        <ele>1072.2</ele>
        <time>2015-02-09T14:49:24Z</time>
      </trkpt>
      <trkpt lat="42.50695" lon="0.4935">
        <ele>1064.4</ele>
        <time>2015-02-09T14:49:24Z</time>
      </trkpt>
      <trkpt lat="42.50704" lon="0.49374">
        <ele>1057.5</ele>
        <time>2015-02-09T14:49:24Z</time>
      </trkpt>
      <trkpt lat="42.50707" lon="0.49394">
        <ele>1054.4</ele>
        <time>2015-02-09T14:49:24Z</time>
      </trkpt>
      <trkpt lat="42.50711" lon="0.49401">
        <ele>1052</ele>
        <time>2015-02-09T14:49:24Z</time>
      </trkpt>
      <trkpt lat="42.50724" lon="0.49406">
        <ele>1045.5</ele>
        <time>2015-02-09T14:49:24Z</time>
      </trkpt>
      <trkpt lat="42.50735" lon="0.49416">
        <ele>1039.8</ele>
        <time>2015-02-09T14:49:24Z</time>
      </trkpt>
      <trkpt lat="42.50747" lon="0.49432">
        <ele>1034.7</ele>
        <time>2015-02-09T14:49:24Z</time>
      </trkpt>
      <trkpt lat="42.50766" lon="0.49422">
        <ele>1027</ele>
        <time>2015-02-09T14:49:24Z</time>
      </trkpt>
      <trkpt lat="42.50798" lon="0.49415">
        <ele>1014.3</ele>
        <time>2015-02-09T14:49:24Z</time>
      </trkpt>
      <trkpt lat="42.50817" lon="0.49417">
        <ele>1007.1</ele>
        <time>2015-02-09T14:49:24Z</time>
      </trkpt>
      <trkpt lat="42.50832" lon="0.49418">
        <ele>1001.4</ele>
        <time>2015-02-09T14:49:24Z</time>
      </trkpt>
      <trkpt lat="42.50842" lon="0.49436">
        <ele>999.8</ele>
        <time>2015-02-09T14:49:24Z</time>
      </trkpt>
      <trkpt lat="42.50862" lon="0.49452">
        <ele>994.9</ele>
        <time>2015-02-09T14:49:24Z</time>
      </trkpt>
      <trkpt lat="42.50881" lon="0.49463">
        <ele>989.9</ele>
        <time>2015-02-09T14:49:24Z</time>
      </trkpt>
      <trkpt lat="42.50895" lon="0.49459">
        <ele>984.1</ele>
        <time>2015-02-09T14:49:24Z</time>
      </trkpt>
      <trkpt lat="42.50902" lon="0.49459">
        <ele>981.7</ele>
        <time>2015-02-09T14:49:24Z</time>
      </trkpt>
      <trkpt lat="42.50913" lon="0.49456">
        <ele>977</ele>
        <time>2015-02-09T14:49:24Z</time>
      </trkpt>
      <trkpt lat="42.50918" lon="0.49448">
        <ele>973.1</ele>
        <time>2015-02-09T14:49:24Z</time>
      </trkpt>
      <trkpt lat="42.5092" lon="0.4943">
        <ele>967.7</ele>
        <time>2015-02-09T14:49:24Z</time>
      </trkpt>
      <trkpt lat="42.50924" lon="0.49414">
        <ele>961.9</ele>
        <time>2015-02-09T14:49:24Z</time>
      </trkpt>
      <trkpt lat="42.50919" lon="0.49396">
        <ele>960.5</ele>
        <time>2015-02-09T14:49:24Z</time>
      </trkpt>
      <trkpt lat="42.50926" lon="0.49379">
        <ele>954.5</ele>
        <time>2015-02-09T14:49:24Z</time>
      </trkpt>
      <trkpt lat="42.50931" lon="0.49373">
        <ele>951.7</ele>
        <time>2015-02-09T14:49:24Z</time>
      </trkpt>
      <trkpt lat="42.50922" lon="0.49368">
        <ele>953.5</ele>
        <time>2015-02-09T14:49:24Z</time>
      </trkpt>
      <trkpt lat="42.50927" lon="0.49358">
        <ele>950</ele>
        <time>2015-02-09T14:49:24Z</time>
      </trkpt>
      <trkpt lat="42.50934" lon="0.49357">
        <ele>948</ele>
        <time>2015-02-09T14:49:24Z</time>
      </trkpt>
      <trkpt lat="42.50944" lon="0.4936">
        <ele>945.6</ele>
        <time>2015-02-09T14:49:24Z</time>
      </trkpt>
      <trkpt lat="42.5095" lon="0.49358">
        <ele>943.4</ele>
        <time>2015-02-09T14:49:24Z</time>
      </trkpt>
      <trkpt lat="42.50951" lon="0.49345">
        <ele>941.4</ele>
        <time>2015-02-09T14:49:24Z</time>
      </trkpt>
      <trkpt lat="42.50956" lon="0.49332">
        <ele>938.8</ele>
        <time>2015-02-09T14:49:24Z</time>
      </trkpt>
      <trkpt lat="42.50957" lon="0.49316">
        <ele>937.6</ele>
        <time>2015-02-09T14:49:24Z</time>
      </trkpt>
      <trkpt lat="42.50963" lon="0.49315">
        <ele>936.2</ele>
        <time>2015-02-09T14:49:24Z</time>
      </trkpt>
      <trkpt lat="42.50976" lon="0.49321">
        <ele>933.6</ele>
        <time>2015-02-09T14:49:24Z</time>
      </trkpt>
      <trkpt lat="42.5099" lon="0.49325">
        <ele>930.7</ele>
        <time>2015-02-09T14:49:24Z</time>
      </trkpt>
      <trkpt lat="42.51001" lon="0.49332">
        <ele>928.8</ele>
        <time>2015-02-09T14:49:24Z</time>
      </trkpt>
      <trkpt lat="42.51009" lon="0.49335">
        <ele>928.1</ele>
        <time>2015-02-09T14:49:24Z</time>
      </trkpt>
      <trkpt lat="42.5102" lon="0.49335">
        <ele>927</ele>
        <time>2015-02-09T14:49:24Z</time>
      </trkpt>
      <trkpt lat="42.51026" lon="0.49331">
        <ele>926.4</ele>
        <time>2015-02-09T14:49:24Z</time>
      </trkpt>
      <trkpt lat="42.51035" lon="0.49345">
        <ele>925.7</ele>
        <time>2015-02-09T14:49:24Z</time>
      </trkpt>
      <trkpt lat="42.51049" lon="0.49372">
        <ele>924.7</ele>
        <time>2015-02-09T14:49:24Z</time>
      </trkpt>
      <trkpt lat="42.51068" lon="0.49402">
        <ele>923.2</ele>
        <time>2015-02-09T14:49:24Z</time>
      </trkpt>
      <trkpt lat="42.51083" lon="0.49429">
        <ele>922.3</ele>
        <time>2015-02-09T14:49:24Z</time>
      </trkpt>
      <trkpt lat="42.51099" lon="0.4945">
        <ele>923.4</ele>
        <time>2015-02-09T14:49:24Z</time>
      </trkpt>
      <trkpt lat="42.51113" lon="0.49462">
        <ele>924.1</ele>
        <time>2015-02-09T14:49:24Z</time>
      </trkpt>
      <trkpt lat="42.51126" lon="0.49475">
        <ele>924.9</ele>
        <time>2015-02-09T14:49:24Z</time>
      </trkpt>
      <trkpt lat="42.51141" lon="0.49475">
        <ele>925.5</ele>
        <time>2015-02-09T14:49:24Z</time>
      </trkpt>
      <trkpt lat="42.51154" lon="0.49469">
        <ele>925.8</ele>
        <time>2015-02-09T14:49:24Z</time>
      </trkpt>
      <trkpt lat="42.51169" lon="0.4947">
        <ele>926.4</ele>
        <time>2015-02-09T14:49:24Z</time>
      </trkpt>
      <trkpt lat="42.51184" lon="0.49461">
        <ele>926.8</ele>
        <time>2015-02-09T14:49:24Z</time>
      </trkpt>
      <trkpt lat="42.51203" lon="0.4943">
        <ele>927</ele>
        <time>2015-02-09T14:49:24Z</time>
      </trkpt>
      <trkpt lat="42.5122" lon="0.4941">
        <ele>927.2</ele>
        <time>2015-02-09T14:49:24Z</time>
      </trkpt>
      <trkpt lat="42.51238" lon="0.49351">
        <ele>925.4</ele>
        <time>2015-02-09T14:49:24Z</time>
      </trkpt>
      <trkpt lat="42.51242" lon="0.49322">
        <ele>924.6</ele>
        <time>2015-02-09T14:49:24Z</time>
      </trkpt>
      <trkpt lat="42.51243" lon="0.49297">
        <ele>924.3</ele>
        <time>2015-02-09T14:49:24Z</time>
      </trkpt>
      <trkpt lat="42.51244" lon="0.49141">
        <ele>919.1</ele>
        <time>2015-02-09T14:49:24Z</time>
      </trkpt>
      <trkpt lat="42.51237" lon="0.49028">
        <ele>915.6</ele>
        <time>2015-02-09T14:49:24Z</time>
      </trkpt>
      <trkpt lat="42.51236" lon="0.48957">
        <ele>913.6</ele>
        <time>2015-02-09T14:49:24Z</time>
      </trkpt>
    </trkseg>
  </trk>
</gpx>